[[{"header":{"parameterUnit":"m.s-1","parameterCategory":1,"la1":30.6,"la2":29.2853,"lo1":-89.7004,"lo2":-87.6739,"dy":0.0162,"dx":0.0183,"nx":112,"ny":82,"refTime":"2023-05-22T00:00:00:Z","depth":0,"parameterNumber":2,"parameterNumberName":"U-component_of_WINDS"},"data":[0.0,0.0,0.0,0.0,0.0,0.0,0.0,0.0,0.0,0.0,0.0,0.0,0.0,0.0,0.0,0.0,0.0,0.0,0.0,0.0,0.0,0.0,0.0,0.0,0.0,0.0,0.0,0.0,0.0,0.0,0.0,0.0,0.0,0.0,0.0,0.0,0.0,0.0,0.0,0.0,0.0,0.0,0.0,0.0,0.0,0.0,0.0,0.0,0.0,0.0,0.0,0.0,0.0,0.0,0.0,0.0,0.0,0.0,0.0,0.0,0.0,0.0,0.0,0.0,0.0,0.0,0.0,0.0,0.0,0.0,0.0,0.0,0.0,0.0,0.0,0.0,0.0,0.0,0.0,0.0,0.0,0.0,0.0,0.0,0.0,0.0,0.0,0.0,0.0,0.0,0.0,3.5782,4.1873,4.4626,4.2215,4.1396,3.8392,3.2237,0.0,0.0,0.0,0.0,0.0,0.0,0.0,0.0,0.0,0.0,0.0,0.0,0.0,0.0,0.0,0.0,0.0,0.0,0.0,0.0,0.0,0.0,0.0,0.0,0.0,0.0,0.0,0.0,0.0,0.0,0.0,0.0,0.0,0.0,0.0,0.0,0.0,0.0,0.0,0.0,0.0,0.0,0.0,0.0,0.0,0.0,0.0,0.0,0.0,0.0,0.0,0.0,0.0,0.0,0.0,0.0,0.0,0.0,0.0,0.0,0.0,0.0,0.0,0.0,0.0,0.0,0.0,0.0,0.0,0.0,0.0,0.0,0.0,0.0,0.0,0.0,0.0,0.0,0.0,0.0,0.0,0.0,0.0,0.0,0.0,0.0,0.0,0.0,0.0,0.0,0.0,0.0,0.0,0.0,0.0,0.0,0.0,0.0,0.0,0.0,0.0,0.0,0.0,0.0,3.2801,3.9065,4.3258,4.4876,4.3056,3.9569,3.6037,3.2675,0.0,0.0,0.0,0.0,0.0,0.0,0.0,0.0,0.0,0.0,0.0,0.0,0.0,0.0,0.0,0.0,0.0,0.0,0.0,0.0,0.0,0.0,0.0,0.0,0.0,0.0,0.0,0.0,0.0,0.0,0.0,0.0,0.0,0.0,0.0,0.0,0.0,0.0,0.0,0.0,0.0,0.0,0.0,0.0,0.0,0.0,0.0,0.0,0.0,0.0,0.0,0.0,0.0,0.0,0.0,0.0,0.0,0.0,0.0,0.0,0.0,0.0,0.0,0.0,0.0,0.0,0.0,0.0,0.0,0.0,0.0,0.0,0.0,0.0,0.0,0.0,0.0,0.0,0.0,0.0,0.0,0.0,0.0,0.0,0.0,0.0,0.0,0.0,0.0,0.0,0.0,0.0,0.0,0.0,0.0,0.0,0.0,0.0,0.0,0.0,0.0,0.0,0.0,3.1992,3.5306,4.0642,4.3835,4.4914,4.3229,3.9596,3.6022,3.2793,3.0739,0.0,0.0,0.0,0.0,0.0,0.0,0.0,0.0,0.0,0.0,0.0,0.0,0.0,0.0,0.0,0.0,0.0,0.0,0.0,0.0,0.0,0.0,0.0,0.0,0.0,0.0,0.0,0.0,0.0,0.0,0.0,0.0,0.0,0.0,0.0,0.0,0.0,0.0,0.0,0.0,0.0,0.0,0.0,0.0,0.0,0.0,0.0,0.0,0.0,0.0,0.0,0.0,0.0,0.0,0.0,0.0,0.0,0.0,0.0,0.0,0.0,0.0,0.0,0.0,0.0,0.0,0.0,0.0,0.0,0.0,0.0,0.0,0.0,0.0,0.0,0.0,0.0,0.0,0.0,0.0,0.0,0.0,0.0,0.0,0.0,0.0,0.0,0.0,0.0,0.0,0.0,0.0,0.0,0.0,0.0,0.0,0.0,0.0,0.0,0.0,0.0,0.0,3.4845,3.7565,4.1393,4.3893,4.453,4.2654,3.9186,3.5724,3.2517,2.9159,0.0,0.0,0.0,0.0,0.0,0.0,0.0,0.0,0.0,0.0,0.0,0.0,0.0,0.0,0.0,0.0,0.0,0.0,0.0,0.0,0.0,0.0,0.0,0.0,0.0,0.0,0.0,0.0,0.0,0.0,0.0,0.0,0.0,0.0,0.0,0.0,0.0,0.0,0.0,0.0,0.0,0.0,0.0,0.0,0.0,0.0,0.0,0.0,0.0,0.0,0.0,0.0,0.0,0.0,0.0,0.0,0.0,0.0,0.0,0.0,0.0,0.0,0.0,0.0,0.0,0.0,0.0,0.0,0.0,0.0,0.0,0.0,0.0,0.0,0.0,0.0,0.0,0.0,0.0,0.0,0.0,0.0,0.0,0.0,0.0,0.0,0.0,0.0,0.0,0.0,0.0,0.0,0.0,0.0,0.0,0.0,0.0,0.0,0.0,0.0,0.0,0.0,3.5872,3.8854,4.1527,4.3355,4.3378,4.0895,3.685,3.3612,3.1614,2.7714,0.0,0.0,0.0,0.0,0.0,0.0,0.0,0.0,0.0,0.0,0.0,0.0,0.0,0.0,0.0,0.0,0.0,0.0,0.0,0.0,0.0,0.0,0.0,0.0,0.0,0.0,0.0,0.0,0.0,0.0,0.0,0.0,0.0,0.0,0.0,0.0,0.0,0.0,0.0,0.0,0.0,0.0,0.0,0.0,0.0,0.0,0.0,0.0,0.0,0.0,0.0,0.0,0.0,0.0,0.0,0.0,0.0,0.0,0.0,0.0,0.0,0.0,0.0,0.0,0.0,0.0,0.0,0.0,0.0,0.0,0.0,0.0,0.0,0.0,0.0,0.0,0.0,0.0,0.0,0.0,0.0,0.0,0.0,0.0,0.0,0.0,0.0,0.0,0.0,0.0,0.0,0.0,0.0,0.0,0.0,0.0,0.0,0.0,0.0,0.0,0.0,0.0,3.5479,3.8373,0.0,4.3299,4.3265,4.0718,3.7137,3.3987,3.1545,0.0,0.0,0.0,0.0,0.0,0.0,0.0,0.0,0.0,0.0,0.0,0.0,0.0,0.0,0.0,0.0,0.0,0.0,0.0,0.0,0.0,0.0,0.0,0.0,0.0,0.0,0.0,0.0,0.0,0.0,0.0,0.0,0.0,0.0,0.0,0.0,0.0,0.0,0.0,0.0,0.0,0.0,0.0,0.0,0.0,0.0,0.0,0.0,0.0,0.0,0.0,0.0,0.0,0.0,0.0,0.0,0.0,0.0,0.0,0.0,0.0,0.0,0.0,0.0,0.0,0.0,0.0,0.0,0.0,0.0,0.0,0.0,0.0,0.0,0.0,0.0,0.0,0.0,0.0,0.0,0.0,0.0,0.0,0.0,0.0,0.0,0.0,0.0,0.0,0.0,0.0,0.0,0.0,0.0,0.0,0.0,0.0,0.0,0.0,0.0,0.0,0.0,3.2596,3.5235,3.793,0.0,4.2415,4.2071,3.9509,3.5965,3.2957,3.0808,0.0,0.0,0.0,0.0,0.0,0.0,0.0,0.0,0.0,0.0,0.0,0.0,0.0,0.0,0.0,0.0,0.0,0.0,0.0,0.0,0.0,0.0,0.0,0.0,0.0,0.0,0.0,0.0,0.0,0.0,0.0,0.0,0.0,0.0,0.0,0.0,0.0,0.0,0.0,0.0,0.0,0.0,0.0,0.0,0.0,0.0,0.0,0.0,0.0,0.0,0.0,0.0,0.0,0.0,0.0,0.0,0.0,0.0,0.0,0.0,0.0,0.0,0.0,0.0,0.0,0.0,0.0,0.0,0.0,0.0,0.0,0.0,0.0,0.0,0.0,0.0,0.0,0.0,0.0,0.0,0.0,0.0,0.0,0.0,0.0,0.0,0.0,0.0,0.0,0.0,0.0,0.0,0.0,0.0,0.0,0.0,0.0,0.0,0.0,0.0,0.0,0.0,3.2679,3.5273,3.7743,4.0219,4.0489,3.9458,3.6922,3.2842,3.0035,0.0,0.0,0.0,0.0,0.0,0.0,0.0,0.0,0.0,0.0,0.0,0.0,0.0,0.0,0.0,0.0,0.0,0.0,0.0,0.0,0.0,0.0,0.0,0.0,0.0,0.0,0.0,0.0,0.0,0.0,0.0,0.0,0.0,0.0,0.0,0.0,0.0,0.0,0.0,0.0,0.0,0.0,0.0,0.0,0.0,0.0,0.0,0.0,0.0,0.0,0.0,0.0,0.0,0.0,0.0,0.0,0.0,0.0,0.0,0.0,0.0,0.0,0.0,0.0,0.0,0.0,0.0,0.0,0.0,0.0,0.0,0.0,0.0,0.0,0.0,0.0,0.0,0.0,0.0,0.0,0.0,0.0,0.0,0.0,0.0,0.0,0.0,0.0,0.0,0.0,0.0,0.0,0.0,0.0,0.0,0.0,0.0,0.0,0.0,0.0,0.0,0.0,0.0,3.2684,3.527,3.7743,4.0219,4.0489,3.9469,3.6916,3.2832,3.0025,2.9168,0.0,0.0,0.0,0.0,0.0,0.0,0.0,0.0,0.0,0.0,0.0,0.0,0.0,0.0,0.0,0.0,0.0,0.0,0.0,0.0,0.0,0.0,0.0,0.0,0.0,0.0,0.0,0.0,0.0,0.0,0.0,0.0,0.0,0.0,0.0,0.0,0.0,0.0,0.0,0.0,0.0,0.0,0.0,0.0,0.0,0.0,0.0,0.0,0.0,0.0,0.0,0.0,0.0,0.0,0.0,0.0,0.0,0.0,0.0,0.0,0.0,0.0,0.0,0.0,0.0,0.0,0.0,0.0,0.0,0.0,0.0,0.0,0.0,0.0,0.0,0.0,0.0,0.0,0.0,0.0,0.0,0.0,0.0,0.0,0.0,0.0,0.0,0.0,0.0,0.0,0.0,0.0,0.0,0.0,0.0,0.0,0.0,0.0,0.0,0.0,0.0,0.0,3.2686,3.5005,3.7425,4.02,3.9892,3.8604,3.6406,3.2644,2.9736,2.8193,0.0,0.0,0.0,0.0,0.0,0.0,0.0,0.0,0.0,0.0,0.0,0.0,0.0,0.0,0.0,0.0,0.0,0.0,0.0,0.0,0.0,0.0,0.0,0.0,0.0,0.0,0.0,0.0,0.0,0.0,0.0,0.0,0.0,0.0,0.0,0.0,0.0,0.0,0.0,0.0,0.0,0.0,0.0,0.0,0.0,0.0,0.0,0.0,0.0,0.0,0.0,0.0,0.0,0.0,0.0,0.0,0.0,0.0,0.0,0.0,0.0,0.0,0.0,0.0,0.0,0.0,0.0,0.0,0.0,0.0,0.0,0.0,0.0,0.0,0.0,0.0,0.0,0.0,0.0,0.0,0.0,0.0,0.0,0.0,0.0,0.0,0.0,0.0,0.0,0.0,0.0,0.0,0.0,0.0,0.0,0.0,0.0,0.0,0.0,0.0,0.0,0.0,3.2803,3.468,3.6922,4.0162,3.8988,3.7315,3.5641,3.2282,2.9256,2.6882,0.0,0.0,0.0,0.0,0.0,0.0,0.0,0.0,0.0,0.0,0.0,0.0,0.0,0.0,0.0,0.0,0.0,0.0,0.0,0.0,0.0,0.0,0.0,0.0,0.0,0.0,0.0,0.0,0.0,0.0,0.0,0.0,0.0,0.0,0.0,0.0,0.0,0.0,0.0,0.0,0.0,0.0,0.0,0.0,0.0,0.0,0.0,0.0,0.0,0.0,0.0,0.0,0.0,0.0,0.0,0.0,0.0,0.0,0.0,0.0,2.488,0.0,0.0,0.0,0.0,0.0,0.0,0.0,0.0,0.0,0.0,0.0,0.0,0.0,0.0,0.0,0.0,0.0,0.0,0.0,0.0,0.0,0.0,0.0,0.0,0.0,0.0,0.0,0.0,0.0,0.0,0.0,0.0,0.0,0.0,0.0,0.0,0.0,0.0,0.0,0.0,0.0,3.3626,3.5058,3.6922,4.0162,3.8988,3.7315,3.5641,3.1737,2.8871,2.7708,0.0,0.0,0.0,0.0,0.0,0.0,0.0,0.0,0.0,0.0,0.0,0.0,0.0,0.0,0.0,0.0,0.0,0.0,0.0,0.0,0.0,0.0,0.0,0.0,0.0,0.0,0.0,0.0,0.0,0.0,0.0,0.0,0.0,0.0,0.0,0.0,0.0,0.0,0.0,0.0,0.0,0.0,0.0,0.0,0.0,0.0,0.0,0.0,0.0,0.0,0.0,0.0,0.0,0.0,0.0,0.0,0.0,0.0,0.0,0.0,0.0,2.5698,0.0,0.0,0.0,0.0,0.0,0.0,0.0,0.0,0.0,0.0,0.0,0.0,0.0,0.0,0.0,0.0,0.0,0.0,0.0,0.0,0.0,0.0,0.0,0.0,0.0,0.0,0.0,0.0,0.0,0.0,0.0,0.0,0.0,0.0,0.0,0.0,0.0,0.0,0.0,0.0,3.3925,3.5155,3.6788,3.9623,3.8777,3.7142,3.5045,3.1718,2.9025,2.7371,2.5303,0.0,0.0,0.0,0.0,0.0,0.0,0.0,0.0,0.0,0.0,0.0,0.0,0.0,0.0,0.0,0.0,0.0,0.0,0.0,0.0,0.0,0.0,0.0,0.0,0.0,0.0,0.0,0.0,0.0,0.0,0.0,0.0,0.0,0.0,0.0,0.0,0.0,0.0,0.0,0.0,0.0,0.0,0.0,0.0,0.0,0.0,0.0,0.0,0.0,0.0,0.0,0.0,0.0,0.0,0.0,3.2391,3.3044,3.3063,3.2415,2.9443,2.7325,2.6014,0.0,0.0,0.0,0.0,0.0,0.0,0.0,0.0,0.0,0.0,0.0,0.0,0.0,0.0,0.0,0.0,0.0,0.0,0.0,0.0,0.0,0.0,0.0,0.0,0.0,3.1855,3.0547,0.0,0.0,0.0,0.0,0.0,0.0,0.0,0.0,0.0,0.0,0.0,0.0,3.4003,3.529,3.6788,3.9065,3.8527,3.6969,3.441,3.2006,2.9533,2.6995,2.6005,2.5219,0.0,0.0,0.0,0.0,0.0,0.0,0.0,0.0,0.0,0.0,0.0,0.0,0.0,0.0,0.0,0.0,0.0,0.0,0.0,0.0,0.0,0.0,0.0,0.0,0.0,0.0,0.0,0.0,0.0,0.0,0.0,0.0,2.5534,2.6495,0.0,0.0,0.0,0.0,0.0,0.0,0.0,0.0,0.0,0.0,0.0,0.0,0.0,0.0,3.1025,3.2468,3.3314,3.3526,3.441,3.4891,3.5007,3.5103,3.5488,3.5974,3.4822,0.0,2.8548,2.7971,0.0,0.0,0.0,0.0,0.0,0.0,0.0,0.0,0.0,0.0,0.0,0.0,0.0,0.0,0.0,0.0,0.0,0.0,0.0,0.0,0.0,0.0,3.2969,3.3184,3.3144,3.2949,0.0,3.1426,3.0117,2.8594,0.0,0.0,0.0,0.0,0.0,0.0,0.0,0.0,3.4081,3.5823,3.7471,3.9123,3.8527,3.6969,3.441,3.2564,3.0475,2.7964,2.636,2.5486,2.5427,2.4775,0.0,0.0,0.0,0.0,0.0,0.0,0.0,0.0,0.0,0.0,0.0,0.0,0.0,0.0,0.0,0.0,0.0,0.0,0.0,0.0,0.0,0.0,0.0,0.0,0.0,0.0,0.0,0.0,0.0,2.7527,2.8541,2.7462,2.9636,3.0871,0.0,0.0,0.0,0.0,0.0,0.0,0.0,0.0,0.0,3.2699,3.3506,3.4122,3.4507,3.5238,3.6103,3.7084,3.7911,3.8565,3.9065,3.955,3.9688,3.9538,3.9192,3.7171,3.3936,3.1653,2.9674,2.8067,0.0,0.0,0.0,0.0,0.0,0.0,2.8004,0.0,0.0,0.0,0.0,0.0,0.0,0.0,0.0,0.0,0.0,0.0,0.0,0.0,0.0,3.6816,3.668,3.6465,3.6953,3.5703,3.3848,0.0,3.1875,3.2051,3.0723,0.0,0.0,0.0,0.0,0.0,3.5555,3.7015,3.8024,3.8608,3.8334,3.6873,3.3782,3.2436,3.0694,2.8199,2.6937,2.6083,2.562,2.5301,2.5312,0.0,0.0,0.0,0.0,0.0,0.0,0.0,0.0,0.0,0.0,0.0,0.0,0.0,0.0,0.0,0.0,0.0,0.0,0.0,0.0,0.0,0.0,0.0,0.0,0.0,0.0,0.0,0.0,2.9236,3.0643,2.8464,3.1181,3.2487,0.0,0.0,0.0,0.0,0.0,0.0,3.3839,3.5329,3.6144,3.6136,3.7142,3.7777,3.8007,3.8238,3.9084,4.0585,4.1181,4.1931,4.2797,4.3434,4.3395,4.2746,4.2537,4.1251,3.9019,3.5364,3.2526,3.046,3.0224,2.9844,0.0,2.9406,3.0272,3.1373,3.0704,3.1344,3.2338,3.1446,0.0,3.0254,3.0254,0.0,0.0,0.0,0.0,3.5723,3.7246,0.0,3.873,4.0469,4.0371,4.0078,4.0723,3.9687,3.7695,0.0,3.4238,3.3965,3.2715,0.0,0.0,0.0,0.0,3.4043,3.6484,3.7923,3.8605,3.826,3.8218,3.6911,3.3673,3.2632,3.1102,2.8622,2.7676,2.6747,2.5677,2.5676,2.5703,2.5703,0.0,0.0,0.0,0.0,0.0,0.0,0.0,0.0,0.0,0.0,0.0,0.0,0.0,0.0,0.0,0.0,0.0,0.0,0.0,0.0,0.0,0.0,0.0,0.0,0.0,0.0,0.0,0.0,0.0,2.9161,3.2065,0.0,0.0,0.0,0.0,3.5278,3.6002,3.6459,3.6606,3.7409,3.7885,3.7872,3.9461,4.07,4.1546,4.2354,4.3201,4.4047,4.4085,4.4566,4.5413,4.5451,4.5451,4.5355,4.4528,4.3682,4.2508,3.8266,3.5494,3.3878,3.3029,3.2815,3.2947,3.2947,3.3072,3.3245,3.3157,3.3157,3.3484,3.4912,3.5459,3.5527,3.5586,3.5098,0.0,0.0,3.582,3.7383,3.8301,3.9766,4.1426,4.3105,4.3476,4.3457,4.3496,4.2793,4.0898,0.0,3.457,3.3437,3.3359,0.0,0.0,3.2187,3.4258,3.5859,3.5957,3.8105,3.9298,3.8393,3.8291,3.7238,3.4639,3.3635,3.2072,2.959,2.8603,2.7395,2.5759,2.5703,2.5703,2.5703,2.6504,0.0,0.0,0.0,0.0,0.0,0.0,0.0,0.0,0.0,0.0,0.0,0.0,0.0,0.0,0.0,0.0,0.0,0.0,0.0,0.0,0.0,0.0,0.0,0.0,0.0,0.0,0.0,0.0,3.3895,3.6516,0.0,0.0,3.5605,3.617,3.7065,3.739,3.8022,3.9122,4.0518,4.1511,4.2027,4.3181,4.3932,4.4239,4.4547,4.4855,4.5143,4.5143,4.5297,4.5586,4.5586,4.5586,4.5566,4.5259,4.4662,4.3758,4.2203,3.9631,3.6618,3.6459,3.5732,3.4811,3.4944,3.5396,3.5989,3.6517,3.6638,3.6477,3.5894,3.5349,3.4944,3.4964,3.5955,3.7207,3.7754,3.9199,4.0918,4.2344,4.2754,4.3105,4.4258,4.4101,4.3691,4.3691,4.3457,4.2773,4.125,3.8672,3.6562,3.6016,3.4746,3.4199,3.5312,3.6269,3.7226,3.832,3.9766,4.0291,3.9318,3.8701,3.7323,3.4789,3.3249,3.138,2.887,2.7901,2.6919,2.5742,2.5703,2.5703,2.5703,2.6016,2.6537,0.0,0.0,0.0,0.0,0.0,0.0,0.0,0.0,0.0,0.0,0.0,0.0,0.0,0.0,0.0,0.0,0.0,0.0,0.0,0.0,0.0,0.0,0.0,0.0,0.0,0.0,3.7165,3.7909,4.05,4.1461,3.9463,3.9257,3.9631,4.05,4.0563,4.1183,4.2576,4.3496,4.4186,4.4722,4.5586,4.6028,4.6028,4.6297,4.6297,4.6028,4.6297,4.6297,4.6028,4.6028,4.6028,4.6009,4.572,4.5259,4.4739,4.4739,4.2912,4.0104,3.9969,3.922,3.8252,3.8424,3.8881,3.9509,4.0093,4.0166,3.9823,3.8661,3.7899,3.7433,3.7491,3.8755,4.032,4.0896,4.2129,4.3535,4.4707,4.4785,4.4726,4.5293,4.5,4.457,4.457,4.4355,4.4141,4.4141,4.1836,3.9707,3.9121,3.7598,3.6953,3.8398,3.8379,3.8691,4.0156,4.084,4.082,3.9863,3.8984,3.7541,3.5269,3.375,3.1715,2.8925,2.8203,2.7226,2.5762,2.5977,2.6133,2.6133,2.6144,2.6521,2.7328,0.0,0.0,0.0,0.0,0.0,0.0,0.0,0.0,0.0,0.0,0.0,0.0,0.0,0.0,0.0,0.0,0.0,0.0,0.0,0.0,0.0,0.0,0.0,3.4394,3.8887,4.17,4.0818,4.3669,4.4735,4.2236,4.3485,4.4804,4.5626,4.5703,4.6089,4.6889,4.6142,4.5682,4.5682,4.6509,4.6951,4.6951,4.7721,4.7721,4.6951,4.774,4.7702,4.6951,4.6951,4.6951,4.6894,4.6009,4.5624,4.5624,4.5605,4.5086,4.4259,4.3451,4.3163,4.3225,4.3363,4.35,4.3633,4.3613,4.3435,4.3265,4.3352,4.3404,4.3432,4.3563,4.3659,4.373,4.3743,4.4375,4.5039,4.5039,4.5664,4.6308,4.6308,4.6308,4.6308,4.6308,4.5644,4.5039,4.5039,4.3672,4.25,4.2441,4.1094,4.0293,4.1113,4.0547,0.0,4.1094,4.1211,4.0918,4.0078,3.9199,3.7988,3.623,3.5215,3.3203,2.9805,2.9512,2.834,2.5801,2.6504,2.6953,2.6953,2.6989,2.6549,2.564,0.0,0.0,0.0,0.0,0.0,0.0,0.0,0.0,0.0,0.0,0.0,0.0,0.0,0.0,0.0,0.0,0.0,0.0,0.0,0.0,0.0,0.0,3.8691,3.9004,4.1286,4.3496,4.4978,4.705,4.7837,4.651,4.7355,4.7835,4.7449,4.7989,4.8182,4.7799,4.7529,4.7413,4.7413,4.7645,4.776,4.776,4.799,4.799,4.7778,4.799,4.799,4.7778,4.7778,4.7778,4.7721,4.6894,4.6547,4.649,4.5855,4.5451,4.5163,4.4414,4.3792,4.3366,4.3496,4.4003,4.4491,4.3714,4.3875,4.4298,4.351,4.333,4.3412,4.3447,4.3976,4.4573,4.4568,4.5234,4.5937,4.5937,4.6113,4.6308,4.6308,4.6308,4.6308,4.6308,4.6113,4.5937,4.5937,4.5566,4.4824,4.3555,4.2969,4.2519,4.2129,0.0,0.0,4.1328,4.1719,4.1973,4.1738,4.0976,3.9785,3.8027,3.5351,3.2578,0.0,2.7812,2.6445,2.5723,2.5937,2.6055,2.6055,2.6622,2.6801,0.0,0.0,0.0,0.0,0.0,0.0,0.0,0.0,0.0,0.0,0.0,0.0,0.0,0.0,0.0,0.0,0.0,0.0,0.0,0.0,0.0,0.0,4.1125,4.3169,4.4831,4.5559,4.6704,4.8739,5.0182,5.0779,5.0298,5.0683,5.0798,5.0277,5.0374,5.0239,4.972,4.9375,4.9183,4.9183,4.951,4.9683,4.9683,5.0048,5.0048,4.9702,4.9702,4.9529,4.9183,4.8817,4.8452,0.0,4.7259,4.6701,4.6317,4.5797,4.5586,0.0,0.0,0.0,0.0,0.0,4.4997,4.5371,4.4809,4.4955,4.5297,4.4636,4.4479,4.4537,4.4525,4.4976,4.5501,4.5501,4.5889,4.6308,4.6308,4.6308,4.6308,4.6308,4.6308,4.6308,4.6308,4.6308,4.6308,4.6308,0.0,0.0,4.4961,4.4492,4.4199,4.4062,4.3848,4.3476,0.0,4.2558,4.2402,4.2402,4.1348,3.9941,3.8203,3.5859,0.0,0.0,0.0,2.7012,2.6269,2.623,0.0,0.0,0.0,2.6939,0.0,0.0,0.0,0.0,2.6583,2.6157,0.0,0.0,0.0,0.0,0.0,0.0,0.0,0.0,0.0,0.0,0.0,0.0,0.0,0.0,0.0,0.0,4.4679,4.6732,5.0713,5.0699,5.0719,5.1907,5.2818,5.3301,5.3205,5.3282,5.33,5.3217,5.2581,5.2158,5.2046,0.0,0.0,0.0,0.0,5.2049,5.2049,5.2818,5.2818,5.2049,5.1952,5.1529,5.0798,4.9933,4.9067,4.8202,4.7394,4.6547,4.574,4.5624,4.5605,4.5661,4.577,4.5811,4.5853,4.6046,4.6114,0.0,0.0,0.0,0.0,4.6099,4.6099,4.6117,4.6117,4.6216,4.6308,4.6308,4.6308,4.6308,4.6308,4.6308,4.6308,4.6308,4.6308,4.6308,4.6308,4.6308,4.6308,4.6308,4.6308,4.6308,4.6308,4.5664,4.5371,4.6055,4.4922,0.0,4.4648,4.3437,4.2519,4.2402,0.0,0.0,3.7734,3.6699,3.4355,3.0156,2.9629,2.8711,2.707,2.6992,2.6953,2.6855,2.6953,2.6973,2.6914,2.6132,2.6524,2.7962,2.7855,2.6992,0.0,0.0,0.0,0.0,0.0,0.0,0.0,0.0,0.0,0.0,0.0,0.0,0.0,0.0,0.0,4.4206,4.6916,4.9731,5.2525,5.3851,5.4117,5.3061,5.3719,5.397,5.3276,5.3836,5.397,5.3255,5.3701,5.3682,5.299,5.2797,0.0,5.2701,5.2876,5.2953,5.2953,5.3126,5.3126,5.2953,0.0,0.0,5.1645,5.0818,4.9971,4.9106,4.824,4.7394,4.6586,4.5893,4.5699,4.5849,4.5866,4.5951,4.6065,4.62,4.626,4.625,4.6172,4.6186,4.624,4.6135,4.6173,4.6264,4.6264,4.6282,0.0,4.6308,4.6308,4.6308,4.6308,4.6308,4.6308,4.6308,4.6308,4.6308,4.6308,4.6308,4.6308,4.6308,4.6308,4.6308,4.6308,4.6152,4.5879,4.5332,4.5566,4.5098,4.3144,4.3223,4.3183,4.248,4.2109,4.123,3.9531,3.7949,3.5527,3.1914,2.9726,2.8086,2.7031,2.6992,2.668,2.5977,2.6641,2.6992,2.6973,2.6807,2.686,2.7123,2.6368,2.6162,0.0,0.0,0.0,0.0,0.0,0.0,0.0,0.0,0.0,0.0,0.0,3.9766,0.0,0.0,4.5732,4.8241,5.0272,5.2272,5.4353,5.5256,5.5544,5.5143,5.5491,5.5588,5.5124,5.5085,5.4912,5.4468,5.4857,5.4895,5.4472,5.4453,5.4453,5.4453,5.4453,5.4453,5.4453,5.4453,5.4241,5.3837,5.2972,5.2318,5.1875,5.1068,4.999,4.8721,4.8298,4.7644,4.6874,4.6471,4.6143,4.5912,4.5984,4.6042,4.6113,4.6249,4.6249,4.6205,4.6202,4.623,4.6287,4.6222,4.6255,4.6308,4.6308,4.6308,4.6308,4.6308,4.6308,4.6308,4.6308,4.6308,4.6308,4.6308,4.6308,4.6308,4.6308,4.6308,4.6308,4.6308,4.6308,4.6308,4.6308,4.6308,4.6152,4.5723,4.6016,4.5664,4.3926,4.3691,4.3379,4.248,4.2031,4.1113,3.9394,3.6855,3.4258,3.1719,2.9902,2.8359,2.7051,2.7422,2.7031,2.5723,2.6973,2.7412,2.6958,2.7393,2.7567,2.7488,2.6544,2.6068,0.0,0.0,0.0,0.0,0.0,0.0,0.0,0.0,3.7871,4.007,4.1521,4.3329,4.6395,4.7575,4.9047,5.1947,5.3121,5.4122,5.5429,5.5816,5.6225,5.692,5.686,5.6763,5.6766,5.6109,5.5703,5.5703,5.5703,5.5703,5.5703,5.5703,5.5703,5.5703,5.5703,5.5703,5.5703,5.5703,5.5376,5.4722,5.3857,5.301,5.2125,5.1318,4.999,4.8336,4.8182,4.774,4.7124,4.7028,4.667,4.6153,4.6113,4.6124,4.6152,4.6269,4.6228,4.6151,4.6264,4.6308,4.6308,4.6308,4.6308,4.6308,4.6308,4.6308,4.6308,4.6308,4.6308,4.6308,4.6308,4.6308,4.6308,4.6308,4.6308,4.6308,4.6308,4.6308,4.6308,4.6308,4.6308,4.6308,4.6308,4.6308,4.6308,4.6308,4.6308,4.5918,4.4883,4.4121,4.3301,4.2285,4.1582,4.0488,3.875,3.5703,3.3262,3.1738,3.0664,2.9393,2.7793,2.8259,2.7792,2.6206,2.7721,2.8072,2.7121,2.7846,2.8051,2.7811,2.6873,2.616,3.3641,3.4052,3.4874,3.7163,3.685,3.7747,0.0,0.0,4.2765,4.6605,4.7022,4.7233,4.9001,5.0031,5.0932,5.1991,5.3507,5.4586,5.4664,5.5934,5.6898,5.6997,5.631,5.5865,5.5857,5.5761,5.5703,5.5703,5.5703,5.5703,5.5703,5.5703,5.5703,5.5703,5.5703,5.5703,5.5703,5.5703,5.5645,5.5549,5.4741,5.3895,5.3029,5.2164,5.0856,4.9202,4.8432,4.8048,4.7913,4.7276,4.7027,4.6999,4.636,4.6162,4.6289,4.6289,4.6287,4.6282,4.6289,4.6308,4.6308,4.6308,4.6308,4.6308,4.6308,4.6308,4.6308,4.6308,4.6308,4.6308,4.6308,4.6308,4.6308,4.6308,4.6308,4.6308,4.6308,4.6308,4.6308,4.6308,4.6308,4.6308,4.6308,4.6308,4.6308,4.6308,4.6308,4.5703,4.4062,4.3769,4.3086,4.1504,4.125,4.0488,3.875,3.6816,3.5293,3.4336,3.2793,3.1412,3.0326,2.9757,2.8935,2.7848,2.8846,2.8904,2.7979,2.8063,2.7682,2.6841,2.5947,2.59,3.6449,3.6876,3.7629,0.0,4.0483,4.2701,4.5911,4.634,4.6802,4.9418,5.012,5.0759,5.2423,5.2962,5.3395,0.0,5.5278,5.6008,5.5972,5.6104,5.6085,5.5602,5.477,5.4831,5.6321,5.6013,5.5703,5.5703,5.5703,5.5703,5.5703,5.5703,5.5703,5.5703,5.5703,5.5703,5.5703,5.5703,5.5453,5.4991,5.4664,5.378,5.2433,5.2087,5.0991,4.9375,4.9009,4.8567,4.8086,4.7836,4.7552,4.7126,4.6396,4.6186,4.6308,4.6308,4.6308,4.6308,4.6308,4.6308,4.6308,4.6308,4.6308,4.6308,4.6308,4.6308,4.6308,4.6308,4.6308,4.6308,4.6308,4.6308,4.6308,4.6308,4.6308,4.6308,4.6308,4.6308,4.6308,4.6308,4.6308,4.6308,4.6308,4.6308,4.6308,4.6308,4.6308,4.5664,4.3926,4.3691,4.3066,4.1387,4.0742,4.0156,3.9414,3.7754,3.6387,3.5508,3.3808,3.2197,3.0748,3.0372,2.9538,2.8132,2.9448,2.9454,2.8034,2.8502,2.828,2.7379,2.6496,2.6294,3.7661,3.8671,4.0235,4.0819,4.3871,4.6904,4.7605,4.875,5.0067,5.1349,5.1947,5.27,5.4166,5.4337,5.4624,5.5667,5.6494,5.6992,5.6989,5.6044,5.5061,5.423,5.3174,5.3236,5.507,5.5107,5.5105,5.5357,5.5376,5.5472,5.5684,5.5703,5.5703,5.5703,5.5703,5.5703,5.5703,5.5703,5.5415,5.4818,5.4607,5.3703,5.2241,5.1779,5.0914,4.976,4.976,4.926,4.8452,4.8317,4.7817,4.7114,4.6352,4.6148,4.6308,4.6308,4.6308,4.6308,4.6308,4.6308,4.6308,4.6308,4.6308,4.6308,4.6308,4.6308,4.6308,4.6308,4.6308,4.6308,4.6308,4.6308,4.6308,4.6308,4.6308,4.6308,4.6308,4.6308,4.6308,4.6308,4.6308,4.6308,4.6308,4.6308,4.6308,4.6308,4.6308,4.5664,4.3926,4.3301,4.2558,4.1328,4.0644,4.0156,3.9922,3.8712,3.7492,3.6403,3.4847,3.3186,3.1422,3.1095,3.0267,2.8757,2.9939,2.9821,2.8291,2.8895,2.8723,2.7885,2.7257,2.6968,3.6257,3.8631,4.2225,4.3926,4.6358,4.896,5.1357,5.2062,5.237,5.2991,5.2587,5.2337,5.3106,5.326,5.378,5.5437,5.6419,5.6994,5.6986,5.5564,5.4218,5.3351,5.177,5.0813,0.0,5.2335,5.362,5.4468,5.4547,5.4874,5.5665,5.5703,5.5703,5.5703,5.5703,5.5703,5.5703,5.5703,5.5684,5.5645,5.4876,5.403,5.3106,5.1471,5.0702,5.0644,5.0644,5.0164,4.9298,4.8452,4.7741,4.7104,4.6247,4.6075,4.6308,4.6308,4.6308,4.6308,4.6308,4.6308,4.6308,4.6308,4.6308,4.6308,4.6308,4.6308,4.6308,4.6308,4.6308,4.6308,4.6308,4.6308,4.6308,4.6308,4.6308,4.6308,4.6308,4.6308,4.6308,4.6308,4.6308,4.6308,4.6308,4.6308,4.6308,4.6308,4.6308,4.5664,4.3926,4.2285,4.1269,4.1211,4.1172,4.082,3.9961,3.9733,3.8922,3.7269,3.6193,3.4861,3.3102,3.2293,3.1376,3.0352,3.0448,3.0025,2.9063,2.9098,2.8698,2.7894,2.7876,2.7868,4.0969,4.3242,4.5645,4.745,4.983,5.2084,5.3491,5.4278,5.4413,5.3414,5.2549,5.1702,5.0835,5.1163,5.1914,5.3007,5.4852,5.6121,5.6124,5.5657,5.435,5.1838,5.1029,0.0,0.0,0.0,0.0,5.2723,5.3317,5.4007,5.4855,5.5415,5.5703,5.5703,5.5703,5.5703,5.5703,5.5703,5.5415,5.4897,5.3453,5.2626,5.2299,5.1202,5.0702,5.0702,5.0702,5.0202,4.9336,4.8471,4.7741,4.7104,4.6236,4.6055,4.6308,4.6308,4.6308,4.6308,4.6308,4.6308,4.6308,4.6308,4.6308,4.6308,4.6308,4.6308,4.6308,4.6308,4.6308,4.6308,4.6308,4.6308,4.6308,4.6308,4.6308,4.6308,4.6308,4.6308,4.6308,4.6308,4.6308,4.6308,4.6308,4.6308,4.6308,4.6308,4.5801,4.5019,4.3848,4.2695,4.1797,4.1269,4.1191,4.1074,4.0781,4.0112,3.92,3.8064,3.6504,3.5114,3.3943,3.2538,3.1614,3.1275,3.0717,3.0294,2.9967,2.9375,2.9252,2.9528,2.8411,2.8199,4.4913,4.7375,4.9567,5.1337,5.3473,5.5224,5.5472,5.5684,5.5145,5.2779,5.1375,5.0029,4.8356,4.826,4.8971,5.0718,5.2387,5.3865,5.5105,5.4501,5.3212,5.1337,5.0315,4.9138,0.0,0.0,0.0,5.1395,5.253,5.3586,5.4449,5.5261,5.5703,5.5703,5.5703,5.5703,5.5703,5.5703,5.5126,5.4031,5.2895,5.2049,5.1452,5.0606,5.024,5.0221,4.9913,4.9279,4.8471,4.7932,4.7336,4.6681,4.617,4.6118,4.6308,4.6308,4.6308,4.6308,4.6308,4.6308,4.6308,4.6308,4.6308,4.6308,4.6308,4.6308,4.6308,4.6308,4.6308,4.6308,4.6308,4.6308,4.6308,4.6308,4.6308,4.6308,4.6308,4.6308,4.6308,4.6308,4.6308,4.6308,4.6308,4.6308,4.6308,4.6308,4.582,4.5039,4.3848,4.3203,4.2441,4.1328,4.1465,4.1504,4.1211,4.0521,3.9741,3.8878,3.7348,3.5949,3.4776,3.3045,3.1987,3.1718,3.0852,3.0398,3.0398,2.9848,2.9848,3.0359,2.9286,2.9075,4.7952,5.0856,5.3799,5.5415,5.7049,5.8011,5.7126,5.6222,5.4607,5.1202,4.9125,4.7356,0.0,0.0,4.5341,4.8741,4.9431,5.0713,5.4105,5.2504,5.1193,0.0,0.0,0.0,0.0,0.0,0.0,5.0657,0.0,5.3551,5.4451,5.528,5.5703,5.5703,5.5665,5.5645,5.5645,5.5549,5.4703,5.3145,5.3087,5.2222,5.0606,4.9817,4.9413,4.9298,4.8509,4.7682,4.6913,4.6971,4.6565,4.5907,4.6063,4.6182,4.6308,4.6308,4.6308,4.6308,4.6308,4.6308,4.6308,4.6308,4.6308,4.6308,4.6308,4.6308,4.6308,4.6308,4.6308,4.6308,4.6308,4.6308,4.6308,4.6308,4.6308,4.6308,4.6308,4.6308,4.6308,4.6308,4.6308,4.6308,4.6308,4.6308,4.6308,4.6308,4.6308,4.5664,4.3926,4.3691,4.3066,4.1387,4.1875,4.2031,4.1269,4.0955,4.0461,3.9642,3.8589,3.7276,3.5641,3.3891,3.2602,3.1833,3.0929,3.0456,3.0456,3.0417,3.0398,3.0398,3.0398,3.0398,5.2068,5.4414,5.628,5.7376,5.7473,5.7088,5.6222,5.4895,5.2702,4.8682,4.649,4.4393,0.0,0.0,0.0,4.721,4.9787,0.0,5.5151,5.4978,0.0,5.2992,0.0,5.1395,5.0163,5.0702,0.0,0.0,5.2223,5.3108,5.4432,5.5376,5.5799,5.5703,5.5105,5.4816,5.4816,5.3528,5.2642,5.2219,5.1605,5.076,4.974,5.0164,4.9663,4.8471,4.8875,4.824,4.6913,4.6971,4.6572,4.5914,4.6063,4.6182,4.6308,4.6308,4.6308,4.6308,4.6308,4.6308,4.6308,4.6308,4.6308,4.6308,4.6308,4.6308,4.6308,4.6308,4.6308,4.6308,4.6308,4.6308,4.6308,4.6308,4.6308,4.6308,4.6308,4.6308,4.6308,4.6308,4.6308,4.6308,4.6308,4.6308,4.6308,4.6308,4.6308,4.5664,4.3926,4.3691,4.3066,4.1387,4.1387,4.1426,4.1211,4.0955,4.0461,3.9642,3.8589,3.7526,3.6449,3.4776,3.3776,3.3564,3.2122,3.1371,3.1371,3.0717,3.0398,3.0398,3.0398,3.0398,5.5972,5.7934,5.9358,5.9838,5.8761,5.7049,5.5068,5.301,5.0125,4.5124,4.3028,0.0,3.865,0.0,0.0,0.0,0.0,0.0,5.3779,5.4175,5.4047,0.0,5.3435,0.0,5.1971,5.2355,5.268,0.0,5.3174,5.3799,5.4643,5.5105,5.5338,5.5261,5.4391,5.3932,5.3935,5.2973,5.2279,5.1893,5.1432,5.0587,4.9394,4.951,4.8856,4.7625,0.0,4.7298,4.6471,4.6567,4.6352,4.6002,4.6133,4.6234,4.6308,4.6308,4.6308,4.6308,4.6308,4.6308,4.6308,4.6308,4.6308,4.6308,4.6308,4.6308,4.6308,4.6308,4.6308,4.6308,4.6308,4.6308,4.6308,4.6308,4.6308,4.6308,4.6308,4.6308,4.6308,4.6308,4.6308,4.6308,4.6308,4.6308,4.6308,4.6308,4.6308,4.5801,4.4453,4.4277,4.3613,4.1914,4.1738,4.1582,4.123,4.0955,4.0616,4.0158,3.9142,3.818,3.7315,3.5661,3.4584,3.4199,3.2891,3.2237,3.2218,3.1391,3.0968,3.096,3.0583,3.0602,5.9396,6.0954,6.2089,6.2089,6.0012,5.7088,5.378,5.0798,4.7105,4.1335,0.0,3.83,3.6656,3.7252,3.9201,4.2868,0.0,4.7362,5.1823,5.2252,5.2754,5.4449,5.4007,5.3601,5.3716,5.364,5.3649,5.378,5.4388,5.4727,5.4689,5.4611,5.4432,5.4182,5.343,5.2913,5.2685,5.2705,5.2358,5.1741,5.1625,5.076,4.9202,4.8567,4.7759,4.6817,0.0,0.0,4.5918,4.6042,4.6103,4.6111,4.624,4.6308,4.6308,4.6308,4.6308,4.6308,4.6308,4.6308,4.6308,4.6308,4.6308,4.6308,4.6308,4.6308,4.6308,4.6308,4.6308,4.6308,4.6308,4.6306,4.6295,4.6276,4.6276,4.6261,4.6269,4.6289,4.6308,4.6308,4.6308,4.6308,4.6308,4.6308,4.6308,4.6308,4.6308,4.6015,4.5243,4.5057,4.4336,4.2598,4.2402,4.2069,4.124,4.0933,4.0801,4.0804,3.985,3.895,3.82,3.6546,3.5295,3.4545,3.3564,3.3064,3.3064,3.2256,3.1864,3.1838,3.1076,3.1133,6.1166,6.1858,6.2089,6.2089,5.9088,5.5434,5.2741,4.8529,0.0,0.0,3.7209,3.5849,3.4831,3.5911,3.8575,4.3493,4.5138,4.7776,5.3436,5.3609,5.3716,0.0,0.0,0.0,0.0,0.0,0.0,0.0,0.0,0.0,5.3663,5.3746,5.3051,5.1433,5.1876,5.1472,5.0067,5.0048,5.0356,5.0894,5.0183,4.9298,4.8336,4.8913,4.8009,4.6046,0.0,0.0,4.5919,4.604,4.6103,4.6111,4.624,4.6308,4.6308,4.6308,4.6308,4.6308,4.6308,4.6308,4.6308,4.6308,4.6308,4.6308,4.6308,4.6308,4.6308,4.6308,4.6308,4.6308,4.6308,4.6305,4.6269,4.6172,4.6134,4.6135,4.6122,4.6211,4.6308,4.6308,4.6308,4.6308,4.6308,4.6308,4.6308,4.6308,4.6308,4.6202,4.5932,4.5384,4.4336,4.2598,4.2402,4.2022,4.1117,4.0888,4.0781,4.0712,3.9831,3.9219,3.9084,3.7411,3.643,3.6276,3.4757,3.3968,3.3968,3.3109,3.2686,3.2685,3.2536,3.2548,6.2377,6.2724,6.2627,6.2185,5.855,5.3933,4.9606,0.0,0.0,0.0,3.4416,3.3884,3.3051,3.4674,0.0,4.066,4.2306,4.5101,5.07,5.0987,0.0,5.4816,5.5162,0.0,0.0,0.0,0.0,0.0,0.0,0.0,5.2952,5.2047,5.0856,4.9375,4.972,4.9546,4.872,4.872,4.8932,4.9336,4.8913,4.8298,4.749,4.7913,4.7278,4.5871,0.0,0.0,4.6108,4.6169,4.6208,4.6212,4.6278,4.6308,4.6308,4.6308,4.6308,4.6308,4.6308,4.6308,4.6308,4.6308,4.6308,4.6308,4.6308,4.6249,4.6201,4.6201,4.6144,4.6104,4.6182,4.6132,4.6098,4.6097,4.6046,4.6012,4.6001,4.6045,4.6084,4.6084,4.6143,4.6191,4.6191,4.625,4.6308,4.6308,4.6308,4.6249,4.6124,4.5433,4.4603,4.3695,4.2787,4.2058,4.1602,4.1071,4.0726,4.0712,4.0215,3.9738,3.9315,3.8488,3.7623,3.6719,3.5911,3.5295,3.4872,3.3993,3.359,3.357,3.3096,3.3147,6.2781,6.3051,6.2858,6.2031,5.7838,5.2472,4.6874,4.2527,0.0,3.2795,3.2064,3.2237,3.18,0.0,3.5502,0.0,3.9013,4.1736,4.7141,4.7868,4.9409,0.0,5.4201,0.0,0.0,0.0,0.0,0.0,0.0,0.0,0.0,5.0163,4.8837,4.7876,4.8007,4.8024,4.7831,4.7853,4.7931,4.8103,4.7932,4.751,4.6913,4.6913,4.6528,4.589,0.0,0.0,0.0,4.6308,4.6308,4.6308,4.6308,4.6308,4.6308,4.6308,4.6308,4.6308,4.6308,4.6308,4.6308,4.6308,4.6308,4.6308,4.6308,4.6216,4.6103,4.6103,4.5993,4.5919,4.6035,4.5979,4.591,4.6012,4.5969,4.588,4.5883,4.5899,4.5899,4.5899,4.5988,4.6069,4.6063,4.617,4.6269,4.6269,4.6289,4.6249,4.6124,4.5382,4.481,4.4674,4.3287,4.2218,4.182,4.1293,4.0889,4.0677,4.0562,4.0219,3.9565,3.9392,3.8661,3.7276,3.6892,3.6392,3.5757,3.4891,3.4474,3.4466,3.3782,3.382,6.1762,6.2204,6.1993,6.1127,5.6492,5.0991,4.6586,0.0,3.6026,3.2449,3.1179,3.0948,3.1667,3.2038,0.0,0.0,0.0,3.9219,4.5131,4.6562,4.8289,5.1758,0.0,0.0,0.0,0.0,0.0,0.0,0.0,0.0,0.0,4.8467,4.7852,4.7045,4.7735,4.7754,4.7024,4.7006,4.7372,4.8103,4.7355,4.6971,4.6913,4.6913,4.6528,4.589,0.0,0.0,0.0,4.6308,4.6308,4.6308,4.6308,4.6308,4.6308,4.6308,4.6308,4.6308,4.6308,4.6308,4.6308,4.6308,4.6308,4.6308,4.6308,4.6216,4.6103,4.6103,4.6003,4.5885,4.5921,4.5899,4.589,4.5838,4.5815,4.5796,4.5808,4.5847,4.5885,4.5885,4.5899,4.5916,4.5918,4.6027,4.6113,4.6113,4.6211,4.6249,4.6124,4.5274,4.4672,4.4527,4.3769,4.2601,4.0973,4.1482,4.1489,4.0566,4.0508,4.0469,4.0392,3.9681,3.9219,3.9065,3.7507,3.6661,3.6603,3.5776,3.5378,3.5378,3.5301,3.5301,5.98,6.13,6.1647,5.9762,5.4818,4.9144,4.4393,0.0,3.3603,3.0737,2.991,2.9679,2.954,3.0395,3.1564,3.2926,3.3102,3.4795,3.9777,4.0671,4.2694,4.7759,0.0,0.0,0.0,0.0,0.0,0.0,0.0,0.0,0.0,4.6698,4.6448,4.6123,4.6429,4.6448,4.6123,4.6123,4.6277,4.6584,4.6259,4.6124,4.6124,4.6124,4.6028,4.589,0.0,0.0,0.0,4.6308,4.6308,4.6308,4.6308,4.6308,4.6308,4.6308,4.6245,4.6171,4.6171,4.617,4.6172,4.6172,4.623,4.6308,4.6308,4.6156,4.5984,4.5979,4.5853,4.5738,4.5815,4.5851,4.581,4.5714,4.568,4.568,4.568,4.5699,4.5719,4.5719,4.5776,4.5847,4.5844,4.5917,4.5978,4.5981,4.603,4.6041,4.5938,4.4677,4.3753,4.3676,4.2931,4.2357,4.2162,4.1489,4.1143,4.1277,4.0777,4.0489,4.0489,4.0181,3.9777,3.9296,3.8623,3.8007,3.7488,3.6642,3.6219,3.6219,3.5738,3.5493,5.6415,5.8704,5.9646,5.7357,5.2491,4.7009,0.0,0.0,3.1859,2.9302,2.8841,2.8733,2.8153,2.9082,2.9913,2.992,3.0327,3.1845,3.5348,3.6652,3.9031,0.0,0.0,0.0,0.0,0.0,0.0,0.0,0.0,0.0,0.0,0.0,4.5336,4.5586,4.5586,4.5586,4.5586,4.5586,4.5586,4.5586,4.5586,4.5586,4.5586,4.5586,4.5719,0.0,0.0,0.0,0.0,4.6308,4.6308,4.6308,4.6308,4.6308,4.6308,4.6308,4.622,4.6103,4.6103,4.6092,4.6104,4.6091,4.6191,4.6308,4.63,4.6103,4.5911,4.5893,4.5757,4.5605,4.5719,4.5738,4.5719,4.5605,4.5586,4.5586,4.5586,4.5586,4.5586,4.5586,4.568,4.5738,4.5738,4.5815,4.5877,4.5871,4.5673,4.5531,4.5481,4.4138,4.3099,4.2813,4.2181,4.195,4.2297,4.1431,4.1046,4.1393,4.0835,4.0489,4.0489,4.0489,4.0219,3.9662,3.9411,3.8988,3.8373,3.7507,3.6949,3.6699,3.6122,3.5738,5.1279,5.3837,5.5357,5.3664,4.9413,4.4528,0.0,3.5441,3.1098,2.8549,2.8123,2.8214,2.8195,2.8271,2.832,2.832,2.9668,3.1262,3.2916,3.6106,0.0,0.0,0.0,0.0,0.0,0.0,0.0,0.0,0.0,0.0,0.0,0.0,4.4722,4.5566,4.5586,4.5586,4.5586,4.5586,4.5586,4.5586,4.5586,4.5586,4.5586,4.5586,0.0,0.0,0.0,0.0,0.0,4.6308,4.6308,4.6308,4.6308,4.6308,4.6308,4.6308,4.622,4.6103,4.6103,4.6102,4.6113,4.6101,4.6191,4.6306,4.63,4.6122,4.5911,4.5893,4.5757,4.5586,4.5586,4.5586,4.5586,4.5586,4.5586,4.5586,4.5586,4.5586,4.5586,4.5586,4.5586,4.5586,4.5586,4.5719,4.5796,4.5796,4.5178,4.4713,4.4713,4.383,4.2887,4.2094,4.187,4.145,4.0585,4.1296,4.1431,4.0566,4.0508,4.0489,4.0489,4.0489,4.0489,4.0489,3.97,3.9296,3.9277,3.8411,3.7546,3.6699,3.6699,3.6257,4.3585,4.597,4.7355,4.5086,4.161,3.8097,3.5512,3.152,2.8126,2.7234,2.7187,2.7121,2.6465,2.7415,2.8301,2.8301,2.9238,3.0501,0.0,0.0,0.0,0.0,0.0,0.0,0.0,0.0,0.0,0.0,0.0,0.0,0.0,0.0,4.3861,4.4703,4.4186,4.388,4.388,4.4435,4.4722,4.4722,4.5316,4.5586,4.5586,4.5586,0.0,0.0,0.0,0.0,0.0,4.6308,4.6308,4.6308,4.6308,4.6308,4.6287,4.6201,4.6077,4.5859,4.5237,4.5007,4.4916,4.4307,4.4664,4.5349,4.5338,4.5607,4.5872,4.5738,4.5643,4.5586,4.5586,4.5586,4.5586,4.5586,4.5586,4.5586,4.5586,4.5586,4.5586,4.5586,4.5586,4.5513,4.5302,4.5301,4.5258,4.5023,4.4277,4.383,4.4076,4.2814,4.1893,4.1873,4.1277,4.1046,4.1354,4.1104,4.1046,4.1373,4.0835,4.0758,4.1354,4.0816,4.0777,4.1373,4.0546,4.0123,4.0104,3.9277,3.8123,3.6699,3.6142,3.5738,3.7329,3.9969,4.145,3.9546,3.6805,0.0,3.2385,2.931,2.6685,2.6303,2.6342,2.6274,2.568,2.6532,2.7324,2.7324,0.0,0.0,0.0,0.0,0.0,0.0,0.0,0.0,0.0,0.0,0.0,0.0,0.0,0.0,0.0,0.0,4.1901,4.2398,4.2857,4.3088,4.3088,4.3605,4.3855,4.3857,4.4412,4.4662,4.4662,0.0,0.0,0.0,0.0,0.0,0.0,4.6308,4.6308,4.6269,4.5937,4.5787,4.5715,4.5302,4.5042,4.48,4.4214,4.4023,4.3904,4.3394,4.3945,4.4875,4.5172,4.5549,4.5861,4.5651,4.5586,4.5586,4.5586,4.5586,4.5586,4.5586,4.5586,4.5586,4.5586,4.5586,4.5586,4.5586,4.5495,4.5342,4.5137,4.5007,4.4849,4.4631,4.3605,4.2918,4.3126,4.1993,4.1147,4.1165,4.095,4.0946,4.1277,4.0796,4.1008,4.222,4.1162,4.0893,4.1758,4.1277,4.1085,4.1316,4.1104,4.0835,4.0489,3.9681,3.8738,3.7642,3.6488,3.5949,0.0,3.5347,3.6988,3.6122,3.4141,3.1994,3.0477,2.836,0.0,2.5746,2.5649,2.5703,2.5698,2.5703,2.5723,0.0,0.0,0.0,0.0,0.0,0.0,0.0,0.0,0.0,0.0,0.0,0.0,0.0,0.0,0.0,0.0,0.0,0.0,3.9223,4.1497,4.2761,4.2838,4.2896,4.2941,4.3008,4.3085,4.3104,4.3104,0.0,0.0,0.0,0.0,0.0,0.0,4.6113,4.6113,4.6035,4.5213,4.4864,4.4716,4.3875,4.34,4.3195,4.3118,4.3099,4.3099,4.3099,4.3795,4.4734,4.5488,4.5796,4.5853,4.5643,4.5586,4.5586,4.5586,4.5586,4.5586,4.5586,4.5586,4.5586,4.5586,4.5586,4.5568,4.5568,4.5283,4.5052,4.503,4.4719,4.4459,4.4452,4.2994,4.1939,4.1964,4.1254,4.0602,4.0118,4.0749,4.1036,4.0592,4.0527,4.1181,4.2816,4.1393,4.0893,4.1758,4.1739,4.1354,4.0604,4.1335,4.1316,4.0489,3.9681,3.9296,3.9258,3.7507,3.6699,2.7226,0.0,2.9214,2.8352,2.7717,2.7198,0.0,2.6307,2.5874,2.558,2.5626,2.5689,2.5625,2.5664,2.5918,0.0,0.0,0.0,0.0,0.0,0.0,0.0,0.0,0.0,0.0,0.0,0.0,0.0,0.0,0.0,0.0,0.0,0.0,3.8301,3.8893,3.9514,4.02,4.0793,4.1443,4.2098,4.2768,4.3099,4.3104,0.0,0.0,0.0,0.0,0.0,0.0,4.4316,4.4316,4.4295,4.4033,4.3918,4.3856,4.3458,4.325,4.3099,4.239,4.2124,4.2159,4.2252,4.2873,4.3713,4.4559,4.5276,4.5796,4.5624,4.5586,4.5586,4.5586,4.5586,4.5586,4.5586,4.5586,4.5586,4.5586,4.54,4.5222,4.5222,4.4943,4.4631,4.4318,4.368,4.3144,4.2865,4.1465,4.0481,4.0709,4.0016,3.9564,3.9687,4.0114,4.0578,4.1074,4.0737,4.0662,4.1085,4.0719,4.0893,4.1758,4.1162,4.1027,4.1489,4.1046,4.07,4.0489,3.9681,3.9296,3.9258,3.7507,3.6699,2.5508,2.5851,2.6099,2.5623,2.5534,2.5542,2.5553,2.5594,2.5634,2.559,2.5659,2.5684,2.5644,2.5684,0.0,0.0,0.0,0.0,0.0,0.0,0.0,0.0,0.0,0.0,0.0,0.0,0.0,0.0,0.0,0.0,0.0,0.0,0.0,0.0,3.6059,3.7041,3.8695,3.9146,3.9781,4.0658,4.1135,4.1543,4.1912,0.0,0.0,0.0,0.0,0.0,4.3691,4.3691,4.3691,4.365,4.3203,4.2973,4.2838,4.2271,4.2021,4.1889,4.1373,4.12,4.1277,4.1755,4.2197,4.2797,4.4045,4.4737,4.5163,4.5509,4.5586,4.5586,4.5586,4.5586,4.5586,4.5586,4.5586,4.5586,4.5586,4.5036,4.466,4.502,4.4083,4.3381,4.3916,4.2897,4.2081,4.2264,4.124,4.0349,4.0141,3.9756,3.9584,3.9895,3.9894,4.0245,4.1225,4.1163,4.1412,4.2181,4.1893,4.2066,4.2912,4.2143,4.172,4.1797,4.1335,4.0893,4.0489,4.0046,3.9835,3.9796,3.8084,3.7507,2.5496,2.5497,2.5495,2.5508,2.552,2.5552,2.5596,2.5614,2.5635,2.5698,2.5681,2.5677,2.5683,2.5684,0.0,0.0,0.0,0.0,0.0,0.0,0.0,0.0,0.0,0.0,0.0,0.0,0.0,0.0,0.0,0.0,0.0,0.0,0.0,0.0,3.3621,3.5045,3.7222,3.7608,3.8232,3.9108,3.9227,3.9588,4.0123,4.0258,0.0,0.0,0.0,0.0,4.293,4.3066,4.3125,4.3044,4.2343,4.2001,4.1805,4.0966,4.06,4.0489,4.0489,4.0489,4.0623,4.1354,4.17,4.2066,4.3489,4.4008,4.4259,4.5009,4.5393,4.5586,4.5586,4.5586,4.5586,4.5586,4.549,4.5393,4.5393,4.4461,4.3836,4.4497,4.2949,4.1965,4.333,4.2184,4.135,4.2011,4.1552,4.0818,3.9992,3.99,3.9933,4.0038,3.9745,3.9928,4.0952,4.1589,4.2552,4.4028,4.347,4.3355,4.3893,4.3393,4.2624,4.1623,4.1739,4.1373,4.0489,4.0489,4.0489,4.045,3.8911,3.8569,2.5484,2.5498,2.5505,2.5565,2.5623,2.5661,2.5676,2.5675,2.5697,2.5703,2.5643,2.5622,2.5621,2.5625,2.5898,0.0,0.0,0.0,0.0,0.0,0.0,0.0,0.0,0.0,0.0,0.0,0.0,0.0,0.0,0.0,0.0,0.0,0.0,0.0,0.0,3.3308,3.3761,3.5839,3.7343,3.8218,3.895,3.8992,3.8411,3.9204,3.9323,0.0,0.0,0.0,3.9434,4.0176,4.0488,4.0526,4.0883,4.1025,4.0947,4.0658,4.0508,4.0489,4.0489,4.0489,4.0508,4.0662,4.12,4.1854,4.2124,4.2701,4.3316,4.3451,4.4509,4.5586,4.5586,4.5586,4.5586,4.5586,4.5028,4.4489,4.4489,4.3382,4.2408,4.254,4.181,4.1264,4.1503,4.1291,4.1148,4.1277,4.1185,4.0818,3.9992,3.99,3.9656,3.9019,3.9073,3.9371,3.9815,4.1468,4.2718,4.3242,4.3162,4.2816,4.222,4.2777,4.2335,4.0719,4.1431,4.1373,4.0489,4.0489,4.0489,4.0469,3.9527,3.9029,2.539,2.5428,2.5446,2.5473,2.5576,2.5644,2.5644,2.5664,2.5699,2.5697,2.5654,0.0,0.0,0.0,0.0,0.0,0.0,0.0,0.0,0.0,0.0,0.0,0.0,0.0,0.0,0.0,0.0,0.0,0.0,0.0,0.0,0.0,0.0,0.0,0.0,0.0,3.17,3.3262,3.496,3.6766,3.7599,3.805,3.8189,3.8608,3.8631,0.0,0.0,3.8481,3.8672,3.9531,3.9855,3.9855,4.054,4.0787,4.0735,4.0562,4.0489,4.0489,4.0489,4.0489,4.0489,4.0489,4.0758,4.1181,4.1662,4.2085,4.2508,4.297,4.397,4.4893,4.4893,4.524,4.5586,4.5586,4.4932,4.4297,4.4297,4.2808,4.1585,4.2014,4.1202,4.0726,4.1607,4.1405,4.1258,4.168,4.1754,4.146,4.0653,4.0928,4.1056,4.0689,4.0544,4.0514,4.0675,4.2261,4.3598,4.4395,4.4451,4.4066,4.3181,4.3989,4.3431,4.1258,4.2066,4.1835,4.0489,4.0489,4.0489,4.0469,3.9662,3.9377,2.5303,2.5341,2.539,2.539,2.5473,2.5625,2.5831,2.5936,2.6044,0.0,0.0,0.0,0.0,0.0,0.0,0.0,0.0,0.0,0.0,0.0,0.0,0.0,0.0,0.0,0.0,0.0,0.0,0.0,0.0,0.0,0.0,0.0,0.0,0.0,0.0,0.0,3.0029,3.102,3.2733,3.5128,3.5921,3.659,3.712,3.7546,3.7651,3.7521,3.7726,3.7895,3.8066,3.893,3.9229,3.9191,3.9924,4.0138,4.0081,4.0181,4.0219,4.0219,4.0219,4.0219,4.0181,3.9969,3.9912,4.0085,4.095,4.1219,4.1393,4.2258,4.3085,4.3797,4.4201,4.4797,4.5336,4.5547,4.4624,4.3778,4.397,4.2217,4.0774,4.1391,4.0505,4.001,4.124,4.1258,4.1313,4.1937,4.2341,4.2286,4.1497,4.1919,4.2231,4.2047,4.1711,4.1619,4.1969,4.2915,4.4094,4.5509,4.522,4.472,4.4047,4.4836,4.4182,4.1854,4.2662,4.2239,4.0489,4.0489,4.0489,4.0469,3.9807,3.9675,2.5303,2.5303,2.5303,2.5303,2.5418,2.5721,2.6533,2.6769,0.0,2.7857,0.0,0.0,0.0,0.0,0.0,0.0,0.0,0.0,0.0,0.0,0.0,0.0,0.0,0.0,0.0,0.0,0.0,0.0,0.0,0.0,0.0,0.0,0.0,0.0,0.0,0.0,2.8367,2.9905,3.1587,3.3382,3.4199,3.4225,3.3612,3.531,3.5618,3.4911,3.5792,3.617,3.6249,3.7123,3.745,3.7453,3.8185,3.8363,3.8296,3.9084,3.9392,3.9392,3.9392,3.9392,3.9238,3.843,3.818,3.8334,3.9219,3.9469,3.9642,4.045,4.1316,4.2335,4.3893,4.4355,4.4605,4.5413,4.3739,4.22,4.3008,4.1359,3.9712,3.9769,3.923,3.8817,3.8946,4.0157,4.113,4.1185,4.2451,4.3112,4.2323,4.2268,4.2011,4.1277,4.1181,4.1711,4.305,4.2803,4.3464,4.547,4.4143,4.3258,4.3181,4.3951,4.3585,4.1835,4.2662,4.2239,4.0489,4.0489,4.0489,4.0489,4.0193,3.9905,2.5303,2.5322,2.5341,2.5303,2.5341,2.5621,2.6524,2.6784,2.6928,2.7259,2.7452,0.0,0.0,0.0,0.0,0.0,0.0,0.0,0.0,0.0,0.0,0.0,0.0,0.0,0.0,0.0,0.0,0.0,0.0,0.0,0.0,0.0,0.0,0.0,0.0,0.0,0.0,2.8554,2.9736,3.0984,3.2823,3.3571,3.3356,3.4028,3.4456,3.4681,3.5037,3.5491,3.6006,3.687,3.7151,3.7084,3.7834,3.8065,3.8046,3.8373,3.8488,3.8488,3.8488,3.8488,3.843,3.8104,3.8223,3.8567,3.8892,3.9204,3.9545,3.9849,4.0573,4.1473,4.248,4.3143,4.3643,4.397,4.2733,4.1589,4.1915,4.0552,3.9289,3.9289,3.9388,3.9441,3.9441,4.0377,4.1111,4.1111,4.1625,4.1901,4.1589,4.1992,4.2176,4.1882,4.1864,4.2458,4.3962,4.2986,4.2974,4.4684,4.4201,4.4085,4.4624,4.4432,4.3778,4.2624,4.2412,4.17,4.0489,4.0489,4.0489,4.0489,4.0213,3.9922,2.4617,2.4764,2.4966,2.4849,2.5222,2.5833,2.6668,2.7017,2.7341,2.7869,2.799,2.764,2.641,0.0,0.0,0.0,0.0,0.0,0.0,0.0,0.0,0.0,0.0,0.0,0.0,0.0,0.0,0.0,0.0,0.0,0.0,0.0,0.0,0.0,0.0,0.0,0.0,2.7364,2.8242,2.918,3.1172,3.2305,3.2617,3.2848,3.3445,3.4298,3.4533,3.5116,3.593,3.6496,3.6636,3.6531,3.7026,3.7219,3.7238,3.7507,3.7584,3.7584,3.7584,3.7521,3.7417,3.7168,3.7273,3.7585,3.8098,3.8525,3.892,3.9448,4.0037,4.0583,4.0998,4.1816,4.2561,4.2737,4.182,4.0958,4.1123,4.0094,3.9099,3.9099,3.9327,3.9515,3.9515,4.0194,4.0726,4.0726,4.1148,4.1497,4.1497,4.2176,4.2671,4.2671,4.2671,4.3135,4.4308,4.322,4.3061,4.4461,4.4397,4.4566,4.5163,4.4374,4.3778,4.347,4.2374,4.1508,4.0912,4.0623,4.0457,4.0372,4.0081,3.9775,2.3121,2.3481,2.4033,2.3839,0.0,0.0,2.7062,2.7597,2.8464,3.0129,2.9132,2.743,2.564,0.0,0.0,0.0,0.0,0.0,0.0,0.0,0.0,0.0,0.0,0.0,0.0,0.0,0.0,0.0,0.0,0.0,0.0,0.0,0.0,0.0,0.0,0.0,0.0,2.6426,2.7324,2.8203,2.9141,3.0059,3.0918,3.1654,3.2493,3.3427,3.4153,3.501,3.5853,3.5738,3.5641,3.5565,3.5507,3.5488,3.5584,3.6372,3.6661,3.6647,3.6666,3.6489,3.6134,3.5353,3.4926,3.5015,3.6599,3.709,3.7448,3.9109,3.9599,3.9599,3.958,4.0428,4.1412,4.1964,4.1076,4.0231,4.0768,3.9939,3.9099,3.9099,3.8884,3.8707,3.8707,3.935,3.9882,3.9882,4.124,4.2286,4.2304,4.3002,4.3479,4.3497,4.3497,4.3646,4.3986,4.3567,4.3818,4.5017,4.4595,4.4316,4.4316,4.3528,4.347,4.4259,4.2643,4.1797,4.1797,4.0912,4.0356,4.0101,3.9775,3.9432,2.3076,2.3075,0.0,2.389,0.0,0.0,0.0,2.754,0.0,0.0,2.7294,2.612,2.6197,0.0,0.0,0.0,0.0,0.0,0.0,0.0,0.0,0.0,0.0,0.0,0.0,0.0,0.0,0.0,0.0,0.0,0.0,0.0,0.0,0.0,0.0,0.0,0.0,0.0,2.6967,2.7226,2.873,2.9922,3.0761,3.0986,3.1557,3.2367,3.2582,3.3139,3.3923,3.3776,3.3718,3.3699,3.368,3.368,3.3699,3.3949,3.3939,3.3899,3.4458,3.448,3.432,3.4699,3.5028,3.546,3.6502,3.708,3.7488,3.797,3.8526,3.884,3.8266,3.8936,3.9852,4.0236,3.9863,3.9439,3.9607,3.9212,3.8833,3.8833,3.8762,3.8707,3.8707,3.8909,3.9056,3.9056,3.9937,4.102,4.2158,4.2506,4.2873,4.3424,4.3497,4.3646,4.3986,4.3863,4.4165,4.5033,4.4953,4.4959,4.5201,4.3855,4.3201,4.3451,4.1758,4.0893,4.0873,4.0623,4.0457,4.0372,4.0081,3.9775,2.1564,2.1875,0.0,2.3186,2.4426,2.5735,2.6688,0.0,0.0,0.0,0.0,0.0,0.0,0.0,0.0,0.0,0.0,0.0,0.0,0.0,0.0,0.0,0.0,0.0,0.0,0.0,0.0,0.0,0.0,0.0,0.0,0.0,0.0,0.0,0.0,0.0,0.0,0.0,0.0,2.6775,2.7854,2.8805,2.9645,3.0327,3.1095,3.1919,3.2251,3.2628,3.3,3.2929,3.2891,3.2891,3.2891,3.2891,3.2891,3.2891,3.2766,3.2676,3.3157,3.3296,3.3327,3.3832,3.44,3.4969,3.5777,3.6251,3.6578,3.6927,3.7588,3.8028,3.7221,3.7755,3.8609,3.9115,3.9171,3.9072,3.8943,3.8815,3.8707,3.8707,3.8773,3.8815,3.8719,3.8902,3.897,3.8719,3.9662,4.0836,4.2139,4.258,4.2947,4.3442,4.3497,4.3646,4.3986,4.4146,4.4482,4.5074,4.5222,4.54,4.5586,4.3989,4.3104,4.3104,4.1393,4.0662,4.1027,4.0562,4.0285,4.0138,3.9842,3.9548,1.9415,2.0331,2.1607,2.2129,2.4238,0.0,2.6064,2.7194,2.8029,2.7395,0.0,0.0,0.0,0.0,0.0,0.0,0.0,0.0,0.0,0.0,0.0,0.0,0.0,0.0,0.0,0.0,0.0,0.0,0.0,0.0,0.0,0.0,0.0,0.0,0.0,0.0,0.0,0.0,0.0,0.0,2.6708,2.7159,2.7938,2.9617,3.0902,3.1811,3.2531,3.2788,3.2679,3.2679,3.2679,3.2679,3.2679,3.2679,3.2679,3.2679,3.2535,3.2374,3.2435,3.26,3.2803,3.2929,3.329,3.3862,3.4715,3.499,3.5155,3.5954,3.6762,3.7184,3.6376,3.678,3.7569,3.8303,3.8662,3.8795,3.8633,3.8597,3.8615,3.8689,3.8923,3.9008,3.8792,3.9216,3.9421,3.8914,4.0047,4.1313,4.2194,4.2928,4.3406,4.3479,4.3497,4.3646,4.3986,4.4337,4.4707,4.5074,4.54,4.553,4.547,4.3951,4.3104,4.3104,4.1393,4.0893,4.1681,4.0651,3.9963,3.9645,3.9339,3.9027,2.0088,2.0312,0.0,2.2317,2.4366,2.6123,2.6413,2.6261,2.5949,0.0,0.0,0.0,0.0,0.0,0.0,0.0,0.0,0.0,0.0,0.0,0.0,0.0,0.0,0.0,0.0,0.0,0.0,0.0,0.0,0.0,0.0,0.0,0.0,0.0,0.0,0.0,2.5284,2.5303,2.5428,0.0,2.6314,2.6718,2.6958,2.8695,2.9925,3.0737,3.091,3.0968,3.0948,3.0948,3.0948,3.0948,3.0948,3.0948,3.0948,3.0948,3.0778,3.0632,3.1101,3.1204,3.1288,3.233,3.2757,3.3146,3.455,3.499,3.5027,3.521,3.5899,3.6358,3.5514,3.5917,3.6597,3.678,3.6857,3.7061,3.7636,3.7753,3.7936,3.8579,3.8923,3.9072,3.9008,3.9333,3.9664,3.9909,4.005,4.0671,4.2121,4.2451,4.28,4.3424,4.3497,4.3646,4.3986,4.4058,4.4401,4.5052,4.518,4.5016,4.4605,4.3624,4.3104,4.3104,4.1393,4.0585,4.0777,4.0518,4.0267,4.0002,3.9922,3.9576,1.9165,0.0,0.0,2.1754,0.0,2.4631,2.4571,2.4395,2.4081,0.0,0.0,0.0,0.0,0.0,0.0,0.0,0.0,0.0,0.0,0.0,0.0,0.0,0.0,0.0,0.0,0.0,0.0,0.0,0.0,0.0,0.0,0.0,0.0,0.0,0.0,0.0,2.5284,2.5303,2.5303,2.5303,2.5765,2.6198,2.6631,2.7972,2.8814,2.919,2.919,2.9413,2.979,2.979,3.0021,3.0398,3.0398,3.0398,3.0398,3.0398,3.0222,3.0026,3.0255,3.0452,3.0689,3.128,3.1971,3.2779,3.3605,3.4137,3.4458,3.4581,3.5243,3.5758,3.5039,3.5391,3.5798,3.5391,3.5791,3.6413,3.6817,3.6927,3.7037,3.7477,3.8191,3.8709,3.8555,3.8995,3.9489,3.9895,3.9915,4.0194,4.1038,4.1827,4.2451,4.2873,4.3424,4.3881,4.428,4.4409,4.4762,4.5283,4.5342,4.5036,4.4335,4.3528,4.2893,4.2489,4.1181,4.0489,4.0489,4.0372,4.0157,3.9859,3.9709,3.9377,1.8292,1.8677,1.9585,2.1086,2.2154,0.0,2.2351,2.2545,0.0,0.0,0.0,0.0,0.0,0.0,0.0,0.0,0.0,0.0,0.0,0.0,0.0,0.0,0.0,0.0,0.0,0.0,0.0,0.0,0.0,0.0,0.0,0.0,0.0,0.0,0.0,2.4034,2.4861,2.5014,2.5091,2.5091,2.5226,2.5678,2.6391,2.7116,2.7612,2.7911,2.7911,2.8288,2.8887,2.8883,2.9394,3.0186,3.0186,3.0263,3.0398,3.0398,3.0254,3.0047,2.9813,3.0076,3.0482,3.0372,3.131,3.2545,3.2693,3.3326,3.3986,3.4218,3.4811,3.5273,3.4821,3.5033,3.5184,3.4386,3.5092,3.5965,3.6074,3.6193,3.634,3.6468,3.7648,3.852,3.8206,3.8721,3.9264,3.9552,3.9649,3.9735,3.9863,4.1056,4.2007,4.2349,4.3206,4.4026,4.4657,4.4943,4.5243,4.5586,4.5586,4.5201,4.4335,4.3528,4.2701,4.1816,4.0931,4.0489,4.0489,4.0286,4.0003,3.9668,3.9389,3.9109,1.9773,0.0,2.0318,0.0,2.1361,2.1568,0.0,0.0,0.0,0.0,0.0,0.0,0.0,0.0,0.0,0.0,0.0,0.0,0.0,0.0,0.0,0.0,0.0,0.0,0.0,0.0,0.0,0.0,0.0,0.0,0.0,0.0,1.9615,2.0608,2.1421,0.0,2.312,2.388,2.4255,2.4274,2.4966,2.537,2.5486,2.5591,2.6477,2.7903,2.7903,2.7961,2.8058,2.8057,2.8533,2.9267,2.9267,2.9752,3.0398,3.0398,3.0386,3.0311,3.0047,2.9996,3.0162,3.0658,3.1468,3.237,3.3083,3.3911,3.4591,3.4632,3.4708,3.4804,3.4711,3.4749,3.4701,3.4307,3.4338,3.4612,3.5073,3.5771,3.6505,3.7184,3.848,3.9378,3.9157,3.9352,3.9552,3.9599,3.9184,3.9111,3.9808,4.0084,4.0867,4.2549,4.288,4.353,4.4909,4.5074,4.5243,4.5586,4.5586,4.5201,4.4335,4.3528,4.2701,4.1816,4.0931,4.0489,4.0489,4.0473,4.0302,4.0022,3.9982,3.9641,1.9004,1.8831,1.8797,0.0,1.9554,2.0473,2.0255,0.0,0.0,0.0,0.0,0.0,0.0,0.0,0.0,0.0,0.0,0.0,0.0,0.0,0.0,0.0,0.0,0.0,0.0,0.0,0.0,0.0,0.0,0.0,0.0,1.7626,1.8881,2.0254,2.1081,0.0,2.2782,2.3176,2.362,2.4091,2.4457,2.487,2.5303,2.5303,2.5726,2.6439,2.6439,2.6718,2.7161,2.7178,2.7937,2.9102,2.9106,2.9625,3.034,2.9852,2.9987,3.0309,2.9574,2.9618,3.0026,3.0181,3.079,3.1619,3.2468,3.3316,3.411,3.4737,3.4926,3.4963,3.5105,3.4926,3.4653,3.4529,3.4237,3.4046,3.4274,3.4633,3.5247,3.6379,3.7497,3.8412,3.8934,3.9332,3.9552,3.9339,3.897,3.8836,3.9184,3.9736,4.0659,4.1967,4.2878,4.3829,4.4998,4.5263,4.5438,4.5586,4.5143,4.4489,4.3662,4.2816,4.197,4.1085,4.07,4.0489,4.0489,4.0489,4.0356,4.0101,3.9901,3.9576,0.0,0.0,1.7837,1.7003,1.8114,1.9316,0.0,0.0,0.0,0.0,0.0,0.0,0.0,0.0,0.0,0.0,0.0,0.0,0.0,0.0,0.0,0.0,0.0,0.0,0.0,0.0,0.0,0.0,0.0,0.0,1.647,1.7465,1.8633,1.9927,2.077,2.1501,2.2156,2.2373,2.303,2.4111,2.4101,2.4514,2.5303,2.5303,2.5303,2.5303,2.5303,2.5659,2.6275,2.6275,2.7151,2.8461,2.8472,2.8998,2.9698,2.9025,2.9352,2.9963,2.9162,2.9415,3.0075,2.9927,3.0433,3.1267,3.2119,3.2802,3.3502,3.4566,3.471,3.4588,3.4793,3.4538,3.4207,3.4092,3.3713,3.3561,3.4113,3.4215,3.4568,3.5771,3.6878,3.7734,3.8099,3.8944,3.943,3.8872,3.8755,3.8719,3.8803,3.948,4.0383,4.1402,4.2507,4.3554,4.4515,4.4805,4.4951,4.4951,4.4355,4.3624,4.2797,4.2162,4.1393,4.0508,4.0489,4.0489,4.0489,4.0489,4.0389,4.0195,3.988,3.9552,0.0,1.8934,0.0,1.7856,1.7734,0.0,0.0,0.0,0.0,0.0,0.0,0.0,0.0,0.0,0.0,0.0,0.0,0.0,0.0,0.0,0.0,0.0,0.0,0.0,0.0,0.0,0.0,0.0,0.0,0.0,1.6509,1.8049,1.8972,1.9069,1.9908,2.0389,2.0427,2.1196,2.2408,2.411,2.4092,2.4514,2.5303,2.5303,2.5303,2.5303,2.5303,2.5322,2.537,2.537,2.5919,2.6737,2.6726,2.7267,2.8025,2.7984,2.8475,2.9159,2.9102,2.9648,3.0386,3.0367,3.0963,3.1808,3.2615,3.2885,3.3115,3.3993,3.3647,3.3013,3.3026,3.3013,3.2867,3.2428,3.2298,3.2859,3.495,3.5405,3.5595,3.616,3.7604,3.8232,3.6687,3.8188,3.9242,3.8133,3.8385,3.8773,3.9063,3.9136,3.9714,4.1163,4.1378,4.1915,4.3109,4.322,4.3239,4.3239,4.3181,4.2777,4.1912,4.1816,4.1393,4.0508,4.0489,4.0489,4.0489,4.0489,4.0489,4.0473,4.0195,3.9901,0.0,0.0,0.0,1.7927,1.7702,1.7886,0.0,0.0,0.0,0.0,0.0,0.0,0.0,0.0,0.0,0.0,0.0,0.0,0.0,0.0,0.0,0.0,0.0,0.0,0.0,0.0,0.0,0.0,0.0,0.0,1.7273,1.8376,1.8992,1.8992,1.985,2.0312,2.0312,2.0023,2.1031,2.3283,2.3265,2.3976,2.5303,2.5303,2.5303,2.5303,2.5303,2.5303,2.5303,2.5303,2.5803,2.6593,2.6591,2.7131,2.7836,2.7276,2.7593,2.8247,2.7678,2.839,2.9563,2.9563,3.016,3.1025,3.1872,3.2122,3.2295,3.3122,3.3141,3.2891,3.2891,3.276,3.253,3.2049,3.2337,3.291,3.372,3.4473,3.5087,3.5473,3.6293,3.6896,3.6838,3.7751,3.8488,3.8422,3.8578,3.8803,3.9063,3.9289,3.9901,4.1167,4.1494,4.2021,4.3028,4.3104,4.3104,4.3104,4.2585,4.2143,4.1816,4.1258,4.0816,4.0508,4.0489,4.0489,4.0489,4.0489,4.0489,4.0489,4.0213,3.9922,1.9697,0.0,0.0,0.0,0.0,1.8129,0.0,0.0,0.0,0.0,0.0,0.0,0.0,0.0,0.0,0.0,0.0,0.0,0.0,0.0,0.0,0.0,0.0,0.0,0.0,0.0,0.0,0.0,0.0,0.0,1.8145,1.8953,1.9434,1.9434,2.0004,2.0312,2.0312,1.9735,2.0408,2.235,2.235,2.3254,2.4909,2.4899,2.5043,2.5303,2.5303,2.5303,2.5303,2.5303,2.564,2.616,2.616,2.6516,2.6949,2.6381,2.6718,2.7372,2.6804,2.7708,2.9102,2.9102,2.9698,3.0552,3.1448,3.1506,3.1448,3.2256,3.2295,3.2064,3.2064,3.1862,3.1578,3.1261,3.1967,3.277,3.2837,3.3823,3.4774,3.5053,3.5609,3.61,3.6257,3.6967,3.7596,3.7849,3.79,3.8114,3.8756,3.9067,3.9548,4.052,4.108,4.1604,4.2181,4.222,4.222,4.222,4.1681,4.1354,4.1354,4.0796,4.0489,4.0489,4.0489,4.0457,4.0372,4.0457,4.0489,4.0489,4.012,3.9709,0.0,0.0,0.0,0.0,0.0,0.0,0.0,0.0,0.0,0.0,0.0,0.0,0.0,0.0,0.0,0.0,0.0,0.0,0.0,0.0,0.0,0.0,0.0,0.0,0.0,0.0,0.0,0.0,0.0,1.903,1.903,1.9831,2.0312,2.0312,2.0292,2.0273,2.0312,2.0273,2.0677,2.1504,2.1504,2.2389,2.4072,2.4092,2.4534,2.5264,2.5284,2.5303,2.5303,2.5303,2.5303,2.5303,2.5303,2.5303,2.5303,2.5303,2.5842,2.6554,2.6554,2.7642,2.9025,2.9063,2.966,3.0513,3.141,3.1083,3.0571,3.1429,3.1064,3.0398,3.0398,3.0209,3.0013,2.9999,3.1132,3.2296,3.2537,3.3712,3.4774,3.507,3.5734,3.593,3.4924,3.581,3.6575,3.6352,3.6303,3.6786,3.8089,3.8316,3.859,3.9246,3.9988,4.0469,4.0489,4.0489,4.0489,4.0489,4.0489,4.0489,4.0489,4.0489,4.0489,4.0489,4.0489,4.0372,4.0101,4.0356,4.0489,4.0473,3.9863,3.9249,2.0482,0.0,0.0,0.0,0.0,0.0,0.0,0.0,0.0,0.0,0.0,0.0,0.0,0.0,0.0,0.0,0.0,0.0,0.0,0.0,0.0,0.0,0.0,0.0,0.0,0.0,0.0,0.0,0.0,1.9946,1.9946,2.0177,2.0312,2.0312,1.9696,1.9658,2.0292,1.9677,2.0081,2.1504,2.1504,2.2073,2.3179,2.3803,2.4217,2.4457,2.5053,2.5303,2.5303,2.5303,2.5303,2.5303,2.5303,2.5303,2.5303,2.5303,2.5447,2.5659,2.5659,2.637,2.739,2.8025,2.8794,2.9621,3.0506,3.059,3.0436,3.0698,3.059,3.0398,3.0398,3.0336,3.0241,3.0061,3.1229,3.24,3.2332,3.373,3.507,3.5339,3.5395,3.5526,3.5817,3.5851,3.6,3.6504,3.6417,3.6582,3.7322,3.7448,3.7925,3.9169,3.9488,3.9873,4.045,4.0489,4.0489,4.0489,4.0489,4.0489,4.0489,4.0489,4.0489,4.0489,4.0489,4.0372,4.0101,4.0177,4.0101,3.9842,3.9438,3.9152,2.0547,2.0527,0.0,0.0,0.0,0.0,0.0,1.8035,0.0,0.0,0.0,0.0,0.0,0.0,0.0,0.0,0.0,0.0,0.0,0.0,0.0,0.0,0.0,0.0,0.0,0.0,0.0,0.0,2.0312,2.0312,2.0312,2.0312,2.0312,2.0312,1.9812,1.9792,2.0312,1.9792,2.0042,2.1043,2.1004,2.1466,2.2331,2.2802,2.3207,2.3602,2.4438,2.4793,2.4832,2.5168,2.5303,2.5303,2.5303,2.5303,2.5303,2.5303,2.5303,2.5303,2.5303,2.587,2.6678,2.7198,2.814,2.9179,2.9698,3.0121,3.0398,3.0398,3.0398,3.0398,3.0398,3.0398,3.0355,3.0209,3.1355,3.2499,3.2483,3.387,3.5157,3.5304,3.5207,3.5257,3.5717,3.5452,3.545,3.625,3.5957,3.5917,3.6666,3.6765,3.7147,3.8112,3.8873,3.9488,3.995,4.0296,4.0489,4.0489,4.0489,4.0489,4.0489,4.0489,4.0489,4.0489,4.0489,4.0302,3.9901,4.0022,3.9859,3.9408,3.9186,3.9036,2.0586,2.0546,2.0505,0.0,0.0,0.0,1.8662,1.767,0.0,0.0,0.0,0.0,0.0,0.0,0.0,0.0,0.0,0.0,0.0,0.0,0.0,0.0,0.0,0.0,0.0,0.0,0.0,2.0004,2.0092,2.0208,2.0292,2.0312,2.0312,2.0312,2.0312,2.0312,2.0312,2.0289,2.0323,2.04,2.0342,2.0727,2.1479,2.1517,2.2004,2.2863,2.3736,2.4149,2.4293,2.5005,2.5303,2.5303,2.5303,2.5303,2.5303,2.5303,2.5303,2.5303,2.5303,2.5813,2.6467,2.6563,2.7601,2.8832,2.8929,2.9563,3.0294,3.0359,3.0398,3.0398,3.0398,3.0456,3.0533,3.0533,3.1646,3.276,3.2987,3.4155,3.5138,3.5138,3.5138,3.5138,3.5138,3.4926,3.4999,3.5696,3.5186,3.5077,3.6043,3.6172,3.6296,3.6652,3.8161,3.9181,3.9277,4.0027,4.0489,4.0489,4.0489,4.0489,4.0489,4.0489,4.0489,4.0489,4.0473,4.0175,3.9599,3.9838,3.9641,3.9063,3.9063,3.8952,0.0,0.0,0.0,0.0,0.0,0.0,1.9888,1.9593,1.9189,0.0,0.0,0.0,0.0,0.0,0.0,0.0,0.0,0.0,0.0,0.0,0.0,0.0,0.0,0.0,0.0,0.0,1.8215,1.8215,1.8866,1.9558,2.0265,2.0312,2.0312,2.0312,2.0312,2.0312,2.0312,2.0299,2.0337,2.0395,2.0395,2.0474,2.0666,2.1355,2.2142,2.299,2.3766,2.4493,2.5149,2.5264,2.5303,2.5303,2.5303,2.5303,2.5303,2.5303,2.5303,2.5303,2.5303,2.5399,2.5668,2.637,2.6813,2.7217,2.7909,2.8698,2.9506,3.0198,3.0398,3.0398,3.0398,3.0929,3.1448,3.1448,3.2692,3.3871,3.3949,3.473,3.5432,3.5432,3.5432,3.5432,3.5432,3.5207,3.5073,3.5245,3.4946,3.485,3.528,3.5333,3.5684,3.6594,3.7623,3.8546,3.9238,4.0027,4.0489,4.0489,4.0489,4.0489,4.0489,4.0489,4.0489,4.0489,4.0304,3.9983,3.9599,3.9181,3.8921,3.8792,3.8792,3.8732,0.0,0.0,0.0,2.0497,0.0,0.0,0.0,1.9934,1.9499,0.0,0.0,0.0,0.0,0.0,0.0,0.0,0.0,0.0,0.0,0.0,0.0,0.0,0.0,0.0,0.0,0.0,1.7876,1.8318,1.8751,1.9377,2.0246,2.0312,2.0312,2.0312,2.0331,2.0369,2.0408,2.0405,2.0419,2.0508,2.0469,2.0687,2.1115,2.1527,2.2174,2.3034,2.3856,2.4426,2.4832,2.5207,2.5322,2.5303,2.5303,2.5303,2.5303,2.5303,2.5303,2.5303,2.5303,2.5303,2.536,2.5813,2.6255,2.6755,2.764,2.8775,2.9833,3.0294,3.0398,3.0398,3.0398,3.0717,3.116,3.1602,3.2641,3.366,3.4103,3.4872,3.5493,3.5493,3.5493,3.5493,3.5493,3.5383,3.5304,3.5304,3.519,3.5157,3.5289,3.5304,3.5507,3.6051,3.6853,3.77,3.8584,3.9411,4.0065,4.0469,4.0489,4.0489,4.0489,4.0489,4.0489,4.0489,4.0251,4.0022,3.9859,3.9216,3.8844,3.8707,3.8707,3.8707,0.0,0.0,0.0,0.0,0.0,1.9621,0.0,0.0,0.0,2.0175,0.0,0.0,0.0,0.0,0.0,0.0,0.0,0.0,0.0,0.0,0.0,0.0,0.0,0.0,0.0,0.0,1.7587,1.8453,1.8655,1.9135,2.0004,2.0215,2.0308,2.0306,2.0366,2.0427,2.0495,2.0495,2.0534,2.0605,2.0547,2.0898,2.1562,2.1699,2.2207,2.3086,2.3926,2.4355,2.4514,2.5168,2.539,2.5322,2.5303,2.5303,2.5303,2.5303,2.5303,2.5303,2.5303,2.5303,2.5303,2.5303,2.589,2.6755,2.764,2.8948,3.0179,3.034,3.0398,3.0398,3.0398,3.0513,3.0871,3.1737,3.2564,3.3391,3.4257,3.5007,3.5493,3.5493,3.5493,3.5493,3.5493,3.5493,3.5493,3.5493,3.5493,3.5493,3.5493,3.5493,3.5493,3.5493,3.6219,3.6988,3.77,3.87,3.9565,4.0219,4.0412,4.0489,4.0489,4.0489,4.0489,4.0489,4.0304,4.0158,4.0101,3.9552,3.9117,3.8792,3.8719,3.8707,0.0,0.0,0.0,0.0,2.0342,0.0,0.0,0.0,2.0351,2.0466,0.0,2.0312,2.0312,0.0,0.0,0.0,0.0,0.0,0.0,0.0,0.0,0.0,0.0,0.0,0.0,0.0,0.0,1.6715,1.7446,1.8234,1.9107,1.9888,2.0288,2.0307,2.0379,2.0427,2.0503,2.0504,2.0526,2.0605,2.0586,2.0644,2.0762,2.1523,2.2344,2.3223,2.3965,2.4725,2.5447,2.5486,2.5447,2.539,2.5322,2.5303,2.5303,2.5303,2.5303,2.5303,2.5303,2.5303,2.5303,2.5303,2.589,2.6755,2.764,2.8525,2.941,3.0179,3.0398,3.0398,3.0398,3.0968,3.1756,3.2564,3.341,3.4295,3.5161,3.543,3.5493,3.5493,3.5493,3.5493,3.5493,3.5493,3.5493,3.5493,3.5493,3.5493,3.5493,3.5493,3.5493,3.5493,3.6219,3.6738,3.6853,3.8354,3.9335,3.9431,4.0104,4.0489,4.0489,4.0489,4.0489,4.0489,4.0473,4.0339,4.0101,4.0022,3.9664,3.9063,3.8833,3.8707,0.0,0.0,0.0,0.0,0.0,0.0,0.0,0.0,2.0547,0.0,0.0,0.0,0.0,0.0,0.0,0.0,0.0,0.0,0.0,0.0,0.0,0.0,0.0,0.0,0.0,0.0,0.0,0.0,0.0,1.8292,1.9677,2.0139,2.036,2.0367,2.0464,2.0775,2.1309,2.1309,2.1328,2.1348,2.1348,2.1602,2.2051,2.2422,2.3359,2.4668,2.498,2.5302,2.5604,2.5564,2.5505,2.5409,2.537,2.5322,2.5303,2.5303,2.5303,2.5303,2.5303,2.5303,2.5303,2.5303,2.6236,2.7409,2.7794,2.8813,2.9929,3.0314,3.0398,3.0398,3.0398,3.0679,3.1275,3.2583,3.3179,3.3814,3.5199,3.5493,3.5493,3.5493,3.5493,3.5493,3.5493,3.5493,3.5493,3.5493,3.5493,3.5493,3.5493,3.5493,3.5493,3.5493,3.5815,3.6199,3.6661,3.7834,3.8757,3.9258,4.0046,4.0489,4.0489,4.0489,4.0489,4.0489,4.0489,4.0438,4.0339,4.0177,3.9962,3.9668,3.9352,3.9109,2.0455,0.0,0.0,0.0,0.0,0.0,0.0,0.0,0.0,0.0,0.0,0.0,0.0,0.0,2.0235,0.0,0.0,0.0,0.0,0.0,0.0,0.0,0.0,0.0,0.0,0.0,0.0,0.0,0.0,0.0,1.9888,2.0235,2.0397,2.0434,2.0746,2.123,2.1894,2.2148,2.2246,2.2227,2.2227,2.2539,2.3105,2.3359,2.4141,2.5352,2.5605,2.5664,2.5624,2.5634,2.5556,2.5444,2.5418,2.539,2.5322,2.5303,2.5303,2.5303,2.5303,2.5303,2.5303,2.5303,2.6332,2.7582,2.7832,2.8909,3.0102,3.0321,3.0398,3.0398,3.0398,3.0398,3.0775,3.2218,3.2564,3.3045,3.4776,3.4968,3.493,3.5411,3.5315,3.5218,3.5468,3.5493,3.5493,3.5493,3.5493,3.5493,3.5493,3.5493,3.5493,3.5493,3.5493,3.5834,3.6642,3.7507,3.8469,3.9546,4.0181,4.0489,4.0489,4.0489,4.0489,4.0489,4.0489,4.0489,4.0489,4.0285,4.0213,4.0195,3.9797,3.9462,0.0,0.0,0.0,2.0331,0.0,0.0,0.0,0.0,2.1531,0.0,0.0,0.0,0.0,2.0312,2.0042,1.9261,0.0,0.0,0.0,0.0,0.0,0.0,0.0,0.0,0.0,0.0,0.0,0.0,0.0,0.0,1.9088,1.9869,2.035,2.0493,2.1311,2.1816,2.1894,2.2734,2.3125,2.3066,2.3066,2.3086,2.3125,2.3965,2.4394,2.4492,2.5332,2.5703,2.5703,2.5703,2.5663,2.5582,2.5522,2.5466,2.539,2.5322,2.5303,2.5303,2.5303,2.5303,2.5303,2.5303,2.5909,2.6794,2.764,2.8467,2.9313,3.016,3.0398,3.0398,3.0398,3.0398,3.0641,3.1525,3.1737,3.2199,3.3872,3.3583,3.3487,3.518,3.4814,3.4507,3.5353,3.5493,3.5493,3.5493,3.5493,3.5493,3.5493,3.5493,3.5493,3.5493,3.5493,3.5834,3.6642,3.7507,3.87,4.0354,4.0489,4.0489,4.0489,4.0489,4.0489,4.0489,4.0489,4.0489,4.0489,4.0489,4.0489,4.0473,3.9884,3.9599,0.0,0.0,2.0331,2.0312,0.0,0.0,0.0,0.0,0.0,0.0,0.0,0.0,0.0,0.0,2.0473,2.0778,2.056,0.0,0.0,0.0,0.0,0.0,0.0,0.0,0.0,0.0,0.0,0.0,0.0,0.0,0.0,2.0198,2.0398,2.0435,2.1369,2.2129,2.2695,2.3555,2.3984,2.3965,2.3965,2.3965,2.3965,2.4277,2.4707,2.5273,2.5566,2.5703,2.5703,2.5703,2.5664,2.5604,2.5587,2.5524,2.5447,2.5341,2.5303,2.5303,2.5303,2.5303,2.5399,2.5967,2.6755,2.7612,2.8439,2.9294,3.0025,3.0321,3.0398,3.0398,3.0398,3.0398,3.0609,3.1487,3.2102,3.2814,3.3949,3.441,3.4795,3.5391,3.5257,3.5161,3.5449,3.5493,3.5493,3.5493,3.5493,3.5493,3.5493,3.5493,3.5493,3.5493,3.5493,3.5622,3.5892,3.7199,3.8719,4.0392,4.0489,4.0489,4.0489,4.0489,4.0489,4.0489,4.0489,4.0489,4.0489,4.0489,4.0489,4.0489,4.0283,3.9984,2.0389,1.9207,0.0,0.0,2.0666,0.0,2.0942,0.0,0.0,0.0,0.0,0.0,0.0,0.0,0.0,2.1162,2.0739,2.043,0.0,2.0192,0.0,0.0,0.0,0.0,0.0,0.0,0.0,0.0,0.0,0.0,0.0,0.0,2.0385,2.0434,2.1675,2.258,2.3125,2.4277,2.4863,2.4863,2.4863,2.4863,2.4863,2.4863,2.5176,2.5703,2.5703,2.5703,2.5703,2.5703,2.5664,2.5623,2.5607,2.5563,2.5524,2.5409,2.537,2.5322,2.5303,2.5303,2.5437,2.6332,2.6967,2.7651,2.8767,2.9486,3.0063,3.0698,3.0641,3.0456,3.0794,3.0629,3.0533,3.1102,3.1641,3.2333,3.3487,3.3718,3.4051,3.5262,3.5007,3.4776,3.5391,3.5493,3.5493,3.5493,3.5493,3.5493,3.5493,3.5493,3.5493,3.5493,3.5493,3.5622,3.5911,3.7488,3.8911,4.0008,4.0335,4.0489,4.0489,4.0489,4.0642,4.095,4.0662,4.0642,4.095,4.0642,4.0489,4.0489,4.0489,4.0175]},{"header":{"parameterUnit":"m.s-1","parameterCategory":1,"la1":30.6,"la2":29.2853,"lo1":-89.7004,"lo2":-87.6739,"dy":0.0162,"dx":0.0183,"nx":112,"ny":82,"refTime":"2023-05-22T00:00:00:Z","depth":0,"parameterNumber":3,"parameterNumberName":"V-component_of_WINDS"},"data":[0.0,0.0,0.0,0.0,0.0,0.0,0.0,0.0,0.0,0.0,0.0,0.0,0.0,0.0,0.0,0.0,0.0,0.0,0.0,0.0,0.0,0.0,0.0,0.0,0.0,0.0,0.0,0.0,0.0,0.0,0.0,0.0,0.0,0.0,0.0,0.0,0.0,0.0,0.0,0.0,0.0,0.0,0.0,0.0,0.0,0.0,0.0,0.0,0.0,0.0,0.0,0.0,0.0,0.0,0.0,0.0,0.0,0.0,0.0,0.0,0.0,0.0,0.0,0.0,0.0,0.0,0.0,0.0,0.0,0.0,0.0,0.0,0.0,0.0,0.0,0.0,0.0,0.0,0.0,0.0,0.0,0.0,0.0,0.0,0.0,0.0,0.0,0.0,0.0,0.0,0.0,0.639,0.7383,0.7969,0.8015,0.7392,0.6425,0.4962,0.0,0.0,0.0,0.0,0.0,0.0,0.0,0.0,0.0,0.0,0.0,0.0,0.0,0.0,0.0,0.0,0.0,0.0,0.0,0.0,0.0,0.0,0.0,0.0,0.0,0.0,0.0,0.0,0.0,0.0,0.0,0.0,0.0,0.0,0.0,0.0,0.0,0.0,0.0,0.0,0.0,0.0,0.0,0.0,0.0,0.0,0.0,0.0,0.0,0.0,0.0,0.0,0.0,0.0,0.0,0.0,0.0,0.0,0.0,0.0,0.0,0.0,0.0,0.0,0.0,0.0,0.0,0.0,0.0,0.0,0.0,0.0,0.0,0.0,0.0,0.0,0.0,0.0,0.0,0.0,0.0,0.0,0.0,0.0,0.0,0.0,0.0,0.0,0.0,0.0,0.0,0.0,0.0,0.0,0.0,0.0,0.0,0.0,0.0,0.0,0.0,0.0,0.0,0.0,0.6079,0.6888,0.7628,0.8014,0.798,0.7066,0.6516,0.6722,0.0,0.0,0.0,0.0,0.0,0.0,0.0,0.0,0.0,0.0,0.0,0.0,0.0,0.0,0.0,0.0,0.0,0.0,0.0,0.0,0.0,0.0,0.0,0.0,0.0,0.0,0.0,0.0,0.0,0.0,0.0,0.0,0.0,0.0,0.0,0.0,0.0,0.0,0.0,0.0,0.0,0.0,0.0,0.0,0.0,0.0,0.0,0.0,0.0,0.0,0.0,0.0,0.0,0.0,0.0,0.0,0.0,0.0,0.0,0.0,0.0,0.0,0.0,0.0,0.0,0.0,0.0,0.0,0.0,0.0,0.0,0.0,0.0,0.0,0.0,0.0,0.0,0.0,0.0,0.0,0.0,0.0,0.0,0.0,0.0,0.0,0.0,0.0,0.0,0.0,0.0,0.0,0.0,0.0,0.0,0.0,0.0,0.0,0.0,0.0,0.0,0.0,0.0,0.5497,0.6384,0.7166,0.7729,0.8021,0.8012,0.7249,0.6595,0.6226,0.6045,0.0,0.0,0.0,0.0,0.0,0.0,0.0,0.0,0.0,0.0,0.0,0.0,0.0,0.0,0.0,0.0,0.0,0.0,0.0,0.0,0.0,0.0,0.0,0.0,0.0,0.0,0.0,0.0,0.0,0.0,0.0,0.0,0.0,0.0,0.0,0.0,0.0,0.0,0.0,0.0,0.0,0.0,0.0,0.0,0.0,0.0,0.0,0.0,0.0,0.0,0.0,0.0,0.0,0.0,0.0,0.0,0.0,0.0,0.0,0.0,0.0,0.0,0.0,0.0,0.0,0.0,0.0,0.0,0.0,0.0,0.0,0.0,0.0,0.0,0.0,0.0,0.0,0.0,0.0,0.0,0.0,0.0,0.0,0.0,0.0,0.0,0.0,0.0,0.0,0.0,0.0,0.0,0.0,0.0,0.0,0.0,0.0,0.0,0.0,0.0,0.0,0.0,0.6301,0.6624,0.7299,0.774,0.7952,0.8002,0.7528,0.6702,0.5441,0.6264,0.0,0.0,0.0,0.0,0.0,0.0,0.0,0.0,0.0,0.0,0.0,0.0,0.0,0.0,0.0,0.0,0.0,0.0,0.0,0.0,0.0,0.0,0.0,0.0,0.0,0.0,0.0,0.0,0.0,0.0,0.0,0.0,0.0,0.0,0.0,0.0,0.0,0.0,0.0,0.0,0.0,0.0,0.0,0.0,0.0,0.0,0.0,0.0,0.0,0.0,0.0,0.0,0.0,0.0,0.0,0.0,0.0,0.0,0.0,0.0,0.0,0.0,0.0,0.0,0.0,0.0,0.0,0.0,0.0,0.0,0.0,0.0,0.0,0.0,0.0,0.0,0.0,0.0,0.0,0.0,0.0,0.0,0.0,0.0,0.0,0.0,0.0,0.0,0.0,0.0,0.0,0.0,0.0,0.0,0.0,0.0,0.0,0.0,0.0,0.0,0.0,0.0,0.6325,0.6851,0.7322,0.7645,0.7844,0.7949,0.7749,0.6915,0.5503,0.7426,0.0,0.0,0.0,0.0,0.0,0.0,0.0,0.0,0.0,0.0,0.0,0.0,0.0,0.0,0.0,0.0,0.0,0.0,0.0,0.0,0.0,0.0,0.0,0.0,0.0,0.0,0.0,0.0,0.0,0.0,0.0,0.0,0.0,0.0,0.0,0.0,0.0,0.0,0.0,0.0,0.0,0.0,0.0,0.0,0.0,0.0,0.0,0.0,0.0,0.0,0.0,0.0,0.0,0.0,0.0,0.0,0.0,0.0,0.0,0.0,0.0,0.0,0.0,0.0,0.0,0.0,0.0,0.0,0.0,0.0,0.0,0.0,0.0,0.0,0.0,0.0,0.0,0.0,0.0,0.0,0.0,0.0,0.0,0.0,0.0,0.0,0.0,0.0,0.0,0.0,0.0,0.0,0.0,0.0,0.0,0.0,0.0,0.0,0.0,0.0,0.0,0.0,0.6416,0.6766,0.0,0.7732,0.7921,0.7731,0.7809,0.6838,0.4433,0.0,0.0,0.0,0.0,0.0,0.0,0.0,0.0,0.0,0.0,0.0,0.0,0.0,0.0,0.0,0.0,0.0,0.0,0.0,0.0,0.0,0.0,0.0,0.0,0.0,0.0,0.0,0.0,0.0,0.0,0.0,0.0,0.0,0.0,0.0,0.0,0.0,0.0,0.0,0.0,0.0,0.0,0.0,0.0,0.0,0.0,0.0,0.0,0.0,0.0,0.0,0.0,0.0,0.0,0.0,0.0,0.0,0.0,0.0,0.0,0.0,0.0,0.0,0.0,0.0,0.0,0.0,0.0,0.0,0.0,0.0,0.0,0.0,0.0,0.0,0.0,0.0,0.0,0.0,0.0,0.0,0.0,0.0,0.0,0.0,0.0,0.0,0.0,0.0,0.0,0.0,0.0,0.0,0.0,0.0,0.0,0.0,0.0,0.0,0.0,0.0,0.0,0.5894,0.6451,0.6688,0.0,0.7574,0.7608,0.7501,0.7399,0.6406,0.4056,0.0,0.0,0.0,0.0,0.0,0.0,0.0,0.0,0.0,0.0,0.0,0.0,0.0,0.0,0.0,0.0,0.0,0.0,0.0,0.0,0.0,0.0,0.0,0.0,0.0,0.0,0.0,0.0,0.0,0.0,0.0,0.0,0.0,0.0,0.0,0.0,0.0,0.0,0.0,0.0,0.0,0.0,0.0,0.0,0.0,0.0,0.0,0.0,0.0,0.0,0.0,0.0,0.0,0.0,0.0,0.0,0.0,0.0,0.0,0.0,0.0,0.0,0.0,0.0,0.0,0.0,0.0,0.0,0.0,0.0,0.0,0.0,0.0,0.0,0.0,0.0,0.0,0.0,0.0,0.0,0.0,0.0,0.0,0.0,0.0,0.0,0.0,0.0,0.0,0.0,0.0,0.0,0.0,0.0,0.0,0.0,0.0,0.0,0.0,0.0,0.0,0.0,0.5762,0.6458,0.674,0.7092,0.7139,0.7135,0.7093,0.6384,0.5567,0.0,0.0,0.0,0.0,0.0,0.0,0.0,0.0,0.0,0.0,0.0,0.0,0.0,0.0,0.0,0.0,0.0,0.0,0.0,0.0,0.0,0.0,0.0,0.0,0.0,0.0,0.0,0.0,0.0,0.0,0.0,0.0,0.0,0.0,0.0,0.0,0.0,0.0,0.0,0.0,0.0,0.0,0.0,0.0,0.0,0.0,0.0,0.0,0.0,0.0,0.0,0.0,0.0,0.0,0.0,0.0,0.0,0.0,0.0,0.0,0.0,0.0,0.0,0.0,0.0,0.0,0.0,0.0,0.0,0.0,0.0,0.0,0.0,0.0,0.0,0.0,0.0,0.0,0.0,0.0,0.0,0.0,0.0,0.0,0.0,0.0,0.0,0.0,0.0,0.0,0.0,0.0,0.0,0.0,0.0,0.0,0.0,0.0,0.0,0.0,0.0,0.0,0.0,0.4013,0.5665,0.674,0.7092,0.7139,0.6959,0.6592,0.5568,0.4823,0.4489,0.0,0.0,0.0,0.0,0.0,0.0,0.0,0.0,0.0,0.0,0.0,0.0,0.0,0.0,0.0,0.0,0.0,0.0,0.0,0.0,0.0,0.0,0.0,0.0,0.0,0.0,0.0,0.0,0.0,0.0,0.0,0.0,0.0,0.0,0.0,0.0,0.0,0.0,0.0,0.0,0.0,0.0,0.0,0.0,0.0,0.0,0.0,0.0,0.0,0.0,0.0,0.0,0.0,0.0,0.0,0.0,0.0,0.0,0.0,0.0,0.0,0.0,0.0,0.0,0.0,0.0,0.0,0.0,0.0,0.0,0.0,0.0,0.0,0.0,0.0,0.0,0.0,0.0,0.0,0.0,0.0,0.0,0.0,0.0,0.0,0.0,0.0,0.0,0.0,0.0,0.0,0.0,0.0,0.0,0.0,0.0,0.0,0.0,0.0,0.0,0.0,0.0,0.3291,0.5466,0.6852,0.7088,0.7034,0.6807,0.6337,0.539,0.4776,0.4528,0.0,0.0,0.0,0.0,0.0,0.0,0.0,0.0,0.0,0.0,0.0,0.0,0.0,0.0,0.0,0.0,0.0,0.0,0.0,0.0,0.0,0.0,0.0,0.0,0.0,0.0,0.0,0.0,0.0,0.0,0.0,0.0,0.0,0.0,0.0,0.0,0.0,0.0,0.0,0.0,0.0,0.0,0.0,0.0,0.0,0.0,0.0,0.0,0.0,0.0,0.0,0.0,0.0,0.0,0.0,0.0,0.0,0.0,0.0,0.0,0.0,0.0,0.0,0.0,0.0,0.0,0.0,0.0,0.0,0.0,0.0,0.0,0.0,0.0,0.0,0.0,0.0,0.0,0.0,0.0,0.0,0.0,0.0,0.0,0.0,0.0,0.0,0.0,0.0,0.0,0.0,0.0,0.0,0.0,0.0,0.0,0.0,0.0,0.0,0.0,0.0,0.0,0.3303,0.5648,0.7093,0.7082,0.6875,0.658,0.6285,0.5765,0.5159,0.4559,0.0,0.0,0.0,0.0,0.0,0.0,0.0,0.0,0.0,0.0,0.0,0.0,0.0,0.0,0.0,0.0,0.0,0.0,0.0,0.0,0.0,0.0,0.0,0.0,0.0,0.0,0.0,0.0,0.0,0.0,0.0,0.0,0.0,0.0,0.0,0.0,0.0,0.0,0.0,0.0,0.0,0.0,0.0,0.0,0.0,0.0,0.0,0.0,0.0,0.0,0.0,0.0,0.0,0.0,0.0,0.0,0.0,0.0,0.0,0.0,0.4331,0.0,0.0,0.0,0.0,0.0,0.0,0.0,0.0,0.0,0.0,0.0,0.0,0.0,0.0,0.0,0.0,0.0,0.0,0.0,0.0,0.0,0.0,0.0,0.0,0.0,0.0,0.0,0.0,0.0,0.0,0.0,0.0,0.0,0.0,0.0,0.0,0.0,0.0,0.0,0.0,0.0,0.3312,0.5631,0.7093,0.7082,0.6875,0.658,0.6285,0.5596,0.5091,0.4823,0.0,0.0,0.0,0.0,0.0,0.0,0.0,0.0,0.0,0.0,0.0,0.0,0.0,0.0,0.0,0.0,0.0,0.0,0.0,0.0,0.0,0.0,0.0,0.0,0.0,0.0,0.0,0.0,0.0,0.0,0.0,0.0,0.0,0.0,0.0,0.0,0.0,0.0,0.0,0.0,0.0,0.0,0.0,0.0,0.0,0.0,0.0,0.0,0.0,0.0,0.0,0.0,0.0,0.0,0.0,0.0,0.0,0.0,0.0,0.0,0.0,0.4416,0.0,0.0,0.0,0.0,0.0,0.0,0.0,0.0,0.0,0.0,0.0,0.0,0.0,0.0,0.0,0.0,0.0,0.0,0.0,0.0,0.0,0.0,0.0,0.0,0.0,0.0,0.0,0.0,0.0,0.0,0.0,0.0,0.0,0.0,0.0,0.0,0.0,0.0,0.0,0.0,0.3267,0.5647,0.7068,0.6987,0.6837,0.6549,0.6179,0.5593,0.5118,0.4826,0.4519,0.0,0.0,0.0,0.0,0.0,0.0,0.0,0.0,0.0,0.0,0.0,0.0,0.0,0.0,0.0,0.0,0.0,0.0,0.0,0.0,0.0,0.0,0.0,0.0,0.0,0.0,0.0,0.0,0.0,0.0,0.0,0.0,0.0,0.0,0.0,0.0,0.0,0.0,0.0,0.0,0.0,0.0,0.0,0.0,0.0,0.0,0.0,0.0,0.0,0.0,0.0,0.0,0.0,0.0,0.0,0.5711,0.5604,0.5607,0.557,0.4993,0.4511,0.4178,0.0,0.0,0.0,0.0,0.0,0.0,0.0,0.0,0.0,0.0,0.0,0.0,0.0,0.0,0.0,0.0,0.0,0.0,0.0,0.0,0.0,0.0,0.0,0.0,0.0,0.0,0.0,0.0,0.0,0.0,0.0,0.0,0.0,0.0,0.0,0.0,0.0,0.0,0.0,0.3274,0.5668,0.7068,0.6888,0.6793,0.6519,0.6067,0.5644,0.5274,0.4821,0.4585,0.3825,0.0,0.0,0.0,0.0,0.0,0.0,0.0,0.0,0.0,0.0,0.0,0.0,0.0,0.0,0.0,0.0,0.0,0.0,0.0,0.0,0.0,0.0,0.0,0.0,0.0,0.0,0.0,0.0,0.0,0.0,0.0,0.0,0.456,0.4731,0.0,0.0,0.0,0.0,0.0,0.0,0.0,0.0,0.0,0.0,0.0,0.0,0.0,0.0,0.5471,0.5725,0.5874,0.5911,0.6067,0.6152,0.6173,0.619,0.6257,0.6424,0.5983,0.0,0.4777,0.4555,0.0,0.0,0.0,0.0,0.0,0.0,0.0,0.0,0.0,0.0,0.0,0.0,0.0,0.0,0.0,0.0,0.0,0.0,0.0,0.0,0.0,0.0,0.0,0.0,0.0,0.0,0.0,0.0,0.0,0.0,0.0,0.0,0.0,0.0,0.0,0.0,0.0,0.0,0.3282,0.5674,0.7029,0.6898,0.6793,0.6519,0.6067,0.5742,0.5442,0.5057,0.4707,0.4379,0.4141,0.1841,0.0,0.0,0.0,0.0,0.0,0.0,0.0,0.0,0.0,0.0,0.0,0.0,0.0,0.0,0.0,0.0,0.0,0.0,0.0,0.0,0.0,0.0,0.0,0.0,0.0,0.0,0.0,0.0,0.0,0.4606,0.5161,0.509,0.5359,0.5443,0.0,0.0,0.0,0.0,0.0,0.0,0.0,0.0,0.0,0.5766,0.5908,0.6017,0.6084,0.6213,0.6366,0.6539,0.6685,0.68,0.6888,0.7063,0.7177,0.7239,0.7175,0.6722,0.606,0.551,0.5032,0.4697,0.0,0.0,0.0,0.0,0.0,0.0,0.2388,0.0,0.0,0.0,0.0,0.0,0.0,0.0,0.0,0.0,0.0,0.0,0.0,0.0,0.0,0.0,0.0,0.0,0.0,0.0,0.0,0.0,0.0,0.0,0.0,0.0,0.0,0.0,0.0,0.0,0.1475,0.4791,0.7047,0.6894,0.6759,0.6502,0.6033,0.5792,0.555,0.529,0.481,0.4482,0.4518,0.1603,0.0,0.0,0.0,0.0,0.0,0.0,0.0,0.0,0.0,0.0,0.0,0.0,0.0,0.0,0.0,0.0,0.0,0.0,0.0,0.0,0.0,0.0,0.0,0.0,0.0,0.0,0.0,0.0,0.0,0.5485,0.561,0.5468,0.5709,0.5728,0.0,0.0,0.0,0.0,0.0,0.0,0.5587,0.5912,0.613,0.6291,0.6549,0.6661,0.6702,0.6742,0.6892,0.7156,0.7261,0.7394,0.7546,0.7756,0.7749,0.7826,0.7884,0.7645,0.7144,0.6395,0.5735,0.5302,0.5058,0.4327,0.0,0.1284,0.1123,0.2125,0.4384,0.371,0.1695,0.1098,0.0,0.0,0.0,0.0,0.0,0.0,0.0,0.0,0.0,0.0,0.0,0.0,0.0,0.0,0.0,0.0,0.0,0.0,0.0,0.0,0.0,0.0,0.0,0.0,0.0,0.0,0.0,0.3068,0.5426,0.5889,0.6396,0.6508,0.6089,0.5461,0.5135,0.5369,0.5005,0.4296,0.338,0.1177,0.0,0.0,0.0,0.0,0.0,0.0,0.0,0.0,0.0,0.0,0.0,0.0,0.0,0.0,0.0,0.0,0.0,0.0,0.0,0.0,0.0,0.0,0.0,0.0,0.0,0.0,0.0,0.0,0.0,0.0,0.0,0.5668,0.587,0.0,0.0,0.0,0.0,0.4958,0.5541,0.6019,0.6208,0.626,0.6255,0.6338,0.6781,0.7177,0.7326,0.7468,0.7617,0.7767,0.7773,0.7858,0.8007,0.8014,0.8014,0.7997,0.7851,0.7702,0.7495,0.692,0.6659,0.6585,0.6345,0.3739,0.0359,0.1655,0.4061,0.6764,0.6897,0.6897,0.6357,0.4132,0.1858,0.0,0.0,0.0,0.0,0.0,0.0,0.0,0.0,0.0,0.0,0.0,0.0,0.0,0.0,0.0,0.0,0.0,0.0,0.0,0.0,0.0,0.0,0.0,0.0,0.0,0.0,0.0249,0.1201,0.3528,0.5552,0.6566,0.6342,0.4428,0.3867,0.5284,0.5366,0.3789,0.0393,0.0056,0.0,0.0,0.0,0.0,0.0,0.0,0.0,0.0,0.0,0.0,0.0,0.0,0.0,0.0,0.0,0.0,0.0,0.0,0.0,0.0,0.0,0.0,0.0,0.0,0.0,0.0,0.0,0.0,0.0,0.0,0.0,0.6282,0.6275,0.0,0.0,0.5799,0.5729,0.5292,0.5089,0.5767,0.7339,0.7418,0.7413,0.7411,0.7614,0.7746,0.7801,0.7855,0.7909,0.796,0.796,0.7987,0.8038,0.8038,0.8038,0.8035,0.798,0.7875,0.7716,0.7537,0.7166,0.6704,0.6593,0.55,0.3812,0.1602,0.1545,0.299,0.6029,0.7122,0.6925,0.6087,0.4262,0.229,0.2292,0.1256,0.0,0.0,0.0,0.0,0.0,0.0,0.0,0.0,0.0,0.0,0.0,0.0,0.0,0.0,0.0,0.0,0.0,0.0,0.0,0.0,0.0,0.0,0.0,0.0,0.0352,0.1201,0.1944,0.343,0.6056,0.5564,0.4201,0.2082,0.1951,0.1352,0.0056,0.0,0.0,0.0,0.0,-0.1159,0.0,0.0,0.0,0.0,0.0,0.0,0.0,0.0,0.0,0.0,0.0,0.0,0.0,0.0,0.0,0.0,0.0,0.0,0.0,0.0,0.0,0.0,0.0,0.0,0.0,0.0,0.6303,0.7026,0.6959,0.6659,0.6162,0.6218,0.61,0.5692,0.552,0.6155,0.7891,0.7963,0.799,0.7986,0.8038,0.8116,0.8116,0.8163,0.8163,0.8116,0.8163,0.8163,0.8116,0.8116,0.8116,0.8113,0.8062,0.798,0.7889,0.7889,0.7567,0.7071,0.7048,0.6563,0.5546,0.235,0.0679,0.0431,0.3596,0.5824,0.7201,0.7253,0.6172,0.4762,0.4769,0.3646,0.2025,0.0446,0.0,0.0,0.0,0.0,0.0,0.0,0.0,0.0,0.0,0.0,0.0,0.0,0.0,0.0,0.0,0.0,0.0,0.0,0.0,0.0,0.0,0.0,0.0,0.0,0.0,0.1147,0.394,0.4144,0.2984,0.0189,0.0,0.0,0.0,0.0,0.0,0.0,-0.1199,-0.2905,-0.5065,0.0,0.0,0.0,0.0,0.0,0.0,0.0,0.0,0.0,0.0,0.0,0.0,0.0,0.0,0.0,0.0,0.0,0.0,0.0,0.0,0.0,0.0,0.0,0.0,0.4087,0.7353,0.7934,0.7995,0.7687,0.6879,0.6985,0.6896,0.6412,0.683,0.7403,0.7952,0.8032,0.8055,0.8055,0.8201,0.8279,0.8279,0.8414,0.8414,0.8279,0.8418,0.8411,0.8279,0.8279,0.8279,0.8269,0.8113,0.8045,0.8045,0.8041,0.795,0.7804,0.7662,0.6643,0.502,0.408,0.2185,0.0,0.0095,0.3228,0.724,0.7547,0.7361,0.7073,0.6997,0.7013,0.6146,0.1528,0.0097,0.0,0.0,0.0,0.0,0.0,0.0,0.0,0.0,0.0,0.0,0.0,0.0,0.0,0.0,0.0,0.0,0.0,0.0,0.0,0.0,0.0,0.0,0.0,0.0,0.0,0.0,0.0,0.0,0.0,0.0,0.0,0.0,0.0,0.0,0.0,-0.3433,-0.498,-0.4521,0.0,0.0,0.0,0.0,0.0,0.0,0.0,0.0,0.0,0.0,0.0,0.0,0.0,0.0,0.0,0.0,0.0,0.0,0.0,0.0,0.0,0.0,0.0,0.0,0.443,0.7963,0.8539,0.8614,0.8543,0.8306,0.835,0.8327,0.8153,0.8354,0.8496,0.8643,0.8488,0.836,0.836,0.8508,0.8529,0.8529,0.8462,0.8462,0.8425,0.8462,0.8462,0.8425,0.8425,0.8425,0.8414,0.8269,0.8208,0.8197,0.8085,0.8014,0.7963,0.7931,0.7525,0.6868,0.6792,0.3947,0.0291,0.2195,0.2491,0.2612,0.6309,0.7445,0.707,0.5142,0.579,0.686,0.5472,0.2668,0.0,0.0,0.0,0.0,0.0,0.0,0.0,0.0,0.0,0.0,0.0,0.0,0.0,0.0,0.0,0.0,0.0,0.0,0.0,0.0,0.0,0.0,0.0,0.0,0.0,0.0,0.0,0.0,0.0,0.0,0.0,0.0,0.0,0.0,0.0,-0.0988,-0.2463,0.0,0.0,0.0,0.0,0.0,0.0,0.0,0.0,0.0,0.0,0.0,0.0,0.0,0.0,0.0,0.0,0.0,0.0,0.0,0.0,0.0,0.0,0.2335,0.4062,0.4119,0.6606,0.8551,0.9253,0.9074,0.8954,0.8869,0.8937,0.8957,0.9205,0.9223,0.9198,0.9103,0.8928,0.8783,0.8783,0.8841,0.8872,0.8872,0.8825,0.8825,0.8764,0.8764,0.8733,0.8672,0.8608,0.8543,0.0,0.8333,0.8235,0.8167,0.8075,0.8038,0.0,0.0,0.0,0.0,0.0,0.463,0.0198,0.1761,0.275,0.3466,0.4101,0.5856,0.7453,0.5961,0.4826,0.4081,0.4081,0.2104,0.0,0.0,0.0,0.0,0.0,0.0,0.0,0.0,0.0,0.0,0.0,0.0,0.0,0.0,0.0,0.0,0.0,0.0,0.0,0.0,0.0,0.0,0.0,0.0,0.0,0.0,0.0,0.0,0.0,0.0,0.0,0.0,0.0,0.0,0.0,0.0,-0.0882,0.0,0.0,0.0,0.0,-0.3677,-0.4026,0.0,0.0,0.0,0.0,0.0,0.0,0.0,0.0,0.0,0.0,0.0,0.0,0.0,0.0,0.0,0.0,0.5981,0.9827,0.9743,0.9396,0.9286,0.9738,0.9313,0.9039,0.9023,0.9036,0.9278,0.9743,0.9745,0.9667,0.9412,0.0,0.0,0.0,0.0,0.9178,0.9178,0.9313,0.9313,0.9178,0.9161,0.9086,0.8957,0.8804,0.8652,0.8499,0.8357,0.8208,0.8065,0.8045,0.8041,0.7949,0.7659,0.7769,0.7982,0.8016,0.4643,0.0,0.0,0.0,0.0,0.2214,0.3729,0.7098,0.7098,0.3739,0.0,0.0,0.0,0.0,0.0,0.0,0.0,0.0,0.0,0.0,0.0,0.0,0.0,0.0,0.0,0.0,0.0,0.0,0.0,0.0,0.0,0.0,0.0,0.0,0.0,0.0,0.0,0.0,0.0,0.0,0.0,0.0,0.0,0.0,0.0,0.0,0.0,0.0,0.0,0.0,-0.0,-0.3209,-0.4677,-0.4491,-0.4163,-0.2718,0.0,0.0,0.0,0.0,0.0,0.0,0.0,0.0,0.0,0.0,0.0,0.0,0.0,0.0,0.0,0.641,0.8695,0.9779,0.9617,0.9859,1.003,0.9834,0.9714,0.9638,0.9634,0.9614,0.9638,0.975,0.959,0.9586,0.9463,0.9428,0.0,0.9411,0.9323,0.9337,0.9337,0.9367,0.9367,0.9337,0.0,0.0,0.9106,0.896,0.8811,0.8659,0.8506,0.8357,0.8214,0.8092,0.7955,0.7775,0.5632,0.605,0.8019,0.8042,0.4556,0.0,0.0,0.0705,0.212,0.5358,0.4243,0.1515,0.1515,0.0808,0.0,0.0,0.0,0.0,0.0,0.0,0.0,0.0,0.0,0.0,0.0,0.0,0.0,0.0,0.0,0.0,0.0,0.0,0.0,0.0,0.0,0.0,0.0,0.0,0.0,0.0,0.0,0.0,0.0,0.0,0.0,0.0,0.0,0.0,0.0,0.0,0.0,0.0,0.0,0.0,-0.0,-0.0702,-0.2232,-0.4417,-0.2017,-0.1887,0.0,0.0,0.0,0.0,0.0,0.0,0.0,0.0,0.0,0.0,0.0,0.0,0.0,0.0,0.5919,0.8832,0.9658,0.9806,0.9829,0.9992,1.0044,0.9847,0.9785,0.9802,0.9844,0.9837,0.9806,0.9849,0.9673,0.968,0.9605,0.9602,0.9602,0.9602,0.9602,0.9602,0.9602,0.9602,0.9564,0.9493,0.934,0.9225,0.9147,0.9005,0.8815,0.8591,0.8516,0.8401,0.8265,0.8194,0.7308,0.6044,0.5952,0.5144,0.4034,0.4046,0.4046,0.3636,0.0907,0.0,0.0404,0.3131,0.2222,0.0,0.0,0.0,0.0,0.0,0.0,0.0,0.0,0.0,0.0,0.0,0.0,0.0,0.0,0.0,0.0,0.0,0.0,0.0,0.0,0.0,0.0,0.0,0.0,0.0,0.0,0.0,0.0,0.0,0.0,0.0,0.0,0.0,0.0,0.0,0.0,0.0,0.0,0.0,0.0,0.0,0.0,-0.0718,-0.224,-0.0717,-0.0782,-0.2224,-0.2264,-0.3085,0.0,0.0,0.0,0.0,0.0,0.0,0.0,0.0,0.0165,0.0787,0.1359,0.1608,0.1012,0.5315,0.909,0.9628,0.9726,0.9787,1.0023,0.9967,0.9787,0.9781,0.9898,0.9881,0.9754,0.9767,0.9822,0.9822,0.9822,0.9822,0.9822,0.9822,0.9822,0.9822,0.9822,0.9822,0.9822,0.9822,0.9764,0.9649,0.9496,0.9347,0.9191,0.9049,0.8815,0.8523,0.8496,0.8418,0.8309,0.8292,0.6559,0.4241,0.6995,0.4746,0.0,0.0,0.2726,0.5871,0.1515,0.0,0.0,0.0,0.0,0.0,0.0,0.0,0.0,0.0,0.0,0.0,0.0,0.0,0.0,0.0,0.0,0.0,0.0,0.0,0.0,0.0,0.0,0.0,0.0,0.0,0.0,0.0,0.0,0.0,0.0,0.0,0.0,0.0,0.0,0.0,0.0,0.0,0.0,0.0,0.0,-0.0321,-0.1031,-0.037,-0.0182,-0.0515,-0.0847,-0.2025,-0.4053,-0.1886,-0.0918,-0.1093,-0.3419,-0.4495,0.5932,0.5851,0.529,0.3251,0.1367,0.1401,0.0,0.0,0.084,0.377,0.6295,0.7164,0.4826,0.4928,0.6366,0.9051,0.9676,0.9748,0.9639,0.9863,0.9905,0.9794,1.0309,1.0354,0.9849,0.9832,0.9822,0.9822,0.9822,0.9822,0.9822,0.9822,0.9822,0.9822,0.9822,0.9822,0.9822,0.9822,0.9812,0.9795,0.9652,0.9503,0.9351,0.9198,0.8967,0.8676,0.854,0.8472,0.8448,0.8123,0.64,0.4215,0.6929,0.475,0.0,0.0,0.0404,0.0808,0.0202,0.0,0.0,0.0,0.0,0.0,0.0,0.0,0.0,0.0,0.0,0.0,0.0,0.0,0.0,0.0,0.0,0.0,0.0,0.0,0.0,0.0,0.0,0.0,0.0,0.0,0.0,0.0,0.0,0.0,0.0,0.0,0.0,0.0,0.0,0.0,0.0,0.0,0.0,0.0,0.0,-0.144,-0.4668,-0.169,-0.0758,-0.2375,-0.399,-0.3998,-0.2448,-0.3508,-0.4261,-0.4793,-0.4575,-0.4509,0.6427,0.6254,0.5624,0.0,0.1414,0.1678,0.7992,0.7443,0.5539,0.4976,0.7267,0.9064,0.7718,0.7679,0.8218,0.0,0.9871,1.0002,0.9869,1.0019,1.0016,1.0054,1.0151,1.0039,0.9804,0.9751,0.9822,0.9822,0.9822,0.9822,0.9822,0.9822,0.9822,0.9822,0.9822,0.9822,0.9822,0.9822,0.9778,0.9696,0.9639,0.9483,0.9245,0.9184,0.8991,0.8706,0.8642,0.8564,0.8479,0.8435,0.7531,0.61,0.4161,0.2017,0.0,0.0,0.0,0.0,0.0,0.0,0.0,0.0,0.0,0.0,0.0,0.0,0.0,0.0,0.0,0.0,0.0,0.0,0.0,0.0,0.0,0.0,0.0,0.0,0.0,0.0,0.0,0.0,0.0,0.0,0.0,0.0,0.0,0.0,0.0,0.0,0.0,0.0,0.0,0.0,0.0,0.0,0.0,0.0,-0.1994,-0.3811,-0.5353,-0.3931,-0.2974,-0.2709,-0.4467,-0.4929,-0.3878,-0.4323,-0.4606,-0.4889,-0.4612,-0.4518,0.6641,0.6645,0.6283,0.4741,0.2875,0.2869,0.8394,0.9808,0.9054,0.6646,0.7995,0.953,0.9429,0.9581,0.9755,0.969,0.9834,1.0049,1.0177,1.0134,1.0081,1.0173,0.9975,0.9747,0.9587,0.9717,0.984,0.9761,0.9764,0.9781,0.9819,0.9822,0.9822,0.9822,0.9822,0.9822,0.9822,0.9822,0.9771,0.9666,0.9629,0.9469,0.9211,0.913,0.8977,0.8774,0.8774,0.8686,0.8543,0.852,0.8431,0.7673,0.2937,0.0604,0.0,0.0,0.0,0.0,0.0,0.0,0.0,0.0,0.0,0.0,0.0,0.0,0.0,0.0,0.0,0.0,0.0,0.0,0.0,0.0,0.0,0.0,0.0,0.0,0.0,0.0,0.0,0.0,0.0,0.0,0.0,0.0,0.0,0.0,0.0,0.0,0.0,0.0,0.0,0.0,0.0,-0.1183,-0.1883,-0.1749,-0.3663,-0.496,-0.547,-0.5413,-0.4794,-0.3467,-0.4742,-0.5325,-0.5116,-0.4835,-0.4678,-0.4479,-0.4684,-0.4634,0.6393,0.6986,0.7636,0.7548,0.6103,0.5578,0.8825,0.9649,0.9706,0.9344,0.9273,0.9228,0.9364,0.9391,0.9483,0.9526,0.9695,0.9921,1.0305,1.0048,0.9804,0.9768,0.9829,0.9532,0.0,0.9464,0.9817,0.9849,0.9741,0.9799,0.9815,0.9822,0.9822,0.9822,0.9822,0.9822,0.9822,0.9822,0.9819,0.9812,0.9676,0.9527,0.9364,0.9076,0.894,0.893,0.893,0.8845,0.8693,0.8543,0.8525,0.82,0.5065,0.2314,0.0,0.0,0.0,0.0,0.0,0.0,0.0,0.0,0.0,0.0,0.0,0.0,0.0,0.0,0.0,0.0,0.0,0.0,0.0,0.0,0.0,0.0,0.0,0.0,0.0,0.0,0.0,0.0,0.0,0.0,0.0,0.0,0.0,0.0,0.0,0.0,0.0,0.0,0.0,0.0,0.0,-0.4264,-0.6688,-0.6153,-0.4284,-0.3895,-0.5614,-0.5476,-0.5391,-0.5352,-0.5369,-0.5294,-0.5125,-0.5262,-0.506,-0.4543,-0.5104,-0.5039,0.7224,0.7722,0.8151,0.826,0.8004,0.8133,0.9432,0.9693,0.9717,0.9418,0.9266,0.9233,0.9307,0.9137,0.9154,0.9585,0.9919,1.0148,1.0022,1.019,0.9951,0.8791,0.8654,0.0,0.0,0.0,0.0,0.9178,0.9521,0.9766,0.9796,0.9771,0.9822,0.9822,0.9822,0.9822,0.9822,0.9822,0.9771,0.9556,0.9425,0.9279,0.9222,0.9028,0.894,0.894,0.894,0.8852,0.8699,0.8547,0.8525,0.82,0.5166,0.2313,0.0,0.0,0.0,0.0,0.0,0.0,0.0,0.0,0.0,0.0,0.0,0.0,0.0,0.0,0.0,0.0,0.0,0.0,0.0,0.0,0.0,0.0,0.0,0.0,0.0,0.0,0.0,0.0,0.0,0.0,0.0,0.0,0.0,0.0,0.0,0.0,0.0,0.0,0.0,0.0,0.0,-0.4393,-0.6912,-0.637,-0.5618,-0.5405,-0.5909,-0.5664,-0.5503,-0.5515,-0.5416,-0.5342,-0.5284,-0.5378,-0.529,-0.5074,-0.533,-0.529,0.7919,0.8353,0.874,0.8937,0.9309,0.9613,0.9781,0.9819,0.9724,0.9306,0.9059,0.8934,0.8853,0.8727,0.8855,0.94,0.9828,1.0105,0.984,1.0101,0.9982,0.8821,0.8307,0.8003,0.0,0.0,0.0,0.8601,0.9144,0.9569,0.9846,0.9744,0.9822,0.9822,0.9822,0.9822,0.9822,0.9822,0.972,0.9406,0.9327,0.9178,0.9072,0.8923,0.8859,0.8855,0.8801,0.8689,0.8547,0.8452,0.8347,0.8126,0.6181,0.3225,0.0,0.0,0.0,0.0,0.0,0.0,0.0,0.0,0.0,0.0,0.0,0.0,0.0,0.0,0.0,0.0,0.0,0.0,0.0,0.0,0.0,0.0,0.0,0.0,0.0,0.0,0.0,0.0,0.0,0.0,0.0,0.0,0.0,0.0,0.0,0.0,0.0,0.0,0.0,0.0,0.0,-0.3634,-0.6028,-0.6593,-0.6502,-0.6339,-0.6132,-0.5827,-0.564,-0.5593,-0.544,-0.5428,-0.5428,-0.5397,-0.5397,-0.5422,-0.5428,-0.5389,0.8455,0.8967,0.9486,0.9771,1.0059,1.0229,1.0073,0.9914,0.9629,0.9028,0.8662,0.8457,0.0,0.0,0.8403,0.8704,0.9273,0.9743,0.9662,0.9731,0.9835,0.0,0.0,0.0,0.0,0.0,0.0,0.8023,0.0,0.9202,0.9724,0.9747,0.9822,0.9822,0.9815,0.9812,0.9812,0.9795,0.9646,0.9371,0.9361,0.9208,0.8923,0.8784,0.8713,0.8693,0.8554,0.8408,0.8272,0.8282,0.8106,0.7785,0.7915,0.4752,0.0,0.0,0.0,0.0,0.0,0.0,0.0,0.0,0.0,0.0,0.0,0.0,0.0,0.0,0.0,0.0,0.0,0.0,0.0,0.0,0.0,0.0,0.0,0.0,0.0,0.0,0.0,0.0,0.0,0.0,0.0,0.0,0.0,0.0,0.0,0.0,0.0,0.0,0.0,0.0,0.0,-0.2236,-0.461,-0.699,-0.6891,-0.6573,-0.6285,-0.5976,-0.5749,-0.5613,-0.5454,-0.5439,-0.5439,-0.5432,-0.5428,-0.5428,-0.5428,-0.5428,0.9181,0.9595,0.9924,1.0117,1.0134,1.0066,0.9914,0.968,0.9293,0.8584,0.8197,0.7828,0.0,0.0,0.0,0.7056,0.7774,0.0,0.8489,0.92,0.0,0.9225,0.0,0.8716,0.862,0.8712,0.0,0.0,0.8856,0.9126,0.972,0.9764,0.9839,0.9822,0.984,0.9789,0.9789,0.9559,0.9519,0.9443,0.9216,0.895,0.8771,0.8845,0.8757,0.8547,0.8618,0.8506,0.8272,0.8282,0.696,0.5231,0.7193,0.4752,0.0,0.0,0.0,0.0,0.0,0.0,0.0,0.0,0.0,0.0,0.0,0.0,0.0,0.0,0.0,0.0,0.0,0.0,0.0,0.0,0.0,0.0,0.0,0.0,0.0,0.0,0.0,0.0,0.0,0.0,0.0,0.0,0.0,0.0,0.0,0.0,0.0,0.0,0.0,0.0,0.0,-0.2236,-0.461,-0.699,-0.6891,-0.6617,-0.6427,-0.6132,-0.5956,-0.5918,-0.5664,-0.5532,-0.5532,-0.5416,-0.5428,-0.5428,-0.5428,-0.5428,0.9869,1.0215,1.0466,1.0551,1.0361,1.0059,0.971,0.9347,0.8838,0.7957,0.7587,0.0,0.6989,0.0,0.0,0.0,0.0,0.0,0.4469,0.7614,0.9652,0.0,0.9302,0.0,0.9281,0.9349,0.8108,0.0,0.771,0.9486,0.9758,0.984,0.9758,0.9744,0.9836,0.9631,0.9389,0.9221,0.9218,0.9384,0.9185,0.892,0.871,0.873,0.8615,0.8397,0.0,0.834,0.8194,0.8211,0.7238,0.5648,0.4849,0.2625,0.0,0.0,0.0,0.0,0.0,0.0,0.0,0.0,0.0,0.0,0.0,0.0,0.0,0.0,0.0,0.0,0.0,0.0,0.0,0.0,0.0,0.0,0.0,0.0,0.0,0.0,0.0,0.0,0.0,0.0,0.0,0.0,0.0,0.0,0.0,0.0,0.0,0.0,0.0,0.0,0.0,-0.2236,-0.4628,-0.6991,-0.6902,-0.6732,-0.658,-0.6288,-0.6098,-0.603,-0.58,-0.5684,-0.5681,-0.5535,-0.546,-0.5389,-0.5393,-0.5396,1.0473,1.0748,1.0948,1.0948,1.0582,1.0066,0.9483,0.8957,0.8306,0.7288,0.0,0.684,0.6711,0.6485,0.656,0.7366,0.0,0.031,0.1131,0.6184,0.9777,0.9846,0.9766,0.9813,0.9835,0.9821,0.7421,0.1761,0.5716,0.8546,0.854,0.9261,0.972,0.9676,0.9662,0.9449,0.8935,0.882,0.8997,0.9123,0.9103,0.895,0.8676,0.8564,0.8421,0.8255,0.0,0.0,0.7478,0.7808,0.8026,0.751,0.212,0.0,0.0,0.0,0.0,0.0,0.0,0.0,0.0,0.0,0.0,0.0,0.0,0.0,0.0,0.0,0.0,0.0,0.0,-0.0505,-0.1111,-0.1111,-0.1111,-0.0908,-0.0202,0.0,0.0,0.0,0.0,0.0,0.0,0.0,0.0,0.0,0.0,-0.0301,-0.0987,-0.0393,0.0,0.0,0.0,-0.0275,-0.09,-0.2593,-0.4559,-0.692,-0.6937,-0.6868,-0.6736,-0.6444,-0.6224,-0.6091,-0.5918,-0.583,-0.583,-0.5688,-0.5547,-0.5471,-0.541,-0.542,1.0785,1.0907,1.0948,1.0948,1.0419,0.9774,0.93,0.8557,0.0,0.0,0.6728,0.6563,0.6377,0.6332,0.6024,0.5244,0.2267,0.1877,0.7391,0.9091,0.9835,0.0,0.0,0.0,0.0,0.0,0.0,0.0,0.0,0.0,0.1757,0.6361,0.8997,0.9069,0.903,0.896,0.8941,0.8712,0.8653,0.8974,0.8849,0.8693,0.8523,0.8625,0.8465,0.8016,0.0,0.0,0.4826,0.7086,0.8026,0.751,0.212,0.0,0.0,0.0,0.0,0.0,0.0,0.0,0.0,0.0,0.0,0.0,0.0,0.0,0.0,0.0,0.0,0.0,0.0,-0.334,-0.6606,-0.6592,-0.6586,-0.5358,-0.1006,0.0,0.0,0.0,0.0,0.0,0.0,0.0,0.0,0.0,0.0,-0.1613,-0.6047,-0.2776,0.0,0.0,0.0,-0.1559,-0.5505,-0.4478,-0.4556,-0.6996,-0.6934,-0.6915,-0.6892,-0.6597,-0.6424,-0.6396,-0.6129,-0.5989,-0.5989,-0.5913,-0.5837,-0.5616,-0.5445,-0.5374,1.0999,1.106,1.1043,1.0965,1.0324,0.951,0.8747,0.0,0.0,0.0,0.6146,0.6127,0.5902,0.6036,0.0,0.5534,0.4447,0.4939,0.8371,0.945,0.0,0.9789,0.9851,0.0,0.0,0.0,0.0,0.0,0.0,0.0,0.4516,0.7315,0.8853,0.8928,0.8544,0.8402,0.8481,0.8481,0.8518,0.8588,0.8625,0.8516,0.8374,0.8448,0.8336,0.7882,0.0,0.0,0.2013,0.333,0.384,0.3536,0.101,0.0,0.0,0.0,0.0,0.0,0.0,0.0,0.0,0.0,0.0,0.0,0.0,-0.1918,-0.4144,-0.4144,-0.3126,-0.2114,-0.2117,-0.4036,-0.6274,-0.7714,-0.8016,-0.6877,-0.2914,-0.2111,-0.2113,-0.2113,-0.0906,0.0,0.0,0.0,0.0,0.0,0.0,-0.1918,-0.7305,-0.5478,-0.3315,-0.2194,-0.1962,-0.2757,-0.5108,-0.5407,-0.5905,-0.6996,-0.7001,-0.7007,-0.6932,-0.6787,-0.6634,-0.6474,-0.6332,-0.6224,-0.6149,-0.607,-0.5998,-0.5995,-0.5761,-0.5696,1.107,1.1118,1.1084,1.0938,1.0198,0.9252,0.8265,0.7499,0.0,0.5783,0.5654,0.5684,0.5464,0.0,0.5941,0.0,0.6616,0.7265,0.81,0.7903,0.8157,0.0,0.9679,0.0,0.0,0.0,0.0,0.0,0.0,0.0,0.0,0.8732,0.8721,0.8657,0.8249,0.8036,0.8004,0.8223,0.8344,0.8266,0.8452,0.8484,0.8272,0.8272,0.8204,0.7885,0.0,0.0,0.0,0.0,0.0,0.0,0.0,0.0,0.0,0.0,0.0,0.0,0.0,0.0,0.0,0.0,0.0,0.0,0.0,-0.3739,-0.8026,-0.8026,-0.6464,-0.4826,-0.4839,-0.4427,-0.4724,-0.739,-0.8002,-0.7472,-0.5329,-0.4824,-0.4824,-0.4824,-0.3115,-0.1508,-0.1005,-0.0403,0.0,0.0,0.0,-0.1918,-0.7305,-0.7493,-0.6597,-0.4893,-0.4645,-0.453,-0.4395,-0.6079,-0.7118,-0.7081,-0.7061,-0.7092,-0.6976,-0.6946,-0.6817,-0.6573,-0.6505,-0.6417,-0.6305,-0.6152,-0.6156,-0.631,-0.6033,-0.604,1.089,1.0968,1.0931,1.0778,0.9961,0.8991,0.8214,0.0,0.6352,0.5722,0.5498,0.5457,0.5655,0.5577,0.0,0.0,0.0,0.6915,0.8568,0.4278,0.2953,0.8314,0.0,0.0,0.0,0.0,0.0,0.0,0.0,0.0,0.0,0.8111,0.8115,0.8084,0.7988,0.7991,0.7975,0.8077,0.814,0.8266,0.835,0.8282,0.8272,0.8272,0.8204,0.7885,0.0,0.0,0.0,0.0,0.0,0.0,0.0,0.0,0.0,0.0,0.0,0.0,0.0,0.0,0.0,0.0,0.0,0.0,0.0,-0.3739,-0.8026,-0.8026,-0.7802,-0.7679,-0.7582,-0.5839,-0.4722,-0.7363,-0.7975,-0.7972,-0.7666,-0.7672,-0.7679,-0.7679,-0.7475,-0.6453,-0.4017,-0.1607,0.0,0.0,0.0,-0.1918,-0.7305,-0.7779,-0.7475,-0.7152,-0.7423,-0.7416,-0.6857,-0.7128,-0.7316,-0.7153,-0.7143,-0.7136,-0.7122,-0.6997,-0.6915,-0.6888,-0.6614,-0.6464,-0.6454,-0.6308,-0.6318,-0.6318,-0.6304,-0.6304,1.0544,1.0809,1.087,1.0538,0.9666,0.8665,0.7828,0.0,0.5925,0.542,0.5274,0.5233,0.5342,0.4475,0.4155,0.5362,0.4726,0.489,0.7014,0.4994,0.4676,0.8421,0.0,0.0,0.0,0.0,0.0,0.0,0.0,0.0,0.0,0.8024,0.7981,0.8029,0.7978,0.7981,0.8029,0.8029,0.8056,0.8109,0.8157,0.8133,0.8133,0.8133,0.8116,0.7885,0.0,0.0,0.0,0.0,0.0,0.0,0.0,0.0,0.0,0.0,-0.2019,-0.4853,-0.4853,-0.2723,0.0,0.0,0.0,0.0,0.0,-0.2621,-0.5952,-0.7591,-0.7982,-0.7962,-0.7975,-0.716,-0.6642,-0.7753,-0.7952,-0.7952,-0.7952,-0.7955,-0.7959,-0.7959,-0.7969,-0.7672,-0.6545,-0.5536,-0.4225,-0.2611,-0.2412,-0.3725,-0.7481,-0.7677,-0.7518,-0.7505,-0.757,-0.7564,-0.7434,-0.7316,-0.7255,-0.7278,-0.719,-0.7139,-0.7139,-0.7085,-0.7014,-0.6929,-0.681,-0.6702,-0.661,-0.6461,-0.6386,-0.6386,-0.6302,-0.6338,0.9947,1.0351,1.0517,1.0114,0.9256,0.8289,0.0,0.0,0.5689,0.5233,0.515,0.5196,0.5218,0.3378,0.2289,0.3607,0.272,0.2856,0.5678,0.5805,0.6269,0.0,0.0,0.0,0.0,0.0,0.0,0.0,0.0,0.0,0.0,0.0,0.7994,0.8038,0.8038,0.8038,0.8038,0.8038,0.8038,0.8038,0.8038,0.8038,0.8038,0.8038,0.7959,0.0,0.0,0.0,0.0,0.0,0.0,0.0,0.0,0.0,0.0,0.0,-0.3435,-0.8026,-0.8026,-0.5557,-0.2114,-0.0503,0.0,-0.0101,-0.0909,-0.2517,-0.4522,-0.7269,-0.7965,-0.8041,-0.7959,-0.7962,-0.7959,-0.8041,-0.8038,-0.8038,-0.8038,-0.8038,-0.8038,-0.8038,-0.7952,-0.7962,-0.7962,-0.7975,-0.7369,-0.5429,-0.5103,-0.5792,-0.7611,-0.7584,-0.7406,-0.7453,-0.7438,-0.7397,-0.7458,-0.7305,-0.7238,-0.7299,-0.72,-0.7139,-0.7139,-0.7139,-0.7092,-0.6993,-0.6949,-0.6875,-0.6766,-0.6614,-0.6515,-0.6471,-0.6369,-0.6302,0.9042,0.9493,0.9761,0.9462,0.8713,0.7851,0.0,0.6409,0.5834,0.5227,0.5276,0.542,0.5417,0.2473,0.0062,0.0062,0.0065,0.1297,0.4919,0.588,0.0,0.0,0.0,0.0,0.0,0.0,0.0,0.0,0.0,0.0,0.0,0.0,0.7986,0.8035,0.8038,0.8038,0.8038,0.8038,0.8038,0.8038,0.8038,0.8038,0.8038,0.8038,0.0,0.0,0.0,0.0,0.0,0.0,0.0,0.0,0.0,0.0,0.0,0.0,-0.3435,-0.8026,-0.8026,-0.7922,-0.6995,-0.1711,0.0,-0.0505,-0.3136,-0.3934,-0.4522,-0.7269,-0.7965,-0.8038,-0.8038,-0.8038,-0.8038,-0.8038,-0.8038,-0.8038,-0.8038,-0.8038,-0.8038,-0.8038,-0.8038,-0.8038,-0.8038,-0.7959,-0.7972,-0.7972,-0.7763,-0.7583,-0.7583,-0.7531,-0.7369,-0.7139,-0.7289,-0.7309,-0.7156,-0.7282,-0.7305,-0.7153,-0.7143,-0.7139,-0.7139,-0.7139,-0.7139,-0.7139,-0.7,-0.6929,-0.6926,-0.6773,-0.662,-0.6471,-0.6471,-0.6393,0.7685,0.8106,0.835,0.795,0.7524,0.6975,0.6342,0.57,0.5149,0.4925,0.4855,0.4782,0.4786,0.2158,0.0,0.0,0.0,0.1265,0.0,0.0,0.0,0.0,0.0,0.0,0.0,0.0,0.0,0.0,0.0,0.0,0.0,0.0,0.803,0.7983,0.799,0.8034,0.8034,0.8035,0.7986,0.7986,0.7991,0.8038,0.8038,0.8038,0.0,0.0,0.0,0.0,0.0,0.0,0.0,0.0,0.0,0.0,-0.0404,-0.4144,-0.5352,-0.5529,-0.7165,-0.7835,-0.7315,-0.4461,-0.195,-0.0495,-0.317,-0.399,-0.4518,-0.7244,-0.8048,-0.8038,-0.8038,-0.8038,-0.8038,-0.8038,-0.8038,-0.8038,-0.8038,-0.8038,-0.8038,-0.8038,-0.8038,-0.8333,-0.9217,-0.932,-0.962,-1.0498,-1.0426,-1.0018,-0.9168,-0.8808,-0.8238,-0.7383,-0.7278,-0.7238,-0.7292,-0.7248,-0.7238,-0.7295,-0.72,-0.7187,-0.7292,-0.7197,-0.719,-0.7295,-0.7149,-0.7075,-0.7071,-0.6926,-0.6722,-0.6471,-0.6373,-0.6302,0.6498,0.7048,0.7309,0.6973,0.6655,0.0,0.5856,0.53,0.4886,0.4697,0.4586,0.4161,0.3039,0.1274,0.0,0.0,0.0,0.0,0.0,0.0,0.0,0.0,0.0,0.0,0.0,0.0,0.0,0.0,0.0,0.0,0.0,0.0,0.7671,0.7667,0.7653,0.7695,0.7695,0.7689,0.7733,0.7832,0.7831,0.7875,0.7875,0.0,0.0,0.0,0.0,0.0,0.0,0.0,0.0,0.0,0.0,-0.1099,-0.3097,-0.6468,-0.6631,-0.5501,-0.7003,-0.7564,-0.7446,-0.6292,-0.3941,-0.2057,-0.4648,-0.5492,-0.5834,-0.7537,-0.8038,-0.8038,-0.8038,-0.8038,-0.8038,-0.8038,-0.8038,-0.8038,-0.8038,-0.8038,-0.8038,-0.8038,-0.8432,-0.9019,-0.9903,-1.0391,-1.0974,-1.175,-1.1582,-1.1199,-1.0453,-0.9985,-0.9311,-0.8095,-0.7867,-0.7681,-0.7278,-0.7193,-0.7231,-0.7444,-0.7258,-0.721,-0.7363,-0.7278,-0.7244,-0.7285,-0.7248,-0.72,-0.7139,-0.6997,-0.6831,-0.6637,-0.6434,-0.6339,0.0,0.6153,0.6522,0.6369,0.602,0.5713,0.5649,0.5064,0.0,0.4482,0.435,0.3327,0.0505,0.0,0.0,0.0,0.0,0.0,0.0,0.0,0.0,0.0,0.0,0.0,0.0,0.0,0.0,0.0,0.0,0.0,0.0,0.0,0.0,0.7004,0.7037,0.706,0.7073,0.7082,0.7282,0.7584,0.7597,0.76,0.76,0.0,0.0,0.0,0.0,0.0,0.0,0.0,0.0,-0.0,-0.0395,-0.3236,-0.7082,-0.7145,-0.7263,-0.7422,-0.7409,-0.7406,-0.7406,-0.7406,-0.596,-0.4702,-0.7205,-0.7972,-0.7982,-0.8048,-0.8038,-0.8038,-0.8038,-0.8038,-0.8038,-0.8038,-0.8038,-0.8038,-0.8038,-0.8038,-0.8137,-0.8137,-0.9213,-1.0194,-1.0293,-1.1253,-1.2017,-1.2119,-1.1822,-1.1532,-1.1441,-1.115,-1.0406,-0.917,-0.9034,-0.8629,-0.734,-0.7146,-0.7261,-0.755,-0.7299,-0.721,-0.7363,-0.736,-0.7292,-0.716,-0.7288,-0.7285,-0.7139,-0.6997,-0.6929,-0.6922,-0.6614,-0.6471,0.2741,0.0,0.5283,0.4999,0.4887,0.4796,0.0,0.2881,0.1809,0.4051,0.2637,0.0841,0.0112,0.0,0.0,0.0,0.0,0.0,0.0,0.0,0.0,0.0,0.0,0.0,0.0,0.0,0.0,0.0,0.0,0.0,0.0,0.0,0.0,0.6495,0.6508,0.6701,0.7088,0.7101,0.7121,0.7234,0.7253,0.7406,0.76,0.0,0.0,0.0,0.0,0.0,0.0,0.0,0.0,-0.0387,-0.4046,-0.6075,-0.7142,-0.7272,-0.7335,-0.7406,-0.7379,-0.7428,-0.7339,-0.726,-0.6982,-0.6923,-0.7557,-0.7882,-0.7972,-0.8045,-0.8038,-0.8038,-0.8038,-0.8038,-0.8038,-0.8038,-0.8038,-0.8038,-0.8038,-0.8825,-0.9509,-0.9509,-1.0583,-1.175,-1.2813,-1.3042,-1.3396,-1.4447,-1.4076,-1.3447,-1.2543,-1.2139,-1.1532,-1.0356,-0.9446,-0.8903,-0.8637,-0.7734,-0.717,-0.7244,-0.718,-0.721,-0.7363,-0.7258,-0.7234,-0.7316,-0.7238,-0.7177,-0.7139,-0.6997,-0.6929,-0.6922,-0.6614,-0.6471,-0.0056,0.1864,0.361,0.3487,0.3418,0.3646,0.4333,0.3256,0.213,0.2408,0.112,0.0,0.0,0.0,0.0,0.0,0.0,0.0,0.0,0.0,0.0,0.0,0.0,0.0,0.0,0.0,0.0,0.0,0.0,0.0,0.0,0.0,0.0,0.0,0.6277,0.6448,0.6736,0.6991,0.7104,0.7078,0.7068,0.7232,0.739,0.0,0.0,0.0,0.0,0.0,0.0,0.0,0.0,-0.0476,-0.5209,-0.7095,-0.7073,-0.7263,-0.722,-0.7292,-0.7295,-0.7265,-0.7278,-0.7269,-0.7346,-0.7546,-0.7667,-0.7788,-0.7963,-0.8024,-0.8038,-0.8038,-0.8038,-0.8038,-0.8038,-0.8038,-0.8038,-0.8038,-0.8038,-0.8958,-0.9799,-0.9981,-1.1298,-1.2747,-1.3741,-1.4042,-1.4387,-1.5279,-1.501,-1.4487,-1.3724,-1.3399,-1.2862,-1.1723,-1.041,-0.9569,-0.9234,-0.8001,-0.7302,-0.7438,-0.7387,-0.7417,-0.7567,-0.7431,-0.7356,-0.737,-0.7288,-0.721,-0.7139,-0.7061,-0.7024,-0.7017,-0.6715,-0.6614,-0.2567,-0.0723,0.128,0.1728,0.184,0.2179,0.354,0.3828,0.3091,0.0505,-0.0392,-0.056,-0.0112,0.0,0.0,0.0,0.0,0.0,0.0,0.0,0.0,0.0,0.0,0.0,0.0,0.0,0.0,0.0,0.0,0.0,0.0,0.0,0.0,0.0,0.6155,0.6179,0.6312,0.6716,0.7,0.6984,0.7093,0.707,0.7075,0.7099,0.0,0.0,0.0,0.0,0.0,0.0,0.0,-0.047,-0.4824,-0.6746,-0.709,-0.7131,-0.7068,-0.7139,-0.7139,-0.7139,-0.7163,-0.7292,-0.7353,-0.7417,-0.7668,-0.776,-0.7804,-0.7936,-0.8004,-0.8038,-0.8038,-0.8038,-0.8038,-0.8038,-0.8021,-0.8004,-0.8004,-0.8945,-0.9819,-1.0171,-1.1911,-1.3433,-1.3974,-1.4628,-1.505,-1.5291,-1.5124,-1.4856,-1.4556,-1.4522,-1.4141,-1.3106,-1.1679,-1.0512,-0.9549,-0.8367,-0.7695,-0.7763,-0.7665,-0.7645,-0.774,-0.7651,-0.7516,-0.7339,-0.736,-0.7295,-0.7139,-0.7139,-0.7139,-0.7132,-0.6861,-0.6888,-0.415,-0.3811,-0.285,-0.0279,0.0335,0.0392,0.0616,0.0672,0.0561,0.0112,-0.2018,-0.3033,-0.0447,0.0,0.0,0.0,0.0,0.0,0.0,0.0,0.0,0.0,0.0,0.0,0.0,0.0,0.0,0.0,0.0,0.0,0.0,0.0,0.0,0.0,0.0,0.5798,0.6257,0.64,0.6417,0.6396,0.6868,0.6963,0.6773,0.7001,0.7111,0.0,0.0,0.0,0.0,0.0,0.0,-0.0265,-0.3038,-0.531,-0.7128,-0.7078,-0.7143,-0.7139,-0.7139,-0.7139,-0.7143,-0.717,-0.7265,-0.738,-0.7428,-0.7529,-0.7638,-0.7662,-0.7848,-0.8038,-0.8038,-0.8038,-0.8038,-0.8038,-0.794,-0.7845,-0.7845,-0.9518,-1.1066,-1.1101,-1.3082,-1.4714,-1.4799,-1.4927,-1.4977,-1.5023,-1.499,-1.4856,-1.4556,-1.4522,-1.4336,-1.3913,-1.279,-1.1569,-1.0482,-0.9574,-0.8594,-0.7722,-0.7611,-0.755,-0.7444,-0.7543,-0.7465,-0.718,-0.7305,-0.7295,-0.7139,-0.7139,-0.7139,-0.7136,-0.697,-0.741,-0.4477,-0.4484,-0.4144,-0.279,-0.1228,0.0,0.0,0.0,-0.0449,-0.2079,-0.3548,0.0,0.0,0.0,0.0,0.0,0.0,0.0,0.0,0.0,0.0,0.0,0.0,0.0,0.0,0.0,0.0,0.0,0.0,0.0,0.0,0.0,0.0,0.0,0.0,0.0,0.5804,0.6165,0.6322,0.6318,0.6545,0.6795,0.6906,0.6894,0.6986,0.0,0.0,0.4384,0.0,0.0,-0.1479,-0.3838,-0.3636,-0.5008,-0.7091,-0.7061,-0.7139,-0.7139,-0.7139,-0.7139,-0.7139,-0.7139,-0.7187,-0.7261,-0.7346,-0.7421,-0.7495,-0.7577,-0.7753,-0.7916,-0.7916,-0.7977,-0.8038,-0.8038,-0.7923,-0.7811,-0.7811,-0.949,-1.1046,-1.1258,-1.3189,-1.4823,-1.5144,-1.507,-1.5017,-1.517,-1.5197,-1.509,-1.4796,-1.4897,-1.4943,-1.481,-1.3566,-1.258,-1.2048,-1.0537,-0.9068,-0.7928,-0.7838,-0.777,-0.7614,-0.7756,-0.7658,-0.7275,-0.7417,-0.7377,-0.7139,-0.7139,-0.7139,-0.7136,-0.6993,-0.7565,-0.4519,-0.4525,-0.4477,-0.4477,-0.279,-0.1007,-0.0676,-0.0283,-0.0739,0.0,0.0,0.0,0.0,0.0,0.0,0.0,0.0,0.0,0.0,0.0,0.0,0.0,0.0,0.0,0.0,0.0,0.0,0.0,0.0,0.0,0.0,0.0,0.0,0.0,0.0,0.0,0.516,0.4913,0.5331,0.6273,0.5288,0.5305,0.6212,0.662,0.6808,0.6869,0.5891,0.3399,-0.0083,-0.1104,-0.3605,-0.6734,-0.499,-0.5463,-0.6977,-0.7085,-0.7092,-0.7092,-0.7092,-0.7092,-0.7085,-0.7048,-0.7037,-0.7068,-0.7221,-0.7268,-0.7299,-0.7451,-0.7597,-0.7723,-0.7794,-0.7899,-0.7994,-0.8031,-0.7868,-0.7719,-0.7753,-0.9359,-1.083,-1.1091,-1.2868,-1.4563,-1.501,-1.5017,-1.5037,-1.5264,-1.5411,-1.5391,-1.5104,-1.5257,-1.5371,-1.5304,-1.4261,-1.3423,-1.2831,-1.0899,-0.9272,-0.8024,-0.7974,-0.7885,-0.7767,-0.7906,-0.779,-0.738,-0.7522,-0.7448,-0.7139,-0.7139,-0.7139,-0.7136,-0.7288,-0.8072,-0.4519,-0.4519,-0.4519,-0.4519,-0.4311,-0.3901,-0.2789,-0.1227,0.0,-0.2009,0.0,0.0,0.0,0.0,0.0,0.0,0.0,0.0,0.0,0.0,0.0,0.0,0.0,0.0,0.0,0.0,0.0,0.0,0.0,0.0,0.0,0.0,0.0,0.0,0.0,0.0,0.4556,0.1829,0.2417,0.6262,0.2316,0.1494,0.3459,0.5909,0.6843,0.6156,0.2189,0.0316,-0.0316,-0.423,-0.6015,-0.6352,-0.6476,-0.6592,-0.6753,-0.6892,-0.6946,-0.6946,-0.6946,-0.6946,-0.6919,-0.6776,-0.6732,-0.6759,-0.6915,-0.6959,-0.699,-0.7132,-0.7285,-0.7465,-0.774,-0.7821,-0.7865,-0.8007,-0.7712,-0.7441,-0.7584,-0.9169,-1.0641,-1.0656,-1.2558,-1.4128,-1.4175,-1.4616,-1.497,-1.499,-1.5451,-1.5691,-1.5404,-1.5384,-1.5291,-1.5023,-1.4887,-1.3956,-1.1838,-1.0375,-0.9041,-0.8018,-0.7784,-0.7628,-0.7614,-0.775,-0.7685,-0.7377,-0.7522,-0.7448,-0.7139,-0.7139,-0.7139,-0.7139,-0.8269,-0.9396,-0.4519,-0.4522,-0.4525,-0.4519,-0.4525,-0.4402,-0.4082,-0.3645,-0.3128,-0.2385,-0.3188,0.0,0.0,0.0,0.0,0.0,0.0,0.0,0.0,0.0,0.0,0.0,0.0,0.0,0.0,0.0,0.0,0.0,0.0,0.0,0.0,0.0,0.0,0.0,0.0,0.0,0.0,0.1496,0.0779,0.237,0.0788,0.0439,0.1238,0.223,0.2561,0.2121,-0.2066,-0.3887,-0.4023,-0.5675,-0.6384,-0.6539,-0.6671,-0.6712,-0.6709,-0.6766,-0.6787,-0.6787,-0.6787,-0.6787,-0.6776,-0.6719,-0.7257,-0.7934,-0.8001,-0.8602,-0.9221,-0.9291,-0.9367,-0.9194,-0.7873,-0.7607,-0.7695,-0.7753,-0.8113,-0.8461,-0.8528,-1.0205,-1.1638,-1.1638,-1.3083,-1.4355,-1.4355,-1.4696,-1.4963,-1.4963,-1.515,-1.5251,-1.5137,-1.5284,-1.5351,-1.5244,-1.5237,-1.4309,-1.1985,-1.1017,-0.9823,-0.7979,-0.7794,-0.7773,-0.7868,-0.7834,-0.7719,-0.7516,-0.7478,-0.7353,-0.7139,-0.7139,-0.7139,-0.7139,-0.8364,-0.9492,-0.4009,-0.42,-0.4515,-0.4718,-0.4846,-0.508,-0.5486,-0.5435,-0.4882,-0.3484,-0.4183,-0.4874,-0.4538,0.0,0.0,0.0,0.0,0.0,0.0,0.0,0.0,0.0,0.0,0.0,0.0,0.0,0.0,0.0,0.0,0.0,0.0,0.0,0.0,0.0,0.0,0.0,0.0,0.1015,0.0,0.0,0.0,0.0,-0.0071,-0.1219,-0.146,-0.1123,-0.4011,-0.564,-0.6335,-0.6271,-0.6378,-0.6524,-0.6529,-0.6563,-0.6566,-0.6614,-0.6627,-0.6627,-0.6627,-0.6869,-0.7104,-0.7057,-0.7923,-0.8937,-0.9059,-0.9695,-1.0429,-1.057,-1.0634,-1.0401,-0.8808,-0.8223,-0.8177,-0.8598,-0.8889,-0.9174,-0.9589,-1.1025,-1.2328,-1.2328,-1.3446,-1.4382,-1.4382,-1.4629,-1.4823,-1.4823,-1.4977,-1.5104,-1.5104,-1.5351,-1.5531,-1.5531,-1.5531,-1.4747,-1.2705,-1.1884,-1.0637,-0.8642,-0.8028,-0.7858,-0.7963,-0.7824,-0.7719,-0.7665,-0.7472,-0.7319,-0.7214,-0.7163,-0.7316,-0.7665,-0.8886,-1.0009,-0.3044,-0.3562,-0.4617,-0.5176,0.0,0.0,-0.7062,-0.6181,-0.5147,-0.538,-0.5071,-0.4713,-0.4521,0.0,0.0,0.0,0.0,0.0,0.0,0.0,0.0,0.0,0.0,0.0,0.0,0.0,0.0,0.0,0.0,0.0,0.0,0.0,0.0,0.0,0.0,0.0,0.0,-0.0058,-0.0,0.0,0.0,0.0,-0.0135,-0.3746,-0.4567,-0.3145,-0.3138,-0.4299,-0.6322,-0.6302,-0.6285,-0.6271,-0.6261,-0.6257,-0.6274,-0.6413,-0.6464,-0.6544,-0.6548,-0.7175,-0.8011,-0.7837,-0.8466,-0.9382,-0.9807,-0.9938,-1.0034,-1.0479,-1.0611,-1.0611,-1.0605,-0.9893,-0.9466,-1.0755,-0.9956,-0.9288,-1.0543,-1.1641,-1.2328,-1.2328,-1.3294,-1.4088,-1.4088,-1.4322,-1.4516,-1.4516,-1.501,-1.5391,-1.5398,-1.5651,-1.5825,-1.5832,-1.5832,-1.5242,-1.3974,-1.2596,-1.123,-1.0083,-0.8668,-0.7814,-0.7814,-0.7675,-0.7665,-0.7804,-0.7519,-0.737,-0.737,-0.7214,-0.7753,-0.889,-1.0009,-1.1214,-0.35,-0.3758,0.0,-0.4428,0.0,0.0,0.0,-0.6169,0.0,0.0,-0.4813,-0.4606,-0.4619,0.0,0.0,0.0,0.0,0.0,0.0,0.0,0.0,0.0,0.0,0.0,0.0,0.0,0.0,0.0,0.0,0.0,0.0,0.0,0.0,0.0,0.0,0.0,0.0,0.0,-0.2122,0.0,0.0,0.0,-0.0134,-0.3736,-0.5139,-0.4621,-0.3353,-0.3996,-0.5905,-0.5956,-0.5945,-0.5942,-0.5939,-0.5939,-0.5942,-0.5986,-0.6367,-0.6974,-0.7167,-0.7802,-0.8557,-0.8812,-0.9632,-1.0672,-1.1073,-1.178,-1.2543,-1.2705,-1.289,-1.2996,-1.2804,-1.1997,-1.1239,-1.0875,-1.1055,-1.1402,-1.1732,-1.2741,-1.3561,-1.3561,-1.3822,-1.4088,-1.4088,-1.4162,-1.4215,-1.4215,-1.4536,-1.493,-1.5344,-1.5471,-1.5605,-1.5805,-1.5832,-1.5242,-1.3974,-1.3515,-1.2352,-1.019,-0.9555,-0.8943,-0.797,-0.7733,-0.7617,-0.7662,-0.7363,-0.721,-0.7207,-0.7163,-0.7316,-0.7665,-0.8886,-1.0009,-0.356,-0.371,0.0,-0.477,-0.5415,-0.6001,-0.6469,0.0,0.0,0.0,0.0,0.0,0.0,0.0,0.0,0.0,0.0,0.0,0.0,0.0,0.0,0.0,0.0,0.0,0.0,0.0,0.0,0.0,0.0,0.0,0.0,0.0,0.0,0.0,0.0,0.0,0.0,0.0,0.0,-0.1814,-0.1765,-0.1888,-0.2203,-0.4397,-0.5413,-0.5341,-0.4318,-0.4586,-0.5745,-0.5806,-0.58,-0.58,-0.58,-0.58,-0.58,-0.58,-0.6369,-0.7095,-0.7275,-0.8225,-0.9478,-0.9701,-1.0599,-1.1701,-1.2058,-1.266,-1.3313,-1.344,-1.3681,-1.3841,-1.3547,-1.3092,-1.2638,-1.2145,-1.2163,-1.2413,-1.2936,-1.3555,-1.4088,-1.4088,-1.373,-1.3555,-1.3997,-1.33,-1.3039,-1.3997,-1.4436,-1.4863,-1.5337,-1.5498,-1.5631,-1.5812,-1.5832,-1.5242,-1.3974,-1.3392,-1.2231,-1.0096,-0.9509,-0.8825,-0.8038,-0.7756,-0.76,-0.76,-0.7299,-0.717,-0.7234,-0.7609,-0.8013,-0.8532,-0.9657,-1.0875,-0.338,-0.3585,-0.42,-0.562,-0.6043,0.0,-0.7167,-0.7478,-0.7379,-0.6451,0.0,0.0,0.0,0.0,0.0,0.0,0.0,0.0,0.0,0.0,0.0,0.0,0.0,0.0,0.0,0.0,0.0,0.0,0.0,0.0,0.0,0.0,0.0,0.0,0.0,0.0,0.0,0.0,0.0,0.0,-0.4529,-0.4789,-0.5304,-0.5356,-0.5379,-0.5395,-0.559,-0.5708,-0.5762,-0.5762,-0.5762,-0.5762,-0.5762,-0.5762,-0.5762,-0.5762,-0.6324,-0.7103,-0.7191,-0.8583,-1.0343,-1.0461,-1.1301,-1.2325,-1.2721,-1.2822,-1.2882,-1.3086,-1.338,-1.3534,-1.324,-1.3387,-1.3674,-1.3941,-1.3218,-1.2699,-1.3776,-1.4048,-1.4055,-1.4082,-1.3118,-1.2674,-1.3737,-1.2083,-1.1397,-1.3685,-1.4576,-1.5037,-1.5357,-1.5625,-1.5798,-1.5825,-1.5832,-1.5242,-1.3974,-1.2818,-1.1458,-1.0096,-0.8825,-0.8131,-0.8018,-0.775,-0.76,-0.76,-0.7299,-0.721,-0.735,-0.8271,-0.9318,-1.0438,-1.1466,-1.2681,-0.3497,-0.3581,0.0,-0.4338,-0.5681,-0.7245,-0.8774,-0.8978,-0.8369,0.0,0.0,0.0,0.0,0.0,0.0,0.0,0.0,0.0,0.0,0.0,0.0,0.0,0.0,0.0,0.0,0.0,0.0,0.0,0.0,0.0,0.0,0.0,0.0,0.0,0.0,0.0,-0.4515,-0.4519,-0.4484,0.0,-0.4521,-0.4591,-0.4693,-0.5189,-0.5411,-0.542,-0.545,-0.546,-0.5457,-0.5457,-0.5457,-0.5457,-0.5457,-0.5457,-0.5457,-0.5457,-0.6052,-0.6931,-0.7826,-0.8874,-1.0015,-1.1211,-1.1761,-1.2064,-1.2661,-1.2822,-1.2835,-1.2903,-1.3066,-1.3233,-1.2926,-1.3073,-1.332,-1.3387,-1.3233,-1.3124,-1.3605,-1.3741,-1.3808,-1.4041,-1.3118,-1.2413,-1.2674,-1.1558,-1.1186,-1.2871,-1.3986,-1.4803,-1.5331,-1.5451,-1.5578,-1.5805,-1.5832,-1.5242,-1.3974,-1.368,-1.2522,-1.0194,-0.9706,-0.9056,-0.7865,-0.7692,-0.76,-0.76,-0.7299,-0.7156,-0.719,-0.7418,-0.8101,-0.9235,-0.9492,-1.0697,-0.3336,0.0,0.0,-0.3836,0.0,-0.7413,-0.7806,-0.84,-0.8528,0.0,0.0,0.0,0.0,0.0,0.0,0.0,0.0,0.0,0.0,0.0,0.0,0.0,0.0,0.0,0.0,0.0,0.0,0.0,0.0,0.0,0.0,0.0,0.0,0.0,0.0,0.0,-0.4515,-0.4519,-0.4519,-0.4519,-0.4485,-0.4502,-0.4516,-0.5121,-0.5405,-0.541,-0.541,-0.5385,-0.5387,-0.5387,-0.5429,-0.5428,-0.5428,-0.5428,-0.5428,-0.5428,-0.5943,-0.6863,-0.7824,-0.8876,-0.9898,-1.1077,-1.1637,-1.1931,-1.2231,-1.2425,-1.2457,-1.1992,-1.2049,-1.2051,-1.13,-1.167,-1.2239,-1.21,-1.2674,-1.3253,-1.34,-1.344,-1.348,-1.3641,-1.2409,-1.1466,-1.1972,-1.1736,-1.151,-1.1723,-1.3355,-1.4629,-1.4937,-1.5224,-1.5451,-1.5605,-1.5164,-1.4364,-1.3011,-1.242,-1.1161,-0.9213,-0.9019,-0.8652,-0.7818,-0.7675,-0.7563,-0.7492,-0.7261,-0.7139,-0.7139,-0.7665,-0.8536,-0.9753,-1.0269,-1.1477,-0.3225,-0.3293,-0.3541,-0.3908,-0.5524,0.0,-0.6304,-0.7217,0.0,0.0,0.0,0.0,0.0,0.0,0.0,0.0,0.0,0.0,0.0,0.0,0.0,0.0,0.0,0.0,0.0,0.0,0.0,0.0,0.0,0.0,0.0,0.0,0.0,0.0,0.0,-0.44,-0.444,-0.4467,-0.4481,-0.4481,-0.4505,-0.4528,-0.4535,-0.5026,-0.5242,-0.5236,-0.5236,-0.5243,-0.5224,-0.5353,-0.5382,-0.5391,-0.5391,-0.5404,-0.5428,-0.5428,-0.5881,-0.6593,-0.7502,-0.8412,-0.9319,-1.0236,-1.0934,-1.1365,-1.1417,-1.1557,-1.162,-1.0789,-1.0726,-1.0616,-0.9575,-1.0046,-1.0841,-1.0842,-1.1827,-1.2824,-1.3041,-1.3173,-1.3227,-1.3273,-1.16,-1.0412,-1.0955,-1.1562,-1.1724,-1.0783,-1.2787,-1.4462,-1.4509,-1.4943,-1.5186,-1.5101,-1.4352,-1.325,-1.1653,-1.0583,-0.941,-0.8038,-0.8038,-0.797,-0.7818,-0.7675,-0.7529,-0.7373,-0.7217,-0.7139,-0.7139,-0.8105,-0.9144,-1.0351,-1.1295,-1.2425,-0.3487,0.0,-0.3766,0.0,-0.4981,-0.5528,0.0,0.0,0.0,0.0,0.0,0.0,0.0,0.0,0.0,0.0,0.0,0.0,0.0,0.0,0.0,0.0,0.0,0.0,0.0,0.0,0.0,0.0,0.0,0.0,0.0,0.0,-0.3591,-0.3587,-0.3922,0.0,-0.4077,-0.4372,-0.4495,-0.4499,-0.4515,-0.4473,-0.4494,-0.457,-0.4609,-0.4607,-0.4607,-0.4616,-0.4632,-0.52,-0.5417,-0.5424,-0.5424,-0.538,-0.5428,-0.5428,-0.5495,-0.5686,-0.6593,-0.6994,-0.7311,-0.8358,-0.8875,-0.9129,-0.9408,-0.9564,-0.9674,-0.9523,-0.9544,-0.9489,-0.9382,-0.9392,-0.9787,-1.0571,-1.0992,-1.1413,-1.2593,-1.3019,-1.3287,-1.3534,-1.1949,-0.9909,-0.7878,-0.9357,-1.0783,-1.0611,-1.2637,-1.4235,-1.4489,-1.4589,-1.4371,-1.3722,-1.352,-1.2585,-1.0471,-1.0096,-0.941,-0.8038,-0.8038,-0.797,-0.7818,-0.7675,-0.7529,-0.7373,-0.7217,-0.7139,-0.7139,-0.7228,-0.7925,-0.9148,-0.9323,-1.0529,-0.3351,-0.332,-0.3399,0.0,-0.429,-0.4915,-0.538,0.0,0.0,0.0,0.0,0.0,0.0,0.0,0.0,0.0,0.0,0.0,0.0,0.0,0.0,0.0,0.0,0.0,0.0,0.0,0.0,0.0,0.0,0.0,0.0,-0.3068,-0.3372,-0.3571,-0.3717,0.0,-0.3966,-0.3982,-0.4165,-0.4519,-0.4478,-0.4497,-0.4519,-0.4519,-0.4478,-0.4484,-0.4484,-0.4471,-0.4545,-0.4792,-0.4989,-0.5131,-0.5329,-0.5424,-0.5418,-0.5264,-0.5287,-0.5481,-0.6286,-0.6634,-0.6863,-0.7876,-0.8322,-0.8546,-0.8776,-0.9005,-0.906,-0.858,-0.8466,-0.8313,-0.7783,-0.8466,-0.9448,-0.982,-1.0795,-1.1806,-1.239,-1.2605,-1.2395,-1.147,-1.0664,-0.9666,-0.8187,-0.9443,-1.0783,-1.1466,-1.3039,-1.4135,-1.4262,-1.3877,-1.3407,-1.3232,-1.2093,-1.1029,-1.0079,-0.9312,-0.8627,-0.8038,-0.796,-0.7845,-0.7699,-0.755,-0.74,-0.7244,-0.7177,-0.7139,-0.7139,-0.7139,-0.7753,-0.889,-0.9579,-1.0697,0.0,0.0,-0.3105,-0.2998,-0.3644,-0.4282,0.0,0.0,0.0,0.0,0.0,0.0,0.0,0.0,0.0,0.0,0.0,0.0,0.0,0.0,0.0,0.0,0.0,0.0,0.0,0.0,0.0,0.0,0.0,0.0,-0.2756,-0.2962,-0.3202,-0.3514,-0.3569,-0.3695,-0.3807,-0.3694,-0.3906,-0.4414,-0.4467,-0.4488,-0.4519,-0.4519,-0.4519,-0.4519,-0.4519,-0.4524,-0.4515,-0.4515,-0.4604,-0.4827,-0.5213,-0.5375,-0.5237,-0.5118,-0.5176,-0.5418,-0.5867,-0.6185,-0.6461,-0.7116,-0.7517,-0.7723,-0.7859,-0.8027,-0.8121,-0.7505,-0.7299,-0.7116,-0.637,-0.7262,-0.8529,-0.8976,-1.0307,-1.1474,-1.1913,-1.2032,-1.1483,-0.9501,-0.928,-0.9234,-0.8621,-0.971,-1.0935,-1.207,-1.325,-1.3997,-1.3646,-1.3114,-1.2539,-1.2068,-1.0598,-0.9556,-0.936,-0.8506,-0.7926,-0.7926,-0.7821,-0.7692,-0.7546,-0.7434,-0.7299,-0.7143,-0.7139,-0.7139,-0.7139,-0.7139,-0.7577,-0.8452,-0.9666,-1.0783,0.0,-0.3296,0.0,-0.3108,-0.3127,0.0,0.0,0.0,0.0,0.0,0.0,0.0,0.0,0.0,0.0,0.0,0.0,0.0,0.0,0.0,0.0,0.0,0.0,0.0,0.0,0.0,0.0,0.0,0.0,0.0,-0.2874,-0.3142,-0.3303,-0.3319,-0.351,-0.3595,-0.3602,-0.3737,-0.3951,-0.4197,-0.4411,-0.4488,-0.4519,-0.4519,-0.4519,-0.4519,-0.4519,-0.4522,-0.4473,-0.4473,-0.4512,-0.4594,-0.5195,-0.5177,-0.4942,-0.506,-0.5085,-0.5142,-0.5131,-0.5294,-0.5495,-0.5491,-0.5599,-0.5752,-0.5898,-0.5946,-0.5988,-0.607,-0.6009,-0.5895,-0.5823,-0.5895,-0.6463,-0.8236,-0.873,-0.9267,-1.0936,-1.1248,-1.0628,-0.8681,-0.8509,-0.8563,-0.8133,-0.9433,-1.0883,-1.175,-1.3123,-1.373,-1.2504,-1.2339,-1.1576,-0.9503,-0.9173,-0.8718,-0.7795,-0.7621,-0.7624,-0.7624,-0.7614,-0.7543,-0.739,-0.7373,-0.7299,-0.7143,-0.7139,-0.7139,-0.7139,-0.7139,-0.7139,-0.7228,-0.8452,-0.9579,0.0,0.0,0.0,-0.3161,-0.3082,-0.3275,0.0,0.0,0.0,0.0,0.0,0.0,0.0,0.0,0.0,0.0,0.0,0.0,0.0,0.0,0.0,0.0,0.0,0.0,0.0,0.0,0.0,0.0,0.0,0.0,-0.3046,-0.3199,-0.3306,-0.3306,-0.35,-0.3581,-0.3581,-0.3531,-0.3661,-0.4053,-0.4155,-0.4282,-0.4519,-0.4519,-0.4519,-0.4519,-0.4519,-0.4519,-0.4519,-0.4519,-0.4492,-0.451,-0.4749,-0.4723,-0.4658,-0.4687,-0.4803,-0.4917,-0.488,-0.5006,-0.5213,-0.5213,-0.5318,-0.5471,-0.562,-0.5664,-0.5694,-0.584,-0.5844,-0.58,-0.58,-0.6294,-0.7212,-0.9114,-0.9732,-1.0062,-1.0551,-1.0293,-0.9566,-0.819,-0.8629,-0.9285,-0.9356,-1.0558,-1.1859,-1.3136,-1.3756,-1.3646,-1.2504,-1.1638,-1.0691,-0.9221,-0.8442,-0.7883,-0.7587,-0.76,-0.76,-0.76,-0.7509,-0.7431,-0.7373,-0.7275,-0.7197,-0.7143,-0.7139,-0.7139,-0.7139,-0.7139,-0.7139,-0.7139,-0.8364,-0.9492,-0.2988,0.0,0.0,0.0,0.0,-0.3565,0.0,0.0,0.0,0.0,0.0,0.0,0.0,0.0,0.0,0.0,0.0,0.0,0.0,0.0,0.0,0.0,0.0,0.0,0.0,0.0,0.0,0.0,0.0,0.0,-0.3159,-0.3299,-0.3383,-0.3383,-0.3527,-0.3581,-0.3581,-0.348,-0.3598,-0.3941,-0.3941,-0.41,-0.4392,-0.4446,-0.4529,-0.4519,-0.4519,-0.4519,-0.4519,-0.4519,-0.4521,-0.4495,-0.4495,-0.4497,-0.451,-0.4474,-0.4591,-0.4703,-0.4666,-0.4823,-0.5131,-0.5131,-0.5237,-0.5456,-0.5545,-0.5555,-0.5545,-0.5688,-0.5694,-0.5654,-0.5654,-0.641,-0.7436,-0.867,-0.9469,-0.9785,-0.9416,-0.93,-0.8993,-0.8012,-0.8467,-0.9168,-0.98,-1.095,-1.2216,-1.3589,-1.3794,-1.331,-1.1849,-1.0926,-0.9952,-0.852,-0.7706,-0.7336,-0.7438,-0.7444,-0.7444,-0.7444,-0.735,-0.7292,-0.7292,-0.7193,-0.7139,-0.7139,-0.7139,-0.7316,-0.7665,-0.7316,-0.7139,-0.7139,-0.8711,-1.0269,0.0,0.0,0.0,0.0,0.0,0.0,0.0,0.0,0.0,0.0,0.0,0.0,0.0,0.0,0.0,0.0,0.0,0.0,0.0,0.0,0.0,0.0,0.0,0.0,0.0,0.0,0.0,0.0,0.0,-0.3313,-0.3313,-0.3497,-0.3581,-0.3581,-0.3578,-0.3575,-0.3581,-0.3575,-0.3646,-0.3792,-0.3792,-0.3948,-0.419,-0.4411,-0.4492,-0.4512,-0.4515,-0.4519,-0.4519,-0.4519,-0.4519,-0.4519,-0.4519,-0.4519,-0.4519,-0.4519,-0.4498,-0.4503,-0.4503,-0.475,-0.5118,-0.5125,-0.523,-0.5449,-0.5538,-0.5481,-0.5459,-0.5542,-0.5477,-0.5428,-0.5428,-0.6009,-0.6654,-0.6719,-0.7618,-0.8277,-0.7362,-0.8249,-0.8993,-0.7936,-0.7922,-0.8295,-0.9113,-1.0523,-1.1884,-1.2962,-1.3213,-1.2487,-1.0653,-1.0267,-0.9354,-0.7097,-0.7051,-0.7136,-0.7139,-0.7139,-0.7139,-0.7139,-0.7139,-0.7139,-0.7139,-0.7139,-0.7139,-0.7139,-0.7139,-0.7665,-0.889,-0.7753,-0.7139,-0.7228,-0.957,-1.1906,-0.0492,0.0,0.0,0.0,0.0,0.0,0.0,0.0,0.0,0.0,0.0,0.0,0.0,0.0,0.0,0.0,0.0,0.0,0.0,0.0,0.0,0.0,0.0,0.0,0.0,0.0,0.0,0.0,0.0,-0.3517,-0.3517,-0.3558,-0.3581,-0.3581,-0.3473,-0.3466,-0.3578,-0.347,-0.3541,-0.3792,-0.3792,-0.3942,-0.4191,-0.4251,-0.4379,-0.4478,-0.4474,-0.4519,-0.4519,-0.4519,-0.4519,-0.4519,-0.4519,-0.4519,-0.4519,-0.4519,-0.4487,-0.4524,-0.4524,-0.465,-0.483,-0.4942,-0.5077,-0.5223,-0.5379,-0.5463,-0.5435,-0.5413,-0.5463,-0.5428,-0.5428,-0.5554,-0.5947,-0.6527,-0.721,-0.7778,-0.8136,-0.8176,-0.7936,-0.6949,-0.7362,-0.7957,-0.8434,-1.0027,-1.1437,-1.2037,-1.2718,-1.2418,-1.035,-1.0034,-0.9193,-0.7083,-0.6963,-0.7031,-0.7132,-0.7139,-0.7139,-0.7139,-0.7139,-0.7139,-0.7139,-0.7139,-0.7139,-0.7139,-0.7139,-0.7665,-0.889,-0.854,-0.8798,-0.9657,-1.1123,-1.2157,0.0,0.0,0.0,0.0,0.0,0.0,0.0,-0.5129,0.0,0.0,0.0,0.0,0.0,0.0,0.0,0.0,0.0,0.0,0.0,0.0,0.0,0.0,0.0,0.0,0.0,0.0,0.0,0.0,-0.3581,-0.3581,-0.3581,-0.3581,-0.3581,-0.3581,-0.3493,-0.349,-0.3581,-0.349,-0.3534,-0.371,-0.3704,-0.3785,-0.3938,-0.3969,-0.4144,-0.4481,-0.4474,-0.4483,-0.449,-0.4494,-0.4519,-0.4519,-0.4519,-0.4519,-0.4519,-0.4519,-0.4519,-0.4519,-0.4519,-0.4562,-0.4704,-0.4796,-0.4962,-0.5145,-0.5237,-0.5311,-0.5428,-0.5428,-0.5428,-0.5428,-0.5428,-0.5428,-0.5557,-0.6009,-0.6736,-0.7354,-0.7425,-0.7664,-0.7633,-0.7022,-0.7403,-0.7816,-0.8,-0.9334,-1.0501,-1.0824,-1.1251,-1.0981,-0.9397,-0.9167,-0.8491,-0.6892,-0.6854,-0.6963,-0.7044,-0.7105,-0.7139,-0.7139,-0.7139,-0.7139,-0.7139,-0.7139,-0.7139,-0.7139,-0.7139,-0.7925,-0.9579,-0.9148,-0.9753,-1.13,-1.198,-1.2589,0.0,0.0179,0.0313,0.0,0.0,0.0,-0.3375,-0.4983,0.0,0.0,0.0,0.0,0.0,0.0,0.0,0.0,0.0,0.0,0.0,0.0,0.0,0.0,0.0,0.0,0.0,0.0,0.0,-0.3527,-0.3588,-0.3609,-0.3578,-0.3581,-0.3581,-0.3581,-0.3581,-0.3581,-0.3581,-0.3486,-0.3401,-0.3414,-0.3404,-0.3469,-0.3594,-0.3601,-0.388,-0.4392,-0.4399,-0.4421,-0.4502,-0.4522,-0.4519,-0.4519,-0.4519,-0.4519,-0.4519,-0.4519,-0.4519,-0.4519,-0.4519,-0.4551,-0.4667,-0.4684,-0.4867,-0.5084,-0.5101,-0.5213,-0.5342,-0.5422,-0.5428,-0.5428,-0.5428,-0.5439,-0.5452,-0.5452,-0.6295,-0.6889,-0.6039,-0.6794,-0.7629,-0.7629,-0.7629,-0.7629,-0.7629,-0.8466,-0.9214,-0.9481,-0.9346,-0.899,-0.8238,-0.8019,-0.7632,-0.6628,-0.6729,-0.6909,-0.6926,-0.7058,-0.7139,-0.7139,-0.7139,-0.7139,-0.7139,-0.7139,-0.7139,-0.7139,-0.7228,-0.8356,-1.0611,-0.984,-1.0529,-1.2504,-1.2504,-1.3033,0.0,0.0,0.0,0.0,0.0,0.0,-0.1915,-0.2754,-0.3427,0.0,0.0,0.0,0.0,0.0,0.0,0.0,0.0,0.0,0.0,0.0,0.0,0.0,0.0,0.0,0.0,0.0,-0.3212,-0.3212,-0.3454,-0.3581,-0.3619,-0.3581,-0.3581,-0.3581,-0.3581,-0.3581,-0.3581,-0.2627,-0.2138,-0.2144,-0.2144,-0.265,-0.3597,-0.3622,-0.3656,-0.3796,-0.3764,-0.4044,-0.4491,-0.4512,-0.4519,-0.4519,-0.4519,-0.4519,-0.4519,-0.4519,-0.4519,-0.4519,-0.4519,-0.4536,-0.4584,-0.465,-0.4728,-0.4799,-0.4921,-0.506,-0.5203,-0.5325,-0.5428,-0.5428,-0.5428,-0.5454,-0.5545,-0.5545,-0.5912,-0.6201,-0.5986,-0.628,-0.6567,-0.6567,-0.6567,-0.6567,-0.6567,-0.7403,-0.8097,-0.8137,-0.8794,-0.8932,-0.7983,-0.7833,-0.7504,-0.6617,-0.6634,-0.6797,-0.6919,-0.7058,-0.7139,-0.7139,-0.7139,-0.7139,-0.7139,-0.7139,-0.7139,-0.7139,-0.8017,-0.9231,-1.0611,-1.226,-1.3307,-1.3737,-1.3737,-1.3906,0.0,0.0,0.0,0.2109,0.0,0.0,0.0,-0.1045,-0.1663,0.0,0.0,0.0,0.0,0.0,0.0,0.0,0.0,0.0,0.0,0.0,0.0,0.0,0.0,0.0,0.0,0.0,-0.3112,-0.3189,-0.3433,-0.3591,-0.3615,-0.3581,-0.3581,-0.3581,-0.3585,-0.3592,-0.3598,-0.3004,-0.2101,-0.0895,-0.0894,-0.122,-0.1801,-0.1789,-0.1794,-0.1813,-0.1825,-0.2837,-0.449,-0.4501,-0.4522,-0.4519,-0.4519,-0.4519,-0.4519,-0.4519,-0.4519,-0.4519,-0.4519,-0.4519,-0.4529,-0.4551,-0.4629,-0.4718,-0.4874,-0.5074,-0.526,-0.5342,-0.5428,-0.5428,-0.5428,-0.5416,-0.5494,-0.5572,-0.5755,-0.5935,-0.6013,-0.6149,-0.6338,-0.6338,-0.6338,-0.6338,-0.6338,-0.6718,-0.7022,-0.7022,-0.748,-0.7633,-0.7099,-0.7022,-0.6902,-0.6438,-0.6498,-0.6647,-0.6803,-0.6949,-0.7065,-0.7136,-0.7139,-0.7139,-0.7139,-0.7139,-0.7139,-0.7139,-0.8281,-0.9148,-0.9753,-1.2083,-1.347,-1.4088,-1.4088,-1.4088,0.0,0.0,0.0,0.0,0.0,0.0557,0.0,0.0,0.0,-0.2522,0.0,0.0,0.0,0.0,0.0,0.0,0.0,0.0,0.0,0.0,0.0,0.0,0.0,0.0,0.0,0.0,-0.3062,-0.3212,-0.3415,-0.3503,-0.3527,-0.3565,-0.349,-0.3262,-0.3499,-0.3372,-0.2926,-0.2926,-0.1932,0.0,0.0,0.0,0.0,0.0,0.0,0.0,0.0,-0.1703,-0.4488,-0.4494,-0.4477,-0.4522,-0.4519,-0.4519,-0.4519,-0.4519,-0.4519,-0.4519,-0.4519,-0.4519,-0.4519,-0.4519,-0.4565,-0.4718,-0.4874,-0.5104,-0.5321,-0.5418,-0.5428,-0.5428,-0.5428,-0.5449,-0.5443,-0.5596,-0.5742,-0.5888,-0.604,-0.6173,-0.6338,-0.6338,-0.6338,-0.6338,-0.6338,-0.6338,-0.6338,-0.6338,-0.6338,-0.6338,-0.6338,-0.6338,-0.6338,-0.6338,-0.6386,-0.6522,-0.6647,-0.6824,-0.6976,-0.7092,-0.7126,-0.7139,-0.7139,-0.7139,-0.7139,-0.7139,-0.8017,-0.8627,-0.889,-1.0783,-1.2334,-1.3737,-1.3997,-1.4088,0.0,0.0,0.0,0.0,0.3404,0.0,0.0,0.0,-0.0089,-0.0357,0.0,-0.3581,-0.3581,0.0,0.0,0.0,0.0,0.0,0.0,0.0,0.0,0.0,0.0,0.0,0.0,0.0,0.0,-0.2947,-0.3076,-0.3215,-0.3326,-0.3507,-0.3123,-0.2045,-0.3046,-0.2553,-0.0447,-0.0403,-0.0269,0.0,0.0,0.0,0.0,0.0,0.0,0.0,0.0,-0.1729,-0.4487,-0.4494,-0.4487,-0.4477,-0.4522,-0.4519,-0.4519,-0.4519,-0.4519,-0.4519,-0.4519,-0.4519,-0.4519,-0.4519,-0.4565,-0.4718,-0.4874,-0.503,-0.5186,-0.5321,-0.5428,-0.5428,-0.5428,-0.546,-0.5599,-0.5742,-0.5891,-0.6047,-0.62,-0.6247,-0.6338,-0.6338,-0.6338,-0.6338,-0.6338,-0.6338,-0.6338,-0.6338,-0.6338,-0.6338,-0.6338,-0.6338,-0.6338,-0.6338,-0.6386,-0.6478,-0.6498,-0.6763,-0.6936,-0.6953,-0.7071,-0.7139,-0.7139,-0.7139,-0.7139,-0.7139,-0.7228,-0.7841,-0.889,-0.9148,-1.0443,-1.2504,-1.3561,-1.4088,0.0,0.0,0.0,0.0,0.0,0.0,0.0,0.0,0.0,0.0,0.0,0.0,0.0,0.0,0.0,0.0,0.0,0.0,0.0,0.0,0.0,0.0,0.0,0.0,0.0,0.0,0.0,0.0,0.0,-0.3225,-0.347,-0.3551,-0.3043,-0.1827,-0.1611,-0.1043,-0.0,0.0,0.0,0.0,0.0,0.0,0.0,0.0,0.0,0.0,0.0,-0.0718,-0.2015,-0.3764,-0.4497,-0.448,-0.4473,-0.4522,-0.4519,-0.4519,-0.4519,-0.4519,-0.4519,-0.4519,-0.4519,-0.4519,-0.4626,-0.4833,-0.4901,-0.5081,-0.5277,-0.5345,-0.5428,-0.5428,-0.5428,-0.541,-0.5515,-0.5745,-0.585,-0.5962,-0.6207,-0.6338,-0.6338,-0.6338,-0.6338,-0.6338,-0.6338,-0.6338,-0.6338,-0.6338,-0.6338,-0.6338,-0.6338,-0.6338,-0.6338,-0.6338,-0.6315,-0.6383,-0.6464,-0.6671,-0.6834,-0.6922,-0.7061,-0.7139,-0.7139,-0.7139,-0.7139,-0.7139,-0.7139,-0.7312,-0.7841,-0.854,-0.941,-1.0351,-1.1563,-1.2425,0.3194,0.0,0.0,0.0,0.0,0.0,0.0,0.0,0.0,0.0,0.0,0.0,0.0,0.0,-0.3568,0.0,0.0,0.0,0.0,0.0,0.0,0.0,0.0,0.0,0.0,0.0,0.0,0.0,0.0,0.0,-0.3507,-0.3568,-0.3185,-0.2328,-0.0815,0.0,0.0,0.0,0.0,0.0,0.0,0.0,0.0,0.0,0.0,0.0,0.0,0.0,-0.0168,-0.2355,-0.3251,-0.335,-0.4196,-0.4477,-0.4522,-0.4519,-0.4519,-0.4519,-0.4519,-0.4519,-0.4519,-0.4519,-0.4643,-0.4863,-0.4908,-0.5098,-0.5308,-0.5415,-0.5428,-0.5428,-0.5428,-0.5428,-0.5426,-0.5681,-0.5742,-0.5827,-0.6132,-0.6166,-0.6159,-0.6244,-0.6227,-0.621,-0.6254,-0.6338,-0.6338,-0.6338,-0.6338,-0.6338,-0.6338,-0.6338,-0.6338,-0.6338,-0.6338,-0.6318,-0.6461,-0.6614,-0.6783,-0.6973,-0.7085,-0.7139,-0.7139,-0.7139,-0.7139,-0.7139,-0.7139,-0.7139,-0.7139,-0.8013,-0.8364,-0.8452,-0.9923,-1.1037,0.0,0.0,0.0,0.3585,0.0,0.0,0.0,0.0,-0.4185,0.0,0.0,0.0,0.0,-0.3581,-0.3534,-0.3353,0.0,0.0,0.0,0.0,0.0,0.0,0.0,0.0,0.0,0.0,0.0,0.0,0.0,0.0,-0.3323,-0.3503,-0.3588,-0.3567,-0.1257,0.0,0.0,0.0,0.0,0.0,0.0,0.0,0.0,0.0,0.0,0.0,0.0,0.0,-0.0,-0.0112,-0.0168,-0.0447,-0.336,-0.449,-0.4477,-0.4522,-0.4519,-0.4519,-0.4519,-0.4519,-0.4519,-0.4519,-0.4568,-0.4724,-0.4874,-0.502,-0.5169,-0.5318,-0.5428,-0.5428,-0.5428,-0.5428,-0.5403,-0.5559,-0.5596,-0.5677,-0.5973,-0.5922,-0.5905,-0.6203,-0.6139,-0.6084,-0.6234,-0.6338,-0.6338,-0.6338,-0.6338,-0.6338,-0.6338,-0.6338,-0.6338,-0.6338,-0.6338,-0.6318,-0.6461,-0.6614,-0.6824,-0.7115,-0.7139,-0.7139,-0.7139,-0.7139,-0.7139,-0.7139,-0.7139,-0.7139,-0.7139,-0.7139,-0.7139,-0.7228,-0.9483,-1.0611,0.0,0.0,0.3585,0.3581,0.0,0.0,0.0,0.0,0.0,0.0,0.0,0.0,0.0,0.0,-0.3564,-0.3524,-0.2889,0.0,0.0,0.0,0.0,0.0,0.0,0.0,0.0,0.0,0.0,0.0,0.0,0.0,0.0,-0.2794,-0.2776,-0.3557,-0.126,0.0,0.0,0.0,0.0,0.0,0.0,0.0,0.0,0.0,0.0,0.0,0.0,0.0,0.0,0.0,0.0,-0.0279,-0.3312,-0.4501,-0.4487,-0.4525,-0.4519,-0.4519,-0.4519,-0.4519,-0.4536,-0.4579,-0.4718,-0.4807,-0.4951,-0.5165,-0.5294,-0.5415,-0.5428,-0.5428,-0.5428,-0.5428,-0.5466,-0.5552,-0.5661,-0.5786,-0.5986,-0.6067,-0.6135,-0.624,-0.6217,-0.62,-0.6251,-0.6338,-0.6338,-0.6338,-0.6338,-0.6338,-0.6338,-0.6338,-0.6338,-0.6338,-0.6338,-0.6281,-0.6329,-0.6559,-0.6827,-0.7122,-0.7139,-0.7139,-0.7139,-0.7139,-0.7139,-0.7139,-0.7139,-0.7139,-0.7139,-0.7139,-0.7139,-0.7139,-0.7921,-0.9139,0.3595,0.2956,0.0,0.0,0.3597,0.0,0.151,0.0,0.0,0.0,0.0,0.0,0.0,0.0,0.0,-0.2318,-0.2043,-0.1787,0.0,-0.1811,0.0,0.0,0.0,0.0,0.0,0.0,0.0,0.0,0.0,0.0,0.0,0.0,-0.2413,-0.2328,-0.1658,-0.0887,-0.0,0.0,0.0,0.0,0.0,0.0,0.0,0.0,0.0,0.0,0.0,0.0,0.0,0.0,0.0,-0.028,-0.3314,-0.4507,-0.4501,-0.448,-0.4473,-0.4522,-0.4519,-0.4519,-0.4543,-0.4643,-0.4755,-0.4813,-0.5008,-0.5199,-0.5301,-0.5413,-0.5403,-0.5439,-0.543,-0.547,-0.5452,-0.5484,-0.5579,-0.5701,-0.5905,-0.5945,-0.6081,-0.6297,-0.6173,-0.6132,-0.624,-0.6338,-0.6338,-0.6338,-0.6338,-0.6338,-0.6338,-0.6338,-0.6338,-0.6338,-0.6338,-0.6281,-0.6332,-0.661,-0.6861,-0.7054,-0.7112,-0.7139,-0.7139,-0.7139,-0.7166,-0.7221,-0.717,-0.7166,-0.7221,-0.7166,-0.7139,-0.7139,-0.7139,-0.8356]}]]